GFSMW_850_spd_000.txt.gz
Wind_Speed
10 10 10 9 7 4 8 7 11 18 25 27 27 26 25 24 25 25 26 27 28 30 32 34 34 34 36 37 37 38 39 41 42 43 46 47 46 46 47 47 48 48 48
10 11 12 14 15 15 13 9 6 11 11 10 21 28 29 29 27 25 25 26 27 27 28 28 29 29 30 31 33 34 36 39 39 41 38 31 38 43 43 37 30 31 32
10 11 12 13 13 15 16 15 13 8 8 8 6 12 20 24 23 22 23 24 24 24 25 25 27 27 30 30 30 31 33 36 36 38 35 17 19 30 34 33 31 37 38
8 9 11 12 14 16 15 15 13 9 6 5 4 3 6 11 13 17 18 19 20 23 22 22 22 24 25 27 28 31 33 35 37 35 39 43 44 29 31 39 38 36 43
8 10 11 13 13 13 14 13 13 13 14 13 12 10 8 10 10 11 11 11 11 12 13 15 17 17 18 23 27 30 35 36 38 39 40 42 44 46 43 35 44 43 42
9 9 9 9 10 11 11 12 13 14 14 12 12 13 13 12 12 12 13 13 13 13 13 14 16 18 19 20 22 26 29 31 34 38 40 40 34 35 35 37 39 41 51
9 8 6 6 7 9 10 11 12 12 13 13 14 15 14 13 14 15 16 18 20 20 21 21 20 20 19 20 20 22 25 29 32 35 36 39 42 42 42 42 44 41 42
8 6 5 5 6 8 8 8 8 9 10 12 13 12 12 13 14 15 18 20 21 23 23 24 25 25 26 27 28 28 28 28 29 31 33 34 36 38 40 43 42 42 44
9 7 5 5 7 5 5 5 7 8 9 12 13 14 14 16 18 19 20 21 22 23 25 27 29 29 29 28 28 29 30 31 33 35 36 34 35 34 34 36 39 40 44
12 7 6 7 6 2 2 2 5 9 12 14 15 16 18 19 21 23 24 25 26 29 32 34 35 34 32 31 31 31 31 31 30 29 29 31 31 32 33 35 36 37 40
12 8 8 8 7 4 3 2 8 12 14 15 16 18 20 23 24 26 28 30 32 34 36 37 36 35 34 34 32 31 31 30 29 29 34 34 33 36 37 38 40 42 41
13 11 10 10 8 5 3 8 12 14 15 17 18 21 23 26 27 28 29 31 33 34 33 33 34 35 36 34 33 33 28 31 37 37 35 32 31 32 34 37 40 43 43
16 13 13 12 8 4 5 10 13 16 18 19 21 23 24 26 27 29 30 30 31 31 32 32 32 33 33 34 33 29 34 37 36 32 28 32 34 39 40 37 38 41 43
17 17 15 11 7 4 7 10 14 17 20 22 24 25 25 26 26 27 29 31 31 32 32 32 32 31 32 32 31 35 36 38 34 30 32 36 37 36 35 34 36 36 39
20 18 14 9 4 5 7 12 16 20 21 21 22 21 22 25 27 28 30 30 30 31 32 33 34 32 33 32 32 35 38 39 34 34 36 39 37 35 27 33 36 35 41
21 17 13 9 7 5 9 15 18 20 21 20 20 22 25 27 28 28 29 29 30 30 31 31 32 34 34 32 33 35 39 31 32 38 39 39 40 35 35 35 33 33 33
21 18 14 8 4 9 14 16 18 18 16 18 20 22 25 26 26 27 28 29 30 31 33 33 32 33 32 31 30 34 29 36 38 40 43 43 38 37 40 39 39 41 36
20 15 8 4 7 14 15 16 16 15 18 21 23 24 25 26 27 28 29 31 32 33 34 34 33 33 33 28 29 29 40 45 44 40 45 38 37 42 37 40 44 44 45
16 10 4 6 14 16 17 16 14 18 21 23 24 24 26 27 29 30 32 32 34 35 34 33 33 30 28 27 31 38 42 41 40 39 35 32 38 38 35 39 43 44 49
9 3 7 11 17 18 16 16 19 21 22 24 24 24 25 27 29 30 32 33 33 35 34 34 31 29 27 32 34 33 35 36 36 37 37 36 36 38 39 39 39 45 45
6 8 12 18 25 21 17 18 20 22 23 24 25 25 26 28 30 32 32 34 35 36 36 36 34 31 30 35 32 32 32 33 35 36 38 41 43 41 41 37 36 37 41
10 11 15 21 23 15 17 18 20 22 23 24 26 27 29 30 32 32 34 35 36 37 38 37 35 33 34 34 32 30 29 32 37 38 41 42 43 38 36 32 33 35 37
12 12 20 19 13 14 16 19 21 23 25 26 28 30 31 32 32 34 36 37 36 36 37 34 34 36 39 37 35 32 33 36 36 36 37 40 36 33 32 30 33 36 41
12 14 12 10 13 15 17 19 22 24 26 29 31 32 34 34 34 35 36 36 35 35 32 33 35 36 38 37 36 36 40 39 38 38 42 36 32 31 32 34 36 39 39
11 9 10 13 15 17 18 20 21 24 27 30 32 33 33 34 36 37 37 35 34 26 31 34 35 36 37 37 34 35 35 36 34 38 37 35 38 37 38 36 38 39 42
8 10 12 15 17 19 20 22 22 25 28 32 33 32 32 35 38 40 41 37 33 30 28 29 27 31 29 31 34 33 33 30 34 34 31 36 37 36 37 38 42 42 43

GFSMW_850_spd_003.txt.gz
Wind_Speed
11 11 11 11 10 10 7 7 8 8 9 12 19 21 22 22 22 24 25 25 24 25 27 28 28 27 30 30 32 34 34 34 33 36 37 39 40 42 43 40 40 41 39
11 12 12 13 15 14 13 10 9 9 8 3 6 13 18 19 18 19 18 17 20 22 24 24 26 27 29 29 29 31 34 35 28 34 34 28 31 34 35 35 35 35 34
11 12 12 15 15 16 17 16 15 13 12 10 7 4 6 8 10 12 12 13 14 16 17 18 19 22 23 26 26 26 29 34 34 36 35 20 19 30 37 39 40 42 41
10 12 13 14 15 17 15 14 14 14 14 11 8 7 7 7 9 10 10 9 9 10 13 15 16 18 19 19 20 21 24 28 33 33 35 38 40 28 32 32 34 42 43
10 12 13 13 14 13 13 12 12 13 14 13 13 12 11 11 8 7 8 9 10 12 13 15 17 19 20 20 21 23 23 24 29 32 35 37 39 42 41 35 32 36 43
12 11 11 11 11 9 9 10 11 12 11 11 11 11 10 10 9 10 13 15 17 19 21 22 23 23 24 25 25 25 25 26 28 29 30 31 32 35 34 35 36 34 38
12 11 10 8 7 7 8 8 9 9 10 10 11 12 12 12 14 16 19 21 24 26 27 28 28 29 29 30 31 31 30 29 29 29 31 33 34 35 36 36 40 37 42
12 10 9 6 5 4 5 6 9 9 10 12 13 13 13 14 16 18 20 22 24 26 27 29 31 32 32 33 32 33 32 32 32 32 31 32 31 30 30 31 34 39 39
12 11 9 6 4 3 4 6 8 9 11 13 13 14 15 18 20 22 24 26 28 30 32 34 36 36 36 35 34 34 33 32 32 31 31 30 32 33 32 32 31 32 38
13 12 10 7 5 1 1 3 6 10 12 13 14 16 18 20 23 26 29 31 32 33 34 35 35 35 35 34 33 33 32 30 29 31 35 35 34 34 34 34 35 36 36
14 12 11 9 7 4 2 4 7 10 12 14 16 19 22 25 28 29 30 31 31 32 33 34 35 35 34 33 33 32 30 26 32 35 35 34 29 30 33 35 38 40 38
14 14 13 11 9 7 5 5 8 11 13 15 19 23 26 28 28 28 29 30 32 33 33 34 34 34 34 33 33 32 29 34 38 37 35 30 31 33 33 35 38 37 37
19 16 15 13 12 9 5 7 10 13 17 21 24 26 27 26 27 28 30 30 30 30 30 31 33 34 34 34 32 30 34 38 40 38 31 28 32 31 35 36 31 32 39
19 19 18 15 11 8 6 7 10 14 19 23 24 24 23 25 26 27 27 27 27 29 31 32 34 35 36 36 35 35 35 37 38 31 28 32 31 35 37 34 33 40 42
22 21 18 15 11 4 3 8 13 18 21 22 21 22 24 25 25 26 26 27 28 29 31 33 34 34 34 33 34 34 36 36 37 36 38 39 41 43 36 31 41 41 39
22 19 17 13 6 2 6 13 18 21 22 22 21 23 25 25 25 25 26 27 29 31 33 34 34 36 35 34 32 31 31 35 41 46 47 45 48 46 38 39 40 33 32
22 21 16 9 4 3 11 18 21 22 21 20 22 24 24 25 25 26 28 30 32 34 35 36 36 36 35 33 31 30 32 40 43 43 43 45 40 37 35 40 38 41 39
21 18 13 8 2 8 17 19 20 19 18 21 22 23 24 25 27 29 30 32 34 35 36 37 36 37 36 34 31 32 36 38 39 39 38 38 38 39 37 40 43 45 48
18 14 10 5 7 15 20 23 17 17 19 21 22 23 25 27 29 31 32 33 35 36 37 36 36 36 37 33 32 33 35 39 38 37 37 35 38 37 38 41 45 47 46
14 11 7 9 12 14 16 15 16 19 21 23 23 24 25 27 29 31 32 34 34 36 36 37 37 37 37 36 32 31 34 36 37 37 38 38 37 39 38 42 44 44 40
9 10 10 10 11 15 15 15 18 21 22 22 23 25 26 28 30 31 31 34 36 37 38 39 40 39 37 36 33 31 32 35 37 39 41 42 39 38 42 38 39 35 37
12 9 8 10 15 15 15 17 19 21 22 24 25 27 29 30 31 33 35 36 37 38 39 40 41 40 37 36 34 32 32 32 36 39 41 40 38 42 38 37 35 36 34
12 11 10 13 13 13 16 18 20 22 24 26 28 29 31 32 33 34 36 38 37 38 39 37 37 39 41 41 36 33 32 35 37 39 34 37 40 37 39 35 33 30 31
12 12 14 13 12 14 17 18 20 23 25 28 30 32 34 36 35 36 38 38 37 37 35 34 36 39 42 38 39 38 39 39 40 34 35 44 39 34 37 35 34 32 32
13 13 11 11 13 15 17 18 21 24 26 30 33 35 36 36 37 39 39 37 35 28 31 34 35 37 37 37 35 35 38 37 38 33 41 45 36 42 40 38 37 37 39
13 11 11 13 15 17 18 18 20 24 28 32 34 34 35 36 38 40 43 38 31 28 29 29 28 31 31 32 34 34 33 34 32 35 39 38 36 37 39 40 40 40 43

GFSMW_850_spd_006.txt.gz
Wind_Speed
13 12 11 11 11 12 11 13 12 12 7 4 5 9 11 12 13 15 16 16 17 17 19 22 24 24 26 28 28 29 31 31 30 34 35 38 38 37 36 38 34 37 37
12 12 12 12 13 14 15 14 14 13 12 9 6 5 6 6 7 8 10 11 12 13 15 17 18 19 21 23 23 23 25 28 26 30 33 28 29 32 30 32 38 39 36
14 14 14 14 14 16 16 16 16 16 15 14 10 7 5 5 3 7 7 9 10 11 13 14 16 18 19 21 22 22 24 25 26 25 28 21 25 34 37 31 39 41 37
13 16 15 15 15 16 15 14 15 15 16 14 14 12 11 10 12 10 9 9 10 12 13 16 18 19 21 22 23 23 24 25 26 26 25 29 35 33 36 27 28 35 37
13 16 16 14 14 12 12 12 12 14 14 14 14 13 12 12 9 8 9 12 14 17 19 21 23 24 25 26 27 28 29 28 29 28 30 31 33 32 30 39 32 36 35
16 16 15 13 12 11 9 10 11 12 12 11 12 12 11 11 12 14 16 19 21 23 25 27 29 30 30 31 31 32 31 32 32 32 31 29 29 30 31 34 36 36 37
17 16 14 12 11 9 9 9 10 11 11 12 12 12 13 13 15 18 21 24 28 30 32 33 34 35 35 35 35 35 33 32 32 31 31 30 29 29 30 31 35 32 38
17 15 13 10 9 8 6 7 9 10 11 12 13 13 14 16 19 23 26 28 30 32 32 33 33 34 34 34 34 34 33 31 30 28 27 29 32 32 30 28 29 35 35
18 15 13 9 7 5 5 6 8 9 10 12 12 14 17 21 25 27 29 30 30 31 31 32 33 33 34 34 35 34 34 31 29 28 31 34 34 32 27 25 26 27 30
18 15 12 10 8 5 3 3 4 7 10 11 13 17 21 24 26 27 28 28 29 30 30 31 31 32 32 33 34 34 34 32 30 34 37 36 34 30 27 29 28 28 27
18 15 13 11 8 6 3 0 4 7 9 12 16 20 23 25 25 26 26 27 27 28 30 31 31 32 33 34 34 33 32 33 35 37 37 33 28 27 30 29 31 34 30
17 16 14 12 11 8 4 1 3 7 11 14 19 24 25 25 25 26 27 28 28 28 29 30 31 33 35 36 36 35 36 35 37 37 34 30 29 33 34 35 40 38 26
19 17 16 15 12 8 4 2 5 9 13 20 24 25 24 24 26 26 26 26 27 28 29 32 34 36 37 38 37 37 38 38 37 35 36 38 38 40 41 44 40 33 33
19 18 18 15 12 8 5 3 6 11 17 22 22 22 23 25 26 26 26 27 28 30 32 33 35 36 38 38 38 38 39 39 37 38 42 43 40 39 41 37 36 34 40
18 19 18 16 12 8 4 3 8 15 21 21 22 23 25 25 26 26 27 28 29 31 33 36 37 38 39 39 38 38 37 38 39 42 44 44 43 38 30 34 37 37 40
15 17 18 15 12 8 5 5 12 19 23 22 24 25 25 25 26 27 28 30 32 35 37 38 40 41 40 38 37 33 34 36 39 42 43 43 39 36 36 35 36 34 38
12 18 18 15 12 8 2 9 16 20 20 23 24 24 24 25 27 28 30 33 36 37 38 39 39 40 39 38 36 33 33 36 38 39 40 39 39 39 40 40 39 41 39
13 18 18 15 10 5 7 12 16 20 20 20 22 23 24 25 27 30 33 35 36 38 39 40 39 39 40 38 35 32 34 36 37 37 38 38 40 40 38 42 45 44 47
12 15 14 11 8 7 9 13 18 18 18 19 21 23 25 27 29 32 34 34 37 38 39 39 40 41 42 38 33 32 35 37 38 39 39 36 38 39 39 40 46 49 47
8 12 12 10 9 7 12 16 17 18 18 20 22 24 25 28 30 31 33 35 36 39 41 42 42 41 40 38 31 33 35 38 40 40 41 39 36 38 35 43 44 41 48
9 12 11 8 6 10 14 18 15 17 19 21 23 24 26 29 31 33 33 36 39 41 42 44 44 41 36 35 32 33 33 35 38 41 43 45 41 31 40 41 39 39 41
10 9 8 8 10 13 14 13 15 18 21 23 24 26 28 30 32 33 36 38 40 42 43 44 44 39 34 34 34 32 30 32 37 41 46 45 31 38 41 36 36 37 35
9 9 9 10 11 11 13 14 17 20 22 25 26 28 31 32 33 36 38 40 40 40 41 39 36 36 38 40 36 33 33 35 37 40 40 31 36 42 42 36 36 34 32
10 11 10 10 10 12 14 16 19 22 25 26 28 30 34 37 36 37 37 38 38 37 34 33 36 40 40 39 39 39 40 39 40 40 35 36 42 44 36 40 43 40 35
10 10 11 11 11 13 16 18 20 23 25 27 30 34 36 37 39 39 38 36 33 27 30 33 34 36 37 38 35 36 38 38 38 39 37 40 41 39 41 43 42 42 39
9 11 11 12 12 15 17 18 21 23 26 30 34 35 37 38 39 40 42 37 29 26 28 27 26 30 30 32 34 35 35 34 38 39 34 35 35 37 39 41 44 43 40

GFSMW_850_spd_009.txt.gz
Wind_Speed
11 12 12 12 12 12 13 15 15 16 12 9 7 4 1 2 3 5 7 8 9 10 12 13 14 15 17 19 20 23 25 26 27 30 34 33 35 25 31 26 28 34 39
13 13 14 14 14 16 17 18 18 16 15 12 11 9 8 8 8 7 6 7 8 9 10 12 14 15 17 18 21 23 26 26 25 23 29 20 29 23 23 35 41 37 35
16 14 15 16 15 16 17 17 17 17 17 16 13 11 10 11 9 9 8 9 9 10 12 15 17 19 21 23 25 26 27 29 30 27 19 17 18 38 34 29 33 27 29
17 15 15 15 15 17 15 15 16 16 17 14 13 11 11 10 11 9 9 9 11 14 17 20 22 24 26 27 28 28 29 30 31 31 24 28 30 25 33 25 29 33 27
17 16 15 15 15 13 12 13 13 14 14 12 12 11 11 11 9 8 10 14 18 21 24 26 28 29 30 30 30 30 29 28 28 27 28 29 27 24 26 41 30 34 30
19 17 16 15 14 13 11 11 11 13 12 11 11 11 10 10 11 14 17 22 26 29 31 31 32 31 31 31 31 30 29 28 28 27 27 23 21 22 26 32 41 40 39
22 19 17 15 14 12 10 9 9 11 11 10 10 11 12 13 16 19 23 25 28 31 31 31 30 30 30 29 29 30 29 29 28 27 26 25 25 27 26 28 34 34 38
23 20 17 15 13 12 10 8 8 9 9 9 10 11 13 16 19 22 25 27 28 28 28 28 28 27 27 28 29 30 31 31 29 29 29 31 33 30 25 27 30 35 34
24 21 18 16 14 12 9 7 6 7 7 8 9 11 15 20 23 24 25 26 26 26 25 24 24 24 26 29 31 33 33 33 33 33 32 33 33 28 26 25 25 27 30
24 22 19 18 15 11 8 6 4 3 5 7 9 13 18 20 22 24 24 24 23 22 22 23 24 27 29 31 33 34 35 35 35 32 34 32 29 27 25 28 28 26 25
25 22 20 18 15 12 9 5 2 2 3 6 10 15 19 21 23 23 22 21 22 22 23 25 27 30 32 33 35 36 36 37 36 35 34 28 24 33 36 29 29 31 31
22 21 20 19 16 12 9 6 3 0 3 9 14 18 21 23 22 21 21 21 21 23 25 28 30 32 34 36 37 38 37 36 36 33 28 28 31 36 30 31 29 32 27
20 21 21 19 16 13 10 6 3 1 6 13 17 21 22 21 20 21 21 22 23 25 27 30 32 34 36 37 37 37 38 36 34 32 30 33 32 34 32 31 31 29 33
21 22 21 20 17 14 11 7 3 3 10 16 21 22 23 22 21 21 21 22 25 27 29 31 34 36 37 38 38 38 36 34 34 33 31 32 31 31 34 33 31 34 36
20 22 22 21 18 16 11 7 2 7 13 18 20 20 20 20 20 20 22 24 27 29 32 35 36 37 38 37 37 34 34 34 36 34 34 33 32 31 29 31 37 37 38
16 19 21 21 20 15 10 6 3 9 15 17 18 19 19 19 20 22 25 28 30 33 36 38 38 38 37 36 35 33 33 31 32 35 36 33 34 31 32 35 33 34 38
10 17 21 21 18 13 10 5 6 12 15 16 18 19 18 19 22 25 27 30 34 36 37 37 37 38 38 38 36 30 30 32 32 32 35 38 33 34 37 36 36 39 33
4 13 19 19 16 13 9 6 9 13 15 16 18 17 19 22 24 27 30 33 36 37 38 38 38 40 39 38 34 30 30 34 32 33 33 34 37 36 36 39 39 36 48
5 7 13 15 14 11 7 6 10 14 15 16 17 19 22 24 26 29 32 35 37 38 39 39 40 40 40 36 30 29 33 35 35 33 33 33 37 36 35 36 39 46 46
3 7 13 14 12 9 6 8 11 14 15 15 18 21 23 24 28 31 33 35 37 39 41 42 40 38 38 34 28 30 33 36 37 36 35 35 36 36 31 34 42 43 46
5 10 12 12 9 7 8 11 12 14 15 17 19 20 22 26 30 33 35 36 38 40 41 41 39 37 33 31 29 29 32 34 38 41 39 40 38 28 33 39 40 37 41
8 11 11 10 8 8 9 10 12 14 16 18 19 22 25 28 32 34 36 37 39 40 41 41 39 35 30 31 30 30 29 32 36 39 42 42 35 40 40 40 34 36 35
11 12 11 9 8 8 10 11 14 16 17 20 22 25 28 31 33 35 36 38 38 38 38 37 35 34 37 35 32 30 31 34 36 39 35 39 43 38 38 37 37 33 36
11 10 9 8 8 9 13 13 14 16 19 22 25 28 32 35 34 34 35 36 36 34 32 31 32 36 36 36 36 37 39 37 39 37 44 43 35 30 37 39 37 36 35
9 8 7 8 10 12 11 12 15 18 20 24 27 32 34 34 36 36 35 34 31 25 28 30 31 32 33 35 33 35 38 37 36 43 41 36 31 38 38 39 37 38 38
7 8 8 10 10 9 10 12 15 19 22 27 31 32 33 35 36 37 38 32 28 24 24 24 24 28 28 31 33 34 33 32 38 37 35 34 35 35 39 39 40 41 41

GFSMW_850_spd_012.txt.gz
Wind_Speed
8 11 12 14 13 13 14 16 16 15 12 11 9 8 8 8 6 6 6 6 7 8 9 11 13 15 18 20 22 22 23 21 19 24 26 25 22 19 25 21 20 30 30
11 13 15 17 17 18 19 19 18 17 15 12 12 10 10 11 9 9 8 9 10 11 13 14 16 18 20 21 23 24 25 20 20 22 28 22 29 20 22 34 29 26 31
16 14 17 18 18 19 19 19 18 16 16 15 13 12 11 12 10 9 8 9 11 12 15 17 19 21 22 22 23 22 22 21 21 19 18 25 23 36 30 28 27 22 26
16 15 16 18 18 19 18 17 16 15 15 14 12 10 10 9 10 9 10 11 13 16 19 21 22 23 22 22 23 22 22 19 19 19 17 20 25 30 36 21 29 25 25
17 16 16 19 19 17 16 15 13 14 13 11 10 9 9 10 9 9 11 14 17 20 22 24 25 24 23 23 23 23 22 20 19 19 20 21 22 25 30 42 29 35 30
18 17 19 19 18 16 14 13 11 12 11 9 9 9 9 9 10 13 16 19 21 23 26 25 24 23 22 22 23 24 25 24 24 22 19 19 22 25 28 35 39 39 37
19 19 19 18 17 15 13 12 10 11 10 8 7 8 9 10 13 16 19 21 23 24 24 23 22 21 22 22 24 25 25 23 24 21 20 21 21 24 26 30 37 38 41
19 19 18 18 17 15 13 11 10 9 8 7 6 6 7 10 14 17 19 21 22 22 21 21 20 20 21 23 25 25 24 22 22 24 25 21 24 23 24 27 30 37 39
21 19 19 18 17 15 14 11 9 8 7 5 4 5 8 12 15 18 20 20 20 20 19 19 19 21 23 25 27 26 26 27 22 25 22 24 25 25 25 25 27 32 35
21 19 18 18 18 16 14 12 9 7 5 3 2 6 10 13 16 19 19 19 18 18 18 19 21 22 25 27 28 27 27 23 23 23 25 25 27 26 26 28 30 29 32
22 20 18 19 18 17 14 12 9 6 4 1 5 9 12 16 18 18 18 17 17 18 19 20 22 24 27 28 28 28 25 24 25 24 25 27 26 28 28 29 30 30 31
21 19 19 20 20 18 15 12 9 6 3 2 6 10 14 17 18 18 17 17 17 18 20 22 24 26 29 30 30 26 24 25 26 27 27 28 28 29 30 30 31 33 33
21 19 19 21 20 18 16 13 10 6 2 3 7 12 14 17 18 17 16 17 18 19 21 24 26 29 31 31 27 25 27 26 27 28 29 29 29 31 31 31 34 34 34
21 20 19 19 19 18 17 14 10 7 3 5 9 12 15 17 17 16 16 18 20 22 24 27 29 30 31 30 26 31 28 28 28 28 28 29 29 30 32 34 33 35 37
19 21 21 20 20 20 18 14 10 6 4 8 11 13 17 17 17 16 17 20 22 24 27 29 29 30 31 26 34 32 28 29 30 28 29 29 29 31 30 32 36 36 41
19 20 20 20 21 20 17 14 10 6 6 9 12 15 17 16 16 17 19 22 24 26 29 30 29 31 31 33 33 29 28 28 28 30 30 29 30 29 32 33 34 35 39
15 18 20 20 20 19 17 13 9 6 8 11 14 16 15 15 17 19 22 24 27 30 31 29 30 31 30 31 31 27 27 27 27 28 30 32 30 32 34 38 36 38 37
9 13 17 19 19 19 16 12 8 6 9 12 15 15 15 16 19 21 24 28 30 30 28 28 31 29 26 27 26 26 26 28 27 27 29 31 34 33 36 40 44 33 32
5 9 13 17 18 17 15 11 7 7 10 13 15 15 16 18 21 24 28 30 31 30 28 29 26 27 26 25 24 26 28 28 29 29 29 32 35 35 37 43 37 39 43
4 8 13 16 16 15 12 8 8 10 11 14 14 15 18 20 23 27 30 30 29 27 27 26 25 24 25 23 23 26 26 30 32 33 33 33 34 36 38 41 45 40 42
5 8 11 13 13 11 9 7 8 10 13 13 15 17 19 22 26 29 30 29 29 28 26 25 23 22 21 22 25 26 28 30 36 39 39 38 36 39 44 43 39 36 42
6 8 9 10 10 9 8 8 9 11 12 14 16 18 21 25 28 28 29 29 25 25 26 25 23 21 22 24 25 27 29 31 34 38 39 39 40 44 40 35 32 38 36
6 8 9 9 9 9 9 9 10 12 13 16 18 21 24 26 26 27 28 26 24 24 24 24 25 26 25 25 26 29 31 34 36 37 37 40 43 38 33 31 34 32 33
9 10 10 10 10 10 8 9 10 13 15 18 20 23 25 27 26 25 24 25 23 22 22 24 27 29 28 28 30 34 39 38 38 37 39 40 34 32 31 32 35 33 33
11 12 11 10 10 9 7 9 11 14 16 19 21 23 25 25 25 26 25 25 22 20 23 25 27 30 32 31 33 35 38 38 37 40 40 33 33 33 35 36 35 36 37
12 12 11 10 9 7 8 11 12 14 16 20 22 24 26 25 26 25 26 21 22 22 23 24 24 26 28 30 33 35 34 34 36 36 31 33 33 34 36 37 39 39 39

GFSMW_850_spd_015.txt.gz
Wind_Speed
7 7 9 10 11 13 14 14 14 14 13 13 13 11 10 8 7 7 7 6 7 8 9 11 12 14 15 16 18 19 21 22 19 24 25 28 13 16 22 16 21 28 31
12 11 12 13 13 15 16 17 16 15 14 13 15 13 12 12 10 9 8 8 9 10 12 13 15 17 19 19 20 20 22 20 20 20 26 16 24 13 26 32 27 26 24
16 15 15 14 15 17 18 18 18 17 16 15 15 14 13 12 9 8 7 8 9 11 14 16 18 19 19 19 19 19 19 20 19 16 14 16 14 34 27 28 18 20 29
17 17 17 15 16 19 19 18 17 16 15 14 14 12 10 9 8 7 7 9 11 15 18 20 20 19 18 18 18 17 18 18 17 19 16 19 23 29 32 15 32 25 27
20 19 17 17 18 19 18 17 16 15 14 13 12 10 10 9 7 6 8 11 15 18 21 22 21 20 19 18 19 20 21 20 19 18 20 20 22 25 31 39 30 32 30
21 18 16 17 18 18 17 16 15 15 13 11 11 10 9 7 6 7 10 13 15 18 22 22 20 19 19 20 21 21 22 21 20 23 22 21 24 27 28 35 38 37 35
22 20 18 16 16 16 16 14 13 13 12 10 9 7 6 5 6 9 12 15 17 20 22 22 20 19 20 21 22 23 23 22 22 25 23 26 26 26 29 32 39 39 39
21 20 18 17 15 14 13 13 12 11 10 8 7 5 4 4 7 11 14 16 18 19 21 20 19 20 21 21 22 23 20 20 24 24 25 29 25 27 28 31 33 42 41
22 21 19 16 15 14 13 12 11 10 8 6 4 3 3 6 10 13 15 17 18 19 19 19 19 20 21 22 22 24 25 24 25 26 27 26 29 29 30 32 30 31 39
22 21 19 17 15 14 14 12 10 9 7 5 3 2 5 8 11 14 16 18 18 18 18 18 19 21 23 24 25 27 26 25 24 27 28 29 30 31 32 32 31 31 34
24 22 19 17 15 15 14 12 11 9 7 4 1 3 6 9 12 15 16 17 17 17 17 19 22 23 25 25 26 25 24 23 27 28 29 31 31 32 32 32 33 34 33
23 22 20 18 16 15 14 12 11 9 7 4 2 4 8 11 13 15 16 16 15 17 19 21 23 25 25 25 25 24 23 27 28 29 30 31 31 32 31 32 33 33 35
23 21 20 18 16 15 13 12 11 10 8 5 4 6 9 12 15 16 16 15 16 19 21 23 24 25 26 26 25 23 26 28 28 30 30 32 31 32 32 32 34 36 36
23 22 20 18 16 15 14 12 12 11 9 6 5 8 11 14 16 15 15 16 19 21 23 24 25 26 24 25 24 25 31 30 29 30 30 30 30 31 32 36 35 33 38
23 21 20 18 17 15 14 13 12 11 9 6 7 10 13 15 14 14 16 18 21 23 24 26 25 24 26 23 27 31 31 30 31 30 29 29 30 31 30 31 34 38 40
21 20 18 18 17 16 15 14 13 12 8 6 8 11 14 14 14 15 18 21 23 24 25 25 25 27 26 25 27 27 30 30 29 31 32 30 30 30 31 33 35 35 40
18 18 18 17 16 16 15 14 12 11 7 6 9 12 14 14 15 18 20 21 23 24 25 25 26 27 28 27 27 27 29 29 29 31 31 33 32 32 38 37 37 37 41
12 14 15 15 16 15 14 14 13 9 7 7 10 12 14 15 17 19 20 22 24 25 26 27 28 29 29 27 27 27 28 29 29 30 31 33 35 38 35 39 43 43 44
10 11 13 15 15 16 16 13 10 7 6 8 10 13 15 17 18 20 23 25 26 28 29 29 30 29 29 26 25 26 29 31 31 31 32 34 36 36 36 39 46 46 45
10 11 13 14 14 14 13 11 8 6 7 9 12 14 16 18 20 22 25 26 27 29 29 29 29 27 28 24 24 26 30 32 34 35 38 35 35 36 37 42 45 43 43
9 9 10 12 13 12 11 9 7 7 8 10 14 16 17 19 21 25 26 28 29 29 28 29 28 25 23 25 26 26 29 32 36 41 40 38 38 38 41 42 39 37 40
10 10 11 12 11 10 9 7 6 7 10 13 14 16 18 20 23 27 30 30 28 26 27 27 27 25 23 25 27 28 29 32 37 40 39 41 39 41 41 35 34 36 35
8 9 9 10 9 8 6 5 8 9 12 13 14 17 19 21 24 28 28 28 24 25 26 26 27 27 27 30 27 29 32 35 37 38 39 38 40 37 34 35 33 32 35
7 8 8 8 8 7 6 7 9 11 11 13 15 18 21 25 26 24 23 24 25 25 26 28 29 30 32 30 33 37 40 39 41 40 39 39 33 33 34 34 35 34 34
6 7 8 8 7 7 7 9 9 9 11 14 17 20 23 25 25 23 24 25 24 23 27 30 31 33 33 34 34 36 40 40 39 39 36 32 34 36 35 36 35 36 36
7 8 9 9 9 7 8 8 8 10 13 17 20 21 23 23 22 25 29 24 22 23 24 25 26 29 29 32 34 36 37 36 35 33 31 34 33 34 36 37 39 39 39

GFSMW_850_spd_018.txt.gz
Wind_Speed
11 8 9 9 13 12 12 13 15 15 17 18 19 17 14 11 9 9 8 6 6 5 6 8 10 12 14 16 18 20 21 21 22 25 30 24 15 18 21 18 30 30 23
13 12 12 13 14 18 19 21 21 21 22 20 16 12 12 12 11 9 7 6 6 8 9 12 14 16 17 18 18 19 20 20 20 20 22 15 27 6 31 24 31 13 17
21 17 16 16 17 19 20 21 20 19 18 15 14 16 15 13 10 8 6 7 8 10 12 15 17 18 18 19 18 18 19 21 21 19 14 12 9 39 17 35 14 20 33
23 20 19 18 18 19 20 20 21 20 17 15 14 12 12 11 9 7 6 7 9 12 16 19 20 20 19 18 18 18 19 20 21 22 20 20 23 27 27 13 41 22 36
27 25 21 19 20 21 21 21 20 20 19 17 13 12 12 10 7 4 4 7 12 16 19 22 22 21 20 18 18 19 20 20 21 21 24 28 26 29 31 40 29 38 33
29 25 21 20 21 20 20 19 19 19 17 15 14 12 10 8 6 4 5 8 13 17 20 22 22 21 20 19 20 21 22 23 23 24 26 27 27 32 33 35 41 41 38
29 26 24 22 22 21 19 18 17 18 16 15 14 11 9 6 4 4 7 10 14 18 21 23 21 20 19 20 22 23 25 25 26 26 29 26 29 32 30 34 41 40 41
29 26 23 22 21 20 19 18 17 16 15 13 11 9 6 3 3 6 9 13 16 19 22 21 19 19 20 22 24 26 27 27 27 29 27 30 31 29 30 34 35 46 44
30 26 24 22 21 20 18 17 16 15 13 11 9 6 3 1 5 8 11 14 17 20 19 18 18 20 22 24 26 28 30 29 30 27 29 33 33 33 31 32 34 33 42
30 28 26 23 21 19 18 16 15 13 12 9 7 4 1 3 6 10 13 16 19 19 18 18 19 22 24 27 29 30 31 30 28 30 35 34 33 34 35 32 32 34 35
31 30 26 22 22 22 19 18 15 13 11 9 6 3 2 5 9 12 15 17 18 17 17 20 22 25 27 29 31 31 32 30 29 34 36 34 35 34 33 36 34 35 33
30 29 27 25 24 21 20 17 15 14 11 9 6 3 3 7 11 14 16 16 16 16 19 21 24 27 29 31 31 32 32 28 34 40 37 36 34 36 34 33 36 34 38
28 28 27 26 23 21 19 17 15 14 11 9 6 4 5 8 12 15 15 15 16 18 21 24 27 29 30 31 32 32 28 33 40 39 37 36 32 34 34 35 39 40 38
29 29 28 26 22 21 19 17 16 14 12 9 6 4 6 10 13 15 15 15 17 20 23 25 28 30 31 31 33 27 35 38 39 38 35 30 30 33 36 38 37 33 34
30 30 28 24 22 21 19 17 16 14 12 9 6 4 7 11 14 15 15 16 19 22 25 29 30 31 30 32 27 30 33 36 39 37 30 31 31 31 33 33 36 39 42
30 28 26 23 25 22 20 19 17 14 12 8 5 5 9 13 15 15 16 18 21 25 28 30 31 31 31 30 28 27 31 35 37 34 34 33 34 33 33 36 38 36 38
26 25 25 24 24 21 21 19 17 13 11 7 5 7 10 13 15 15 17 20 24 28 29 30 31 31 32 30 27 27 30 33 35 33 34 35 35 37 41 40 38 40 37
25 24 23 22 21 21 19 16 14 13 9 6 5 8 11 13 14 16 19 23 26 29 30 31 31 32 33 29 28 28 29 34 34 36 34 35 39 41 37 41 44 44 45
20 21 21 23 23 20 18 16 13 10 7 5 6 10 11 13 15 18 22 26 28 30 30 31 32 33 32 31 28 27 31 36 37 35 32 35 40 38 38 41 45 45 44
18 21 22 21 19 18 16 14 11 8 5 4 7 10 11 14 17 21 25 27 28 30 31 32 32 31 32 30 26 26 32 34 36 36 40 38 36 39 39 41 45 40 45
18 17 16 16 15 13 13 11 8 6 4 5 8 10 12 16 20 23 25 27 29 31 32 33 33 32 28 29 27 29 30 32 37 42 44 42 40 38 39 40 36 39 41
16 15 15 13 12 12 11 9 6 3 5 7 8 10 14 18 21 24 26 28 30 32 34 34 35 33 34 29 30 28 29 31 36 39 44 45 40 40 37 34 36 34 35
15 13 11 12 12 11 9 7 4 3 6 7 9 12 16 19 21 25 28 29 30 31 33 34 36 39 36 38 33 30 32 35 37 41 40 38 38 35 36 34 33 32 36
12 10 10 10 10 9 7 4 2 4 5 8 11 14 18 20 24 26 27 29 30 31 32 33 35 36 38 36 37 36 40 38 42 42 40 37 35 34 33 36 38 37 37
10 9 8 8 7 7 5 2 3 4 7 10 13 16 19 23 27 27 28 29 27 25 27 30 31 33 34 35 33 35 38 40 39 38 38 40 37 38 38 39 39 40 39
8 10 10 8 6 5 3 2 3 5 8 11 14 18 23 26 26 29 33 30 29 25 23 24 25 28 28 30 32 34 36 36 34 34 36 35 35 36 37 39 42 42 41

GFSMW_850_spd_021.txt.gz
Wind_Speed
20 12 11 11 11 10 12 15 19 24 26 27 27 25 21 16 15 11 7 7 6 3 3 6 9 12 14 16 18 19 20 19 22 25 28 24 17 9 3 15 25 27 16
22 17 15 16 16 15 17 20 24 24 25 23 21 19 17 14 12 11 9 6 4 4 6 10 13 16 17 17 18 19 18 18 19 22 22 15 22 6 34 17 31 16 16
29 25 21 21 21 20 20 21 21 22 20 18 18 17 17 16 13 11 8 5 4 6 9 13 16 18 18 18 17 17 18 20 20 19 13 10 9 40 16 35 11 21 31
31 31 28 24 23 24 22 22 23 22 16 13 15 16 16 16 12 9 6 3 4 7 12 15 18 19 19 17 16 16 17 19 22 22 20 17 21 23 23 15 43 29 36
37 34 30 26 24 24 24 24 24 23 21 19 16 16 16 14 11 7 3 1 5 9 14 18 20 20 18 17 17 17 18 20 21 21 25 26 30 29 28 33 29 38 39
37 34 29 26 27 27 27 24 23 22 19 18 16 15 14 12 10 7 2 3 8 12 15 18 19 18 17 17 18 19 20 21 22 23 23 25 27 29 35 41 41 38 36
42 37 32 30 29 28 27 25 23 23 21 19 18 16 13 11 8 5 1 5 9 13 17 20 18 16 16 17 19 21 23 24 25 26 27 26 24 28 32 35 41 37 39
41 36 32 31 30 28 27 26 24 23 21 19 18 15 12 9 5 2 3 7 11 15 18 18 16 16 17 19 21 23 25 27 27 27 26 25 28 33 31 32 37 46 44
41 35 31 30 30 28 26 25 24 22 20 18 16 14 10 6 2 1 6 10 13 16 17 16 15 17 19 21 24 26 28 28 28 28 26 28 34 35 33 33 32 33 41
38 33 31 31 29 27 25 23 20 19 18 17 14 11 8 4 1 4 8 12 15 16 15 15 16 18 21 24 27 28 28 29 30 28 29 33 39 37 33 29 32 34 35
38 34 32 29 29 27 25 23 21 19 18 16 13 10 6 3 3 7 10 13 15 15 15 16 18 21 24 26 28 28 30 31 30 30 35 39 37 33 32 29 29 31 32
37 34 32 31 30 28 25 23 21 19 17 15 12 9 6 3 5 9 12 14 14 14 15 18 21 23 26 27 28 30 31 30 33 37 37 38 35 30 27 29 32 36 38
36 36 34 32 31 28 26 23 21 20 17 15 12 9 5 3 6 10 12 13 14 15 17 20 23 25 27 29 30 31 29 31 34 36 38 37 30 29 29 32 36 37 32
39 39 36 32 30 27 25 23 21 18 17 14 11 8 4 4 8 11 12 13 14 16 18 22 25 27 29 30 31 29 31 31 33 36 36 33 30 30 32 34 34 33 38
40 40 38 35 30 26 24 22 20 18 16 14 10 6 3 5 8 11 13 13 15 17 21 25 26 27 29 30 28 29 28 31 34 36 35 34 29 28 27 31 37 39 40
35 38 37 32 28 26 26 24 20 18 15 13 9 5 3 6 9 13 13 14 17 20 23 25 27 28 28 28 26 25 28 31 33 35 37 35 34 31 32 35 35 33 38
37 37 35 30 27 27 25 23 20 16 14 12 8 5 4 7 10 12 13 16 19 22 24 26 27 28 28 28 26 26 28 31 33 34 37 37 36 35 39 39 37 40 39
35 34 31 28 25 26 23 21 18 14 13 11 7 5 5 9 11 11 14 18 21 24 25 26 26 28 28 28 26 26 28 31 33 35 33 33 37 39 37 41 43 44 40
31 30 27 25 27 26 24 20 15 13 12 9 5 4 7 9 10 13 16 20 23 25 26 27 28 29 29 28 26 26 29 33 33 33 31 34 35 37 38 40 43 42 40
27 28 27 26 26 25 20 15 13 13 11 6 3 5 7 8 11 15 18 22 24 25 27 29 29 29 29 30 26 24 28 31 34 37 40 39 36 36 36 38 39 38 45
25 24 24 24 21 18 15 14 13 11 6 3 3 5 6 9 13 16 20 23 25 27 29 29 30 30 31 33 27 26 27 29 33 39 41 45 39 35 38 35 38 36 36
23 20 20 18 16 15 14 14 11 7 4 2 4 4 7 11 14 19 22 24 25 27 29 31 32 33 34 33 32 27 27 27 33 34 44 41 35 38 36 33 30 31 31
19 17 17 18 16 13 11 10 8 5 2 2 2 5 9 12 17 21 23 24 26 28 30 31 34 36 35 34 33 33 29 33 34 39 35 33 37 35 32 30 29 30 36
18 16 16 15 16 13 11 8 5 3 2 1 4 7 11 15 18 20 22 25 27 28 28 30 32 33 34 34 33 34 36 37 39 37 36 39 35 30 30 33 36 36 34
16 13 13 13 12 11 9 6 4 3 1 3 6 10 14 18 20 21 24 25 24 22 25 26 27 29 33 33 31 32 35 36 36 35 38 37 35 37 37 37 37 37 37
14 13 12 11 10 10 7 5 4 1 2 5 9 13 17 19 21 24 26 23 25 24 22 21 21 25 25 28 30 31 32 33 32 31 33 34 34 35 36 38 40 39 38

GFSMW_850_spd_024.txt.gz
Wind_Speed
27 23 20 17 16 17 18 20 25 28 30 31 29 27 22 18 18 15 13 8 6 4 2 3 7 10 13 15 16 16 16 16 20 23 23 18 9 10 7 11 21 23 18
27 23 20 18 17 16 16 18 20 25 30 30 28 28 25 19 17 13 12 10 7 3 1 5 9 13 15 16 17 16 16 15 18 21 19 13 17 5 20 17 29 20 17
34 28 24 21 19 18 18 19 21 24 27 28 27 25 23 18 15 16 14 10 5 1 4 8 12 15 16 16 16 15 16 18 17 17 12 9 7 34 15 34 21 24 31
36 33 29 26 23 21 22 24 25 25 24 23 23 22 21 20 19 16 12 8 3 1 6 11 15 17 17 15 14 14 15 18 19 19 16 14 17 14 19 27 41 33 41
41 38 33 29 27 25 26 26 24 23 21 18 17 19 21 20 19 15 10 6 1 4 8 13 16 17 15 14 14 14 16 18 19 20 23 24 25 24 19 30 30 44 43
42 40 36 33 30 28 28 28 28 26 22 20 21 20 19 19 16 12 8 4 1 6 10 14 16 15 13 13 14 16 18 19 20 21 21 23 23 24 26 35 38 34 35
46 43 40 36 33 33 31 30 28 27 25 23 21 19 18 15 12 9 6 3 4 7 11 14 14 13 13 14 16 18 20 22 23 24 24 23 21 23 28 36 43 35 40
48 47 42 38 36 34 33 31 30 28 26 23 21 20 17 14 12 8 5 3 6 9 12 14 13 13 14 16 18 21 23 24 24 25 25 23 24 28 32 35 34 42 34
48 47 41 38 37 36 34 31 30 28 26 24 23 20 17 14 11 7 3 4 7 10 12 13 13 14 16 19 21 23 24 24 26 26 25 26 30 33 33 31 28 29 38
41 44 40 38 36 34 32 30 28 27 26 24 21 18 16 13 9 4 3 5 8 11 12 13 14 16 18 21 23 24 24 26 26 26 28 31 32 34 32 29 27 25 31
45 43 39 37 35 33 31 30 28 27 26 23 20 17 14 10 6 3 4 7 10 11 13 13 15 18 20 22 24 24 26 26 27 29 31 32 34 34 32 30 28 29 30
44 41 38 37 35 33 31 29 27 25 23 21 18 16 12 8 5 3 5 8 10 12 13 14 17 20 22 23 25 26 26 27 29 30 31 34 34 34 32 29 29 31 33
39 38 38 38 36 33 31 28 26 24 21 19 17 14 10 7 4 4 7 9 11 11 13 16 19 22 23 25 26 26 27 28 28 30 32 34 33 35 32 30 32 33 31
40 39 38 38 35 32 30 28 25 22 21 18 15 12 9 6 4 5 7 9 10 12 14 18 21 22 24 25 26 27 27 28 29 30 32 33 34 35 32 33 32 32 40
37 40 39 37 35 33 29 26 24 22 19 16 14 11 9 5 4 5 8 9 10 13 17 20 21 23 25 26 27 27 27 28 30 31 32 32 34 30 29 31 35 39 41
37 39 38 36 35 32 30 28 25 21 17 14 13 11 8 5 5 7 9 9 12 16 19 20 23 24 25 26 26 24 27 29 30 32 32 35 33 31 31 35 33 33 39
39 40 39 36 34 33 29 27 23 19 16 14 13 11 7 5 6 9 9 11 14 18 20 21 23 24 26 27 26 24 26 29 31 33 33 33 33 36 37 37 37 39 37
37 37 36 34 32 28 26 23 21 17 15 14 13 9 5 5 8 9 10 13 16 19 21 22 24 26 27 27 27 28 27 30 30 29 30 31 36 35 35 38 41 33 46
32 32 31 31 29 26 24 22 20 16 14 14 11 7 5 6 7 8 11 15 18 20 22 24 26 27 28 28 28 25 29 31 32 31 31 33 32 38 34 37 41 41 44
26 28 28 28 25 26 25 22 18 15 14 11 8 6 5 6 7 10 14 17 20 21 23 25 26 26 28 27 26 23 27 32 34 35 38 35 35 34 32 39 38 41 38
24 26 27 26 26 26 24 19 15 14 12 10 6 5 5 5 8 11 16 19 21 23 25 27 26 26 27 27 24 22 25 30 33 37 40 42 35 33 36 33 33 31 35
27 25 25 26 25 23 19 15 14 13 10 7 5 4 4 6 10 14 17 19 22 25 27 27 28 27 27 26 26 22 24 25 32 34 40 37 34 35 32 28 26 29 31
27 25 25 25 21 17 12 15 14 11 7 5 4 4 5 8 12 15 18 21 24 26 27 28 29 30 29 27 25 26 26 29 30 35 33 33 34 31 28 26 27 28 32
24 22 22 22 21 17 15 11 10 8 5 5 4 4 7 10 13 16 20 23 24 25 25 26 27 28 29 28 28 30 32 32 35 34 37 37 31 28 26 30 32 33 32
22 19 18 18 18 16 13 11 8 6 5 4 3 6 9 13 16 18 21 23 22 21 22 22 23 26 29 27 26 28 30 33 33 32 33 31 32 32 31 33 35 35 34
19 18 16 15 16 14 12 9 7 6 4 3 5 8 12 15 18 21 22 21 22 22 20 20 19 23 22 25 27 26 29 31 28 28 29 32 32 32 33 36 38 36 34

GFSMW_850_spd_027.txt.gz
Wind_Speed
31 24 20 23 23 22 22 22 25 31 31 32 31 27 23 22 20 16 13 12 10 7 5 4 5 8 12 15 17 17 17 17 20 22 21 14 5 19 12 11 17 23 27
34 25 23 26 23 21 21 24 26 28 31 34 32 27 27 21 18 15 13 10 9 7 4 4 6 10 14 16 17 16 15 15 19 21 20 12 17 5 9 23 19 25 19
36 27 28 29 25 23 21 21 25 29 32 34 33 30 25 23 19 16 13 13 10 7 4 4 8 12 15 15 15 15 15 15 15 17 10 9 6 33 12 31 25 27 33
33 28 32 31 27 23 19 19 21 22 28 32 31 27 26 24 19 17 17 14 10 6 3 6 10 13 14 14 13 14 15 17 18 17 15 14 17 13 18 20 40 34 41
35 30 35 34 28 23 21 20 21 23 27 28 26 25 24 23 21 20 18 14 9 5 5 8 11 14 14 14 13 14 15 17 18 19 21 22 22 20 17 33 39 46 46
38 34 37 33 30 25 24 24 25 26 26 24 22 22 23 23 24 21 17 11 7 5 6 10 12 14 14 13 14 15 17 18 20 20 20 21 21 22 23 34 40 42 46
36 39 39 36 32 29 29 28 28 28 25 23 21 20 21 21 20 18 13 9 6 5 8 10 12 13 13 14 15 17 18 20 21 22 22 21 19 22 26 34 43 40 48
37 41 44 41 36 33 32 33 32 29 26 23 24 23 22 20 18 14 10 7 5 6 9 11 12 13 14 15 17 19 21 22 22 23 23 21 22 26 27 30 33 43 31
36 42 47 43 40 36 35 35 33 30 28 27 26 24 21 18 14 12 9 6 6 8 9 11 13 14 15 17 19 21 22 23 24 24 23 26 26 27 29 29 27 28 33
35 41 48 46 40 36 35 33 31 30 29 27 24 22 19 16 14 11 7 5 6 8 10 12 13 14 16 19 21 23 23 24 24 25 27 27 28 30 31 30 29 27 30
40 43 46 42 38 35 34 33 31 31 29 26 24 21 19 17 13 9 6 5 7 9 11 12 14 16 19 22 23 24 24 25 26 26 26 28 29 32 32 32 31 30 30
33 41 44 40 38 35 34 33 31 29 27 25 23 20 18 15 11 7 5 5 7 10 11 13 16 18 21 22 24 25 25 26 27 27 28 29 31 32 33 35 33 33 33
35 40 40 39 37 36 35 33 30 28 26 24 21 19 16 12 9 6 5 6 8 10 12 15 18 20 22 23 24 26 26 26 27 28 29 30 30 33 35 34 35 35 34
38 40 39 38 37 36 35 32 29 27 25 22 19 16 14 11 8 6 6 7 9 11 14 16 19 21 22 24 25 26 26 27 27 28 28 30 31 33 32 33 33 34 39
36 39 39 38 37 36 33 30 28 26 23 20 17 15 12 10 7 6 7 9 11 13 15 18 19 21 24 25 27 26 26 27 29 30 31 31 30 27 26 29 36 37 38
34 37 37 38 37 36 33 30 28 24 21 18 16 14 12 10 7 7 8 10 12 13 16 19 21 23 25 26 27 25 26 28 29 31 31 29 28 28 30 31 31 30 35
38 38 37 37 36 35 33 30 26 22 19 17 15 13 12 9 7 7 9 11 12 15 18 20 22 24 26 27 27 25 26 28 29 29 30 29 29 33 33 36 34 36 30
35 35 35 34 34 32 29 26 23 21 18 16 14 13 11 8 7 9 9 10 14 17 19 21 24 26 27 27 26 25 27 29 29 29 28 30 33 32 33 37 34 42 43
30 31 31 30 30 30 28 25 23 20 17 15 14 12 9 8 8 8 9 12 15 18 20 23 25 27 27 26 27 26 28 29 31 31 31 30 30 35 33 34 41 40 44
23 26 26 27 27 28 26 25 23 19 16 14 13 10 9 7 7 9 11 14 18 20 22 24 25 25 26 26 26 24 25 29 33 34 34 32 33 32 31 36 37 40 35
20 21 24 26 27 26 26 24 20 17 14 13 12 9 7 7 7 9 13 17 19 21 24 25 25 25 26 27 25 22 24 28 32 37 38 39 33 32 34 31 32 29 34
23 23 26 26 25 25 24 22 18 15 14 12 10 8 6 6 8 11 15 18 21 24 25 26 27 26 27 26 25 21 23 25 31 34 38 35 34 33 31 27 25 28 29
25 24 25 26 25 24 19 17 15 15 13 11 8 6 5 6 10 13 17 20 22 24 25 26 28 29 28 26 23 23 25 27 28 32 33 33 33 31 28 24 26 26 30
26 26 27 28 27 20 15 13 16 14 10 7 5 4 5 8 12 15 19 21 23 24 25 27 28 29 28 28 25 28 29 29 31 33 35 33 29 26 24 26 29 30 30
26 24 24 24 23 20 18 15 12 9 6 5 4 4 7 11 14 17 20 21 22 22 24 24 24 26 28 26 24 26 28 30 31 30 31 30 29 29 28 29 32 32 32
23 22 21 21 21 18 15 13 9 6 5 4 4 6 10 13 16 19 20 20 21 22 22 22 22 23 23 24 25 25 27 28 26 27 28 29 29 29 30 33 35 34 33

GFSMW_850_spd_030.txt.gz
Wind_Speed
31 27 25 24 23 22 20 19 20 22 27 34 32 30 28 25 24 21 18 15 11 10 9 7 6 6 9 13 16 17 18 19 20 22 20 11 5 13 16 11 13 19 26
37 34 28 24 22 22 21 20 20 22 29 35 34 33 30 27 23 21 18 13 10 9 9 7 6 7 11 15 17 18 17 18 20 22 20 11 12 2 5 22 23 25 21
37 36 31 26 24 25 23 20 20 23 28 32 33 33 31 28 25 20 16 13 12 11 10 7 6 8 12 16 17 17 17 16 17 19 13 8 6 31 9 28 17 27 30
36 37 30 25 27 26 23 20 20 25 27 32 34 34 31 26 25 20 16 15 15 12 9 6 6 10 13 15 16 16 17 17 18 17 16 15 16 13 18 17 38 31 40
37 38 35 27 26 28 25 21 20 24 28 31 33 33 30 26 23 19 17 17 15 11 7 5 8 11 13 14 15 15 16 18 19 19 20 20 20 19 18 33 40 46 45
31 31 31 27 29 29 24 22 21 23 26 29 32 29 26 23 23 21 20 18 14 9 5 6 9 12 13 14 14 15 17 18 19 20 20 20 19 20 21 33 42 42 43
29 29 31 30 32 31 27 24 23 25 26 29 29 27 24 21 21 21 20 16 11 7 5 7 10 12 13 14 15 16 18 19 20 21 21 20 18 21 25 30 39 44 50
20 28 30 32 36 34 31 28 27 28 29 29 27 24 20 20 21 20 17 13 8 5 6 8 10 12 13 14 16 18 19 20 21 21 21 21 21 23 24 27 32 44 31
29 24 26 33 39 38 35 32 32 31 30 28 25 24 23 23 22 19 15 10 6 5 6 9 11 13 14 16 18 19 20 21 21 21 22 24 24 24 26 27 27 28 34
22 26 30 36 42 40 37 34 33 31 30 27 26 26 24 22 19 15 11 8 6 6 7 10 12 14 16 17 19 20 21 21 22 23 25 25 25 26 27 27 28 28 32
29 28 33 40 43 40 37 36 35 32 30 28 27 26 24 20 17 13 10 7 6 6 8 11 13 14 16 19 20 21 22 23 24 24 26 27 26 28 28 28 29 31 30
27 31 36 40 41 39 36 37 35 32 29 28 26 24 21 18 15 12 8 6 6 7 10 12 14 16 18 20 22 23 24 25 26 27 27 29 29 30 30 30 31 31 31
22 28 33 40 40 39 37 35 34 32 30 28 25 23 20 17 14 10 7 6 6 8 11 13 15 17 20 21 23 24 25 25 26 27 29 31 31 32 31 28 29 30 31
22 26 35 40 38 36 35 35 33 30 29 26 23 21 18 15 12 9 7 6 7 10 12 14 16 19 21 23 24 25 26 27 28 29 30 30 29 28 26 27 28 30 37
23 30 38 40 38 36 35 33 31 29 27 25 22 19 16 14 10 8 7 7 9 11 13 15 18 20 22 24 26 26 27 28 29 29 28 27 26 24 23 26 33 33 35
25 32 38 38 37 36 35 32 29 27 25 22 20 17 15 12 10 8 6 7 10 11 14 17 19 21 23 25 27 27 27 28 29 29 27 27 26 29 28 29 28 27 35
32 36 37 36 35 35 33 31 28 25 22 19 18 15 13 11 9 7 7 8 10 12 15 18 20 22 25 27 27 28 26 27 27 26 29 29 31 30 32 33 33 34 37
31 35 35 35 34 32 29 26 25 23 21 19 16 14 12 10 8 7 7 8 10 14 17 20 23 25 26 28 28 27 26 26 25 26 28 31 34 32 32 35 33 39 42
32 33 32 31 30 28 27 25 25 22 20 18 15 12 11 9 8 6 7 9 12 15 18 22 24 26 27 28 29 27 25 26 27 28 30 33 30 34 31 32 38 40 41
26 29 27 26 26 27 26 26 25 22 19 15 13 12 10 8 5 6 8 10 14 18 20 23 24 26 28 28 27 23 24 27 29 30 35 34 31 29 29 33 35 39 34
22 22 24 25 26 28 27 25 23 20 17 15 13 12 8 4 5 7 9 13 16 20 22 23 24 26 26 27 26 23 23 26 29 34 35 37 32 30 31 29 31 29 32
24 24 26 27 27 27 26 25 22 19 16 14 12 7 5 5 5 8 12 15 19 21 24 25 26 25 26 26 26 23 22 24 29 31 36 35 32 32 29 27 24 26 28
25 24 26 28 27 26 23 24 21 18 15 12 8 5 4 4 6 10 14 17 21 23 25 26 27 28 28 27 26 25 25 27 27 30 32 32 32 32 29 24 23 25 28
26 27 29 30 29 25 21 17 17 15 11 8 6 4 3 5 9 13 17 20 22 24 24 26 27 28 28 28 26 27 29 30 32 33 35 34 30 27 25 24 26 27 28
29 29 30 31 29 24 19 16 14 11 8 6 5 3 4 8 12 15 19 21 21 22 24 24 25 26 28 25 23 25 27 29 30 30 32 32 30 29 27 27 29 30 29
30 29 28 26 25 20 18 15 11 8 5 4 1 3 7 11 15 18 18 19 20 21 22 22 23 24 23 23 24 23 25 26 26 28 29 30 29 29 29 31 33 32 31

GFSMW_850_spd_033.txt.gz
Wind_Speed
34 27 26 28 29 28 27 27 26 26 25 26 32 35 34 31 25 24 23 21 17 13 8 9 7 7 6 7 10 12 14 15 17 17 15 9 5 13 12 12 11 20 22
38 35 31 28 27 23 24 24 24 22 22 24 32 38 36 32 28 28 27 22 16 13 9 10 9 7 6 8 10 12 14 16 17 18 14 7 7 1 9 23 17 22 14
39 40 37 33 28 26 24 23 24 22 22 24 31 35 34 30 30 30 26 22 16 13 11 11 9 6 7 9 11 13 13 14 16 17 12 7 4 23 5 22 14 21 26
39 41 41 35 31 27 25 24 24 23 22 25 31 36 38 34 34 31 26 20 15 14 13 11 8 7 8 10 11 13 15 15 15 16 16 13 13 9 13 16 28 26 35
32 36 40 36 31 28 26 26 26 24 23 26 31 36 37 34 33 30 25 21 18 16 13 10 7 7 8 10 12 14 15 16 16 16 16 16 17 16 15 23 29 39 36
29 32 34 34 33 29 28 27 26 25 25 28 32 35 35 32 33 29 24 20 18 17 13 9 6 6 8 10 12 14 15 16 17 17 18 18 17 17 17 19 27 29 32
21 24 27 28 31 33 30 28 26 26 27 29 32 33 35 32 28 26 24 21 21 17 12 8 6 7 9 11 13 14 15 16 17 18 18 19 18 21 24 26 28 28 36
26 20 20 26 30 33 32 30 28 27 28 30 31 34 35 30 27 25 23 22 18 13 9 6 6 8 10 12 13 14 16 17 18 18 19 20 20 21 23 26 29 38 25
27 23 24 25 29 35 35 33 31 29 29 29 31 35 31 26 27 25 23 20 16 11 7 6 6 9 11 12 14 15 17 17 18 19 20 21 21 23 24 25 26 25 33
24 23 20 23 26 34 37 36 32 31 31 30 30 30 27 28 27 25 22 17 13 8 6 5 7 9 11 13 15 16 17 18 19 20 21 22 23 24 25 26 27 29 29
23 23 25 27 29 36 39 36 34 33 34 32 31 30 31 29 26 22 18 14 10 7 5 6 8 10 12 14 15 16 17 19 20 21 23 24 25 27 28 28 29 30 28
17 15 23 27 31 37 38 36 36 35 33 33 32 32 31 28 24 20 16 11 8 5 5 6 8 11 13 15 16 17 19 20 22 23 24 26 27 28 28 28 28 28 27
9 13 20 25 30 36 38 38 37 34 33 33 33 32 29 25 21 17 13 9 7 4 4 7 9 11 13 15 17 19 20 22 23 24 26 27 27 28 28 27 26 27 27
9 14 21 26 33 38 39 39 37 34 34 33 31 29 26 22 18 14 11 8 5 4 6 8 10 13 15 17 19 21 22 23 24 25 26 26 26 27 26 25 25 24 29
12 17 24 30 35 38 38 38 35 34 33 31 28 26 23 19 15 12 9 6 4 4 6 10 12 14 16 19 21 23 24 25 26 26 26 25 25 24 23 24 26 28 30
14 19 25 33 38 38 38 37 36 34 31 29 26 23 20 17 14 11 7 5 4 5 8 11 13 16 18 21 23 24 24 25 26 27 27 26 26 26 23 25 24 25 29
18 22 28 35 36 36 36 36 35 32 29 26 24 21 18 15 12 8 6 3 4 7 9 12 15 18 20 22 24 24 24 25 25 26 26 27 26 28 28 29 28 31 24
19 24 31 34 34 34 35 34 31 30 28 25 22 19 15 12 9 7 3 3 6 8 11 14 17 20 22 23 24 25 24 25 24 24 25 27 30 28 28 32 32 36 36
20 25 31 32 32 32 32 31 31 29 26 23 19 16 12 10 7 4 2 5 7 10 13 17 20 22 22 24 25 25 25 25 25 24 25 28 25 28 27 29 36 33 33
22 26 28 29 30 32 30 30 30 27 23 20 17 14 11 7 4 2 4 6 9 12 16 18 21 22 23 24 25 23 22 24 25 24 25 26 27 27 27 31 32 33 33
22 25 28 30 30 30 30 29 27 24 20 17 14 12 8 5 3 3 5 8 11 15 17 19 21 22 24 24 24 23 20 22 25 26 26 28 28 27 30 28 29 27 28
24 25 29 30 30 29 29 28 25 22 18 15 12 9 6 3 2 4 7 10 14 17 20 21 21 22 24 25 25 22 18 20 24 26 29 30 29 30 29 27 25 24 25
26 27 29 31 30 29 26 26 23 19 16 12 10 7 4 1 2 6 10 13 17 19 20 22 25 26 27 26 24 21 22 23 24 27 27 29 31 32 29 24 21 23 25
27 28 31 32 31 27 24 19 20 16 12 10 8 5 2 1 5 9 12 15 17 19 21 24 26 27 27 26 25 26 27 26 28 29 31 32 29 26 23 22 22 24 25
29 29 31 31 30 26 22 18 16 13 11 8 6 4 1 4 7 11 14 16 18 20 22 24 25 26 26 25 22 24 24 25 28 28 30 30 28 27 25 24 26 27 27
30 31 31 30 29 24 21 18 15 10 7 6 4 1 3 7 10 13 14 15 17 19 21 22 22 23 24 23 23 22 23 25 24 27 28 27 26 25 26 27 30 29 29

GFSMW_850_spd_036.txt.gz
Wind_Speed
29 27 25 23 23 27 31 27 28 26 26 26 25 27 29 36 32 29 26 24 24 22 19 13 10 10 8 5 6 9 11 13 14 13 12 9 7 11 10 10 12 18 20
35 34 30 29 26 24 27 30 29 28 27 26 26 24 33 37 34 31 28 27 26 22 20 14 13 11 8 6 6 8 11 13 14 13 9 5 5 4 5 18 12 14 15
35 34 35 33 30 27 26 28 28 29 27 26 26 34 38 39 35 32 30 31 28 23 18 16 13 11 8 6 6 8 9 12 13 12 5 5 3 13 9 11 14 11 20
28 32 33 33 33 30 32 30 29 28 28 29 28 32 37 41 34 33 33 31 27 23 18 15 14 11 8 7 7 8 9 10 11 13 11 8 9 6 10 8 12 16 19
22 27 28 31 29 29 35 32 31 30 30 27 27 29 32 37 36 35 34 30 25 18 19 16 14 10 7 7 7 9 10 11 11 11 12 12 11 9 9 19 15 20 20
15 20 22 22 26 26 33 34 33 32 30 28 27 30 35 39 36 35 34 29 24 23 20 17 13 9 7 7 8 9 11 12 12 13 13 11 8 9 12 18 22 25 23
18 19 18 20 22 26 32 33 33 33 31 28 28 32 33 36 31 35 34 30 25 23 20 17 12 8 7 7 8 10 11 12 13 14 13 14 14 15 15 17 23 25 26
17 19 18 16 21 27 32 33 35 33 31 30 30 31 31 35 32 35 32 29 25 21 19 15 10 7 6 7 8 10 11 13 14 14 16 16 17 16 17 18 21 29 24
17 16 17 16 18 22 31 35 35 34 32 31 31 30 32 34 38 34 30 28 24 21 17 12 8 6 6 7 9 10 12 13 14 16 17 18 17 18 18 19 18 22 32
19 17 14 15 17 21 28 31 32 32 32 31 31 31 32 33 35 31 29 25 22 18 14 10 7 5 6 7 9 11 12 14 16 17 18 18 18 20 20 19 19 20 26
20 19 12 12 15 19 25 30 31 32 31 32 32 32 32 33 31 30 28 25 20 15 11 8 5 5 7 9 10 12 14 16 18 18 19 21 21 21 20 19 20 22 23
17 15 7 12 16 21 24 28 31 31 33 34 33 32 32 31 32 29 27 22 17 13 9 6 5 6 8 10 11 13 16 17 18 19 20 21 21 23 21 19 20 22 23
12 7 5 12 17 21 24 28 31 33 34 33 33 33 34 32 30 27 23 19 14 10 7 5 5 7 9 11 13 15 17 18 19 20 22 22 22 22 19 20 22 23 25
7 3 7 12 17 21 26 31 33 34 35 34 34 35 34 31 28 24 20 16 12 8 5 4 5 7 10 12 15 17 18 19 20 22 22 23 22 20 20 22 23 25 27
4 5 9 14 20 25 31 34 35 35 35 35 36 35 33 29 24 21 17 13 10 6 3 4 6 8 11 14 17 17 18 19 20 21 21 21 22 25 23 22 23 26 30
6 8 12 17 21 29 35 37 37 36 35 36 34 32 29 26 22 18 14 10 7 4 3 5 7 10 13 16 19 20 20 20 20 20 20 20 21 20 22 23 24 26 29
9 12 15 19 25 33 37 38 37 36 34 33 31 29 26 23 19 15 11 8 5 3 4 7 10 13 16 18 20 21 22 20 20 20 20 20 20 21 23 24 26 27 28
13 15 18 25 30 34 37 36 36 35 33 32 29 25 22 19 15 12 9 6 3 3 5 8 12 15 18 20 21 22 21 19 18 19 20 21 21 21 23 28 32 30 29
15 18 23 29 32 35 36 37 36 34 31 28 25 21 18 14 12 9 7 4 3 5 8 11 14 17 19 21 22 23 19 17 18 19 20 20 22 22 26 29 33 31 29
19 23 26 27 30 32 34 34 33 30 27 24 21 18 15 11 10 7 4 3 4 7 10 14 17 18 19 21 22 23 19 17 18 20 21 21 22 26 26 29 30 33 29
22 26 26 28 30 32 32 32 31 27 24 21 18 16 13 10 7 5 3 3 6 10 13 15 17 19 21 21 22 22 18 16 20 22 23 22 24 26 29 28 28 26 28
25 26 29 30 30 29 29 29 27 24 21 18 16 13 11 9 6 3 3 6 9 12 15 17 18 18 20 22 22 21 19 18 20 23 23 25 27 30 29 27 24 24 25
25 26 29 30 29 28 26 26 25 22 19 16 15 13 9 6 3 2 5 8 12 14 16 17 18 19 20 19 21 21 19 20 23 22 25 28 28 28 27 23 22 20 18
25 27 29 30 29 26 23 21 22 19 17 15 13 10 6 3 1 4 8 11 13 15 16 16 17 18 19 17 17 19 21 21 23 25 29 27 26 22 22 20 18 17 18
26 27 29 30 29 26 23 21 20 17 15 12 9 7 4 1 4 8 10 12 14 16 17 17 19 19 18 17 20 22 23 23 24 28 24 21 19 19 18 18 19 20 20
28 29 30 31 30 26 24 21 18 14 10 9 7 4 0 4 7 9 11 12 14 17 18 19 20 21 21 20 21 20 22 22 24 21 18 17 18 19 19 20 22 24 26

GFSMW_850_spd_039.txt.gz
Wind_Speed
28 28 27 28 32 35 34 31 28 26 22 23 23 25 26 27 29 29 29 26 25 23 21 18 15 12 11 10 7 6 7 9 11 10 9 11 11 10 9 8 8 13 17
34 34 33 32 32 34 35 33 31 27 26 24 24 24 28 31 36 34 33 31 29 26 23 20 17 14 12 10 7 6 7 10 11 9 8 3 7 8 6 9 16 11 16
35 35 36 37 36 36 36 35 34 30 28 26 23 25 32 38 42 41 35 32 29 27 24 21 18 15 13 10 7 6 7 10 11 9 3 3 3 13 10 13 11 15 15
27 31 35 35 37 38 36 36 33 32 31 30 29 34 37 42 44 41 36 35 31 30 25 22 18 17 13 10 8 7 7 8 9 11 8 6 9 3 8 6 11 15 20
18 21 24 29 34 32 36 33 32 30 30 33 31 35 31 26 34 38 36 33 31 28 24 23 19 17 13 10 7 7 8 8 8 9 10 10 10 9 9 17 11 19 19
13 15 18 21 26 31 28 33 32 31 28 32 33 31 27 31 34 38 36 33 31 29 26 22 20 17 13 9 8 8 8 9 10 10 11 10 8 8 11 17 22 24 26
11 18 19 19 21 26 32 28 30 30 31 31 29 26 29 31 31 35 36 35 33 30 26 23 19 16 12 9 7 8 9 10 11 12 11 13 13 13 15 16 23 25 30
16 10 17 22 20 25 29 31 30 30 30 29 28 25 33 29 31 34 33 35 32 28 24 22 19 15 11 8 7 8 10 11 12 13 14 15 15 16 16 18 21 27 25
13 13 13 17 22 22 27 31 32 31 29 28 27 31 30 30 33 33 33 34 31 27 24 21 17 13 9 7 7 9 11 12 13 14 16 16 16 18 19 21 21 21 26
11 13 13 16 19 20 24 29 28 29 28 27 29 29 29 31 33 30 34 34 29 25 22 19 14 11 7 6 7 9 11 12 14 16 16 17 18 19 21 21 21 22 26
14 18 17 15 14 18 21 26 27 27 28 30 30 30 30 30 32 31 32 29 23 22 19 15 11 8 6 6 8 10 12 14 15 16 17 19 20 21 22 22 24 24 24
17 16 17 10 10 15 20 25 25 27 30 29 28 29 29 30 31 32 30 25 23 20 16 13 9 6 5 7 9 11 13 15 16 17 19 20 19 22 23 22 21 24 26
18 14 13 8 10 14 19 23 25 26 29 30 28 30 31 31 32 30 27 24 22 18 14 10 6 5 6 8 10 12 14 16 17 19 20 21 21 23 23 22 23 25 26
13 12 7 8 12 16 20 23 25 26 29 30 30 34 33 33 30 29 27 23 19 15 10 7 5 6 7 9 11 14 16 17 18 19 20 22 23 23 22 24 25 24 28
10 8 6 10 14 18 21 23 24 27 30 34 34 35 34 32 30 27 24 21 16 11 7 5 5 7 9 12 13 15 17 18 19 20 21 21 22 25 23 23 25 27 30
5 6 8 12 17 20 20 24 27 33 36 36 37 36 33 29 28 24 20 16 12 8 5 4 6 8 11 13 16 18 19 20 20 21 22 22 22 20 20 22 23 25 30
8 10 12 15 17 22 26 29 34 37 36 37 37 33 29 27 24 20 16 12 8 5 3 5 7 10 13 15 18 20 21 22 20 22 22 21 20 21 22 23 24 26 30
14 14 15 17 21 25 30 34 36 36 36 34 31 28 26 23 20 15 12 9 6 4 4 6 9 12 15 17 19 21 22 21 20 19 20 21 22 22 23 27 31 34 33
15 16 17 21 24 28 33 36 37 36 33 31 27 24 21 18 16 13 10 6 4 3 6 8 11 14 15 20 19 21 22 20 18 18 20 21 23 23 23 28 34 34 34
17 22 24 23 27 33 34 36 34 30 27 25 25 23 19 15 13 10 7 3 3 5 7 10 13 16 17 18 21 22 21 19 18 19 20 20 21 22 25 29 33 37 36
24 26 25 27 28 28 28 29 27 25 25 24 22 19 16 12 10 6 3 3 3 6 10 12 13 15 17 19 21 20 19 18 19 22 23 24 22 25 27 29 32 33 29
22 22 27 26 24 24 27 27 26 25 22 19 17 14 12 8 6 5 2 2 5 9 11 13 14 14 14 16 17 21 17 17 22 24 26 28 27 29 29 29 25 24 26
21 23 26 28 25 24 21 23 23 21 19 17 14 11 10 7 4 1 2 6 9 11 12 13 13 14 17 17 15 15 18 20 22 25 26 28 29 27 26 22 22 21 20
21 23 26 27 25 21 20 19 20 19 16 15 13 11 7 4 1 2 5 8 9 10 11 13 16 19 19 16 16 23 23 22 24 26 30 30 24 20 20 20 20 20 20
23 23 23 25 26 23 22 22 20 18 15 13 10 7 4 2 2 4 7 9 11 13 16 17 19 19 20 19 21 22 23 24 26 27 29 22 20 21 21 20 20 21 23
24 24 26 28 27 24 23 21 17 13 11 9 7 5 2 1 4 6 9 11 13 15 16 16 17 19 19 20 21 21 22 22 23 23 19 19 20 21 21 22 24 25 26

GFSMW_850_spd_045.txt.gz
Wind_Speed
34 26 26 25 35 38 37 39 35 34 40 40 35 32 34 35 33 31 29 29 28 25 30 28 27 24 19 16 14 15 13 10 8 6 7 7 5 6 6 6 9 11 13
42 39 35 31 29 28 35 37 39 38 36 40 36 34 36 37 35 32 32 30 31 32 29 31 29 26 23 19 16 16 15 12 8 6 6 4 6 4 7 9 8 11 14
39 36 36 35 35 33 30 35 32 26 39 41 40 40 39 38 37 35 34 35 34 33 32 33 31 29 24 20 17 17 15 12 9 6 4 4 4 7 6 8 9 12 13
39 37 34 34 35 35 37 31 35 36 27 40 41 43 44 43 42 40 40 39 38 38 36 35 33 30 25 22 19 18 16 12 9 7 7 7 8 4 4 8 11 13 17
25 24 26 25 21 28 34 32 36 36 36 34 40 44 47 44 44 43 41 42 40 40 36 33 34 31 27 23 21 19 16 12 9 8 8 8 8 9 10 14 11 16 20
12 7 6 12 12 14 19 28 31 29 42 37 38 47 47 47 45 46 43 42 43 39 34 34 35 32 28 24 21 19 15 12 10 9 9 9 9 10 11 15 22 25 27
5 6 10 11 9 9 10 17 25 27 30 40 45 44 45 47 45 45 45 43 44 40 35 35 36 31 26 23 21 19 15 12 10 9 9 9 10 11 13 16 20 25 30
14 9 10 9 9 13 14 16 20 27 27 33 44 42 45 46 45 42 44 44 42 38 33 33 33 29 27 22 21 17 14 11 10 9 9 10 11 13 14 16 18 25 28
12 10 9 10 9 10 14 21 22 25 25 30 38 44 44 41 39 38 40 40 37 35 30 32 32 29 24 22 19 16 13 10 9 9 10 11 12 13 15 17 18 20 21
7 9 8 7 9 14 18 20 22 24 25 30 36 41 40 37 35 36 34 32 34 34 33 33 32 26 24 21 19 15 11 9 9 10 11 13 14 15 16 18 19 20 23
21 9 8 10 12 16 17 19 18 23 26 31 36 36 33 31 32 31 28 30 35 37 35 32 27 25 23 19 13 10 8 8 9 11 13 14 16 17 18 20 22 23 24
21 13 7 9 12 19 18 15 17 25 29 30 32 31 30 30 32 28 28 33 36 34 33 28 24 23 20 14 9 10 8 9 10 12 14 16 18 19 20 22 23 24 25
27 8 9 10 18 19 14 11 21 25 27 28 28 29 29 31 28 27 30 34 35 33 29 26 24 19 16 11 10 9 8 9 10 13 16 17 19 21 22 23 24 26 27
24 23 17 17 19 15 13 16 21 25 27 30 30 29 30 28 28 29 32 32 31 30 26 23 19 15 9 10 8 7 7 9 12 15 17 18 20 21 22 23 24 24 25
23 22 22 13 8 10 13 16 23 28 31 30 27 28 27 26 27 30 32 32 29 26 22 18 13 9 10 7 6 8 9 12 13 15 17 18 19 19 20 19 19 22 25
21 8 6 5 8 13 17 22 25 26 26 26 24 24 25 29 32 34 32 28 24 22 18 13 12 11 6 6 7 8 11 13 15 16 17 18 19 20 20 20 19 19 22
9 7 6 9 14 18 20 20 20 20 20 21 22 26 29 33 35 31 27 24 22 18 15 11 6 5 6 7 9 11 13 14 16 18 20 21 20 18 21 22 20 20 22
4 11 11 14 18 20 20 18 17 18 20 24 28 31 32 30 28 27 25 21 16 12 7 7 6 7 7 9 11 13 13 15 18 19 20 20 21 21 21 19 22 25 28
13 13 14 15 16 16 18 17 18 21 25 28 27 27 28 27 25 24 21 16 11 9 8 4 3 7 8 11 13 14 15 17 17 17 16 18 19 17 18 21 25 29 32
11 11 11 12 13 17 20 21 24 22 23 23 26 24 24 23 21 17 16 14 10 7 3 4 5 7 8 10 13 18 20 19 18 19 21 22 20 19 19 22 27 30 33
10 12 13 15 16 14 13 19 20 22 24 26 27 23 18 16 14 14 14 10 6 6 4 4 5 7 10 12 13 15 16 19 20 23 25 24 22 19 21 22 25 26 24
14 13 17 18 18 20 22 30 31 30 27 23 21 20 17 19 15 8 7 8 4 2 3 5 7 9 10 12 15 14 13 15 22 23 23 20 21 21 21 19 18 19 21
16 19 20 21 23 26 25 27 26 23 21 20 20 18 15 11 10 8 6 3 2 3 5 6 9 11 13 14 15 17 18 20 19 20 19 20 22 23 19 19 18 18 19
21 22 22 23 23 23 22 22 24 23 21 20 17 13 12 12 9 5 3 1 1 3 6 9 11 12 13 15 16 18 19 19 20 22 25 25 21 17 17 15 15 16 19
20 20 22 24 24 24 25 23 21 20 18 16 16 14 11 8 5 3 1 1 4 8 10 12 12 14 15 15 15 17 20 19 20 20 20 18 16 16 16 17 17 19 20
21 21 22 23 24 24 23 22 19 17 16 15 13 11 8 6 4 3 4 7 10 11 13 14 14 15 16 13 16 18 17 17 16 16 17 15 15 17 19 20 21 22 21

GFSMW_850_spd_048.txt.gz
Wind_Speed
37 30 25 26 31 37 40 36 35 35 38 43 40 37 36 35 34 32 30 27 27 26 28 26 27 26 26 23 21 19 18 17 15 12 11 10 10 9 7 6 7 9 9
42 39 34 31 27 24 26 36 40 35 35 43 45 44 39 39 37 35 33 30 32 30 26 30 31 29 28 26 24 19 19 19 16 13 11 7 9 11 9 9 10 10 11
44 43 40 38 37 36 32 27 27 33 37 37 46 47 41 39 39 39 36 37 37 35 30 29 31 32 31 29 25 21 20 20 17 14 10 6 6 7 10 11 12 12 13
30 30 30 32 36 34 33 35 33 28 28 26 41 48 47 44 41 40 41 40 39 39 33 30 33 34 33 30 26 23 22 21 19 16 14 13 11 7 5 9 12 13 14
21 21 21 21 23 26 28 30 35 38 31 28 31 38 48 49 46 44 43 40 41 41 37 34 34 35 36 31 28 26 23 22 20 17 14 13 12 12 12 9 11 13 16
12 12 13 17 20 23 24 21 23 29 28 28 34 36 38 47 47 43 44 42 42 42 39 37 38 37 34 33 31 26 23 22 19 17 14 13 11 11 12 13 16 19 21
2 5 8 9 12 15 16 17 17 19 25 28 31 33 40 40 46 46 42 43 43 43 42 39 39 37 34 33 29 25 24 22 19 17 14 13 12 13 13 15 17 21 25
23 16 10 11 14 15 16 17 19 21 24 26 29 34 35 40 41 45 46 40 42 43 39 40 38 34 32 31 29 26 23 20 18 15 12 12 12 12 13 15 17 21 24
31 28 14 12 12 12 14 16 19 22 27 31 32 31 34 37 39 42 46 41 38 38 38 38 33 32 32 31 28 23 22 20 16 15 13 13 13 13 14 15 17 18 17
36 34 29 17 10 9 12 15 19 21 25 28 30 29 31 34 38 42 41 40 38 36 36 33 32 32 29 28 26 22 19 17 14 13 12 12 12 14 15 16 17 19 21
32 30 21 20 14 11 13 16 19 23 24 25 26 27 29 33 38 37 36 35 33 32 32 33 32 30 30 25 22 18 17 13 12 12 11 12 14 14 17 18 19 20 23
27 25 28 22 14 14 15 16 19 23 25 23 24 25 27 28 30 32 30 29 28 30 30 32 31 30 26 23 20 16 11 12 9 11 12 14 17 18 19 20 21 22 23
24 23 19 16 18 23 26 23 20 22 22 21 25 25 25 25 27 25 24 24 26 28 31 32 30 27 26 22 17 14 11 7 9 11 13 17 19 20 21 22 22 23 25
27 24 24 17 16 19 20 20 17 18 16 22 24 24 22 24 21 20 22 24 27 30 31 26 24 21 20 16 13 8 7 9 12 15 18 20 21 22 22 22 22 22 24
21 21 23 5 9 11 12 9 9 12 18 21 24 22 24 24 22 24 26 28 28 27 26 24 21 20 16 13 10 8 8 11 13 18 19 19 20 21 20 19 20 21 24
17 13 5 2 3 5 5 6 5 9 15 18 20 22 24 22 23 24 25 25 25 24 22 22 19 16 11 6 7 5 7 14 17 16 17 18 20 20 20 18 18 18 21
7 6 3 3 4 4 4 4 7 11 15 17 20 22 21 22 23 24 24 24 24 24 20 17 14 11 10 6 4 9 15 13 15 16 18 19 20 20 21 22 21 18 20
4 3 3 4 5 6 7 8 11 11 13 15 17 18 18 19 22 24 23 23 22 20 16 10 6 2 1 4 9 11 11 12 15 17 17 18 19 20 20 17 19 21 24
5 5 5 7 9 9 10 11 12 11 11 12 13 15 15 20 20 22 24 21 16 13 12 8 6 0 4 7 9 11 12 14 16 16 16 19 22 20 16 18 22 25 27
5 5 6 7 8 11 10 7 11 10 12 14 15 19 21 23 23 21 19 16 12 9 6 2 2 4 6 8 9 13 17 18 19 19 21 23 21 18 16 19 24 28 29
4 3 5 8 10 11 11 15 16 15 17 21 23 23 22 21 17 14 12 11 8 6 5 3 3 6 7 8 10 11 15 19 22 23 24 22 18 16 18 18 22 21 19
5 5 6 10 12 14 16 16 18 20 21 24 23 20 17 16 15 12 11 10 7 5 3 3 5 8 10 12 14 16 16 18 21 22 21 19 17 19 19 17 17 17 19
11 11 13 13 13 12 15 23 24 22 20 18 19 18 16 15 13 10 9 6 4 1 3 5 7 10 13 15 15 16 17 17 16 18 17 19 22 20 17 16 15 16 18
16 18 18 20 21 20 20 19 19 18 17 17 16 14 13 12 10 7 4 1 2 4 6 9 12 12 12 13 14 15 16 17 18 20 22 21 18 16 14 13 13 15 17
16 15 16 18 19 18 17 17 17 16 15 14 13 12 9 8 5 2 1 2 5 7 9 9 10 11 13 12 12 14 17 16 17 18 18 15 12 12 13 13 15 16 18
17 16 16 16 18 16 16 15 14 11 10 11 10 8 5 3 1 1 3 5 7 8 9 10 10 12 11 11 15 17 14 17 14 15 14 12 13 15 17 18 19 17 19

GFSMW_850_spd_051.txt.gz
Wind_Speed
37 33 32 29 25 27 38 44 40 33 28 31 38 41 40 37 37 35 31 29 29 28 25 24 24 26 26 24 21 22 22 21 20 18 16 14 13 13 12 10 9 9 9
42 39 37 34 32 27 23 31 43 38 31 30 32 41 44 42 37 38 36 34 33 31 29 27 28 29 28 27 27 25 24 22 21 20 16 10 14 16 15 13 12 12 12
39 39 40 39 38 37 32 28 24 25 29 35 32 40 45 46 44 42 39 39 35 34 30 29 29 30 31 32 30 28 26 24 23 22 16 7 9 9 13 15 15 15 15
23 21 21 20 20 28 33 29 28 29 28 23 31 39 41 46 49 44 41 39 39 36 34 32 31 33 31 33 34 31 28 25 24 22 24 22 16 9 7 12 14 15 16
13 15 15 14 12 12 17 25 27 29 30 30 29 28 35 42 46 46 44 43 41 39 38 37 33 34 33 34 37 33 30 28 26 25 23 21 19 17 16 11 13 15 16
21 18 13 12 13 13 12 14 18 21 24 29 29 31 30 34 38 43 42 42 42 39 40 40 38 35 34 37 37 33 31 29 27 25 24 21 19 18 17 15 15 15 16
27 28 23 13 11 10 14 17 19 19 19 21 30 28 26 29 34 35 38 42 44 44 43 42 42 39 36 38 36 33 31 30 27 25 23 20 18 17 17 15 15 16 20
30 28 24 22 16 13 12 16 19 20 20 20 22 25 27 29 29 34 35 35 41 45 45 44 41 40 38 35 33 32 31 30 25 23 20 17 15 17 17 16 15 17 20
35 30 27 21 19 18 16 16 19 22 24 26 27 29 33 31 28 29 34 37 39 42 43 43 37 36 33 31 30 32 31 29 25 21 20 16 15 16 16 15 15 16 17
32 29 26 23 16 19 19 16 19 22 25 26 27 30 31 31 28 27 32 37 40 41 43 39 35 33 30 29 31 31 28 25 23 20 17 15 14 16 17 16 17 19 20
31 28 23 24 19 18 16 14 14 19 22 24 27 29 27 27 26 29 33 36 39 37 36 34 29 28 29 31 32 28 25 22 19 16 11 11 13 14 16 17 19 20 21
29 21 30 30 21 17 16 20 24 21 21 22 24 25 24 22 23 27 29 32 32 29 27 27 26 29 31 30 28 25 22 18 14 12 12 12 13 14 17 20 20 21 22
22 27 26 23 20 19 24 24 21 18 23 21 19 19 20 19 19 20 22 25 24 23 23 25 29 31 29 28 25 21 18 16 15 14 10 13 18 19 19 21 23 23 23
24 23 23 20 17 13 17 19 18 16 19 16 14 13 15 15 15 17 17 18 19 21 23 25 26 26 24 22 19 17 16 14 10 11 16 19 16 18 20 21 23 23 25
26 17 16 14 10 10 11 11 11 12 11 10 7 10 13 15 17 19 20 19 21 22 22 26 25 23 20 18 17 15 11 8 11 11 14 14 17 20 21 21 22 23 23
23 11 10 8 7 8 7 7 8 7 5 2 7 11 13 17 20 20 22 19 19 21 24 23 21 18 18 16 13 10 9 9 10 11 14 16 18 20 22 21 20 21 21
15 12 9 9 8 8 6 6 4 4 2 7 13 13 16 19 19 19 17 19 22 22 20 18 16 15 11 9 6 3 6 8 11 13 16 19 20 21 20 20 20 18 20
10 9 7 6 5 4 2 2 4 6 6 5 6 8 11 14 15 17 19 21 19 19 18 17 13 10 8 5 3 3 6 9 13 15 17 18 18 19 20 19 19 20 23
6 5 4 3 2 3 5 6 9 6 6 7 9 9 10 15 18 16 18 19 20 17 12 9 6 4 3 1 4 6 7 10 14 15 16 18 21 21 18 17 20 24 27
2 2 1 1 2 5 4 5 9 10 12 14 19 21 22 20 20 22 21 18 14 13 10 9 7 5 2 1 4 8 12 14 17 18 20 21 21 19 16 18 23 27 26
2 1 1 3 3 3 2 5 10 13 14 15 17 18 20 22 20 19 15 13 12 10 7 4 2 2 3 4 6 10 15 17 20 21 23 22 20 15 16 17 20 20 18
4 4 4 6 6 5 6 8 15 18 17 20 20 19 17 17 14 13 14 13 10 7 4 2 1 4 7 10 12 14 15 16 19 21 22 20 17 19 20 17 16 15 17
8 9 9 9 12 8 8 19 20 19 18 17 18 17 17 16 15 13 11 8 5 1 1 4 6 8 10 11 12 13 15 16 16 19 18 20 20 19 16 14 14 16 18
11 15 17 18 18 18 19 18 17 16 15 16 16 15 13 12 11 8 5 3 1 1 3 5 7 10 12 13 14 15 17 17 19 21 21 20 18 15 15 14 13 15 17
13 14 16 18 18 16 15 15 15 14 14 13 13 11 9 8 6 4 3 2 3 6 9 11 11 12 13 13 14 15 17 16 18 17 17 14 12 12 12 13 14 15 15
13 14 15 16 17 15 15 14 12 10 8 9 9 7 5 4 3 3 5 7 9 11 12 13 13 14 15 15 16 18 17 18 15 14 13 12 12 14 16 17 16 15 17

GFSMW_850_spd_054.txt.gz
Wind_Speed
34 32 32 30 28 26 24 32 35 36 32 32 31 30 33 38 37 35 32 31 29 27 27 26 27 28 28 27 25 25 24 23 21 19 18 18 17 16 15 14 13 13 12
37 38 38 35 31 30 28 25 29 32 35 37 35 33 32 34 36 38 34 32 33 31 28 30 29 30 30 30 30 28 27 25 23 22 20 14 19 20 20 18 17 16 15
25 25 22 21 21 27 31 29 26 23 20 30 34 35 34 36 36 40 40 37 34 33 33 32 33 31 32 32 32 32 30 27 24 24 20 9 12 12 19 20 19 18 17
23 16 11 9 9 10 15 26 33 30 27 21 24 29 37 40 38 36 39 40 39 35 35 34 34 35 33 33 34 35 33 31 28 26 28 28 17 9 7 16 20 20 20
28 25 21 14 11 7 7 10 19 28 24 24 25 25 26 29 36 38 38 43 43 41 39 36 37 37 36 34 34 34 34 34 31 29 31 31 29 24 20 12 17 18 19
30 27 22 15 13 11 9 8 9 13 17 20 23 27 31 31 29 29 32 35 41 44 43 39 38 38 36 36 35 35 37 35 33 31 30 29 27 26 23 20 19 15 16
32 30 27 23 20 15 12 9 7 9 13 16 19 22 26 28 30 31 31 33 34 42 43 44 41 35 39 39 36 37 39 37 34 32 31 29 26 24 21 19 18 16 17
30 26 24 24 22 17 13 13 13 12 12 14 16 17 17 22 26 29 32 35 34 32 39 43 43 42 42 41 38 38 37 34 32 32 31 31 27 22 20 16 17 15 17
30 27 25 22 22 21 18 16 17 18 17 18 21 22 22 24 25 26 29 33 33 35 34 39 44 46 43 35 39 33 33 32 32 31 28 25 23 23 19 15 15 16 12
27 28 23 21 21 25 20 19 16 16 18 22 25 27 27 28 28 26 27 29 31 33 35 37 39 41 40 38 33 29 30 32 32 29 27 24 21 18 18 12 12 15 15
27 26 24 24 23 22 18 15 14 15 15 15 19 23 26 27 25 23 25 27 29 31 32 32 31 32 32 29 26 28 31 30 28 25 22 20 19 17 14 14 12 20 21
23 25 24 22 25 18 18 15 17 20 21 20 17 19 23 24 21 19 20 23 25 26 25 24 24 26 26 24 27 29 28 25 23 22 21 19 17 16 14 17 19 18 18
24 23 18 18 20 17 15 15 18 22 23 21 19 18 19 18 14 14 14 16 17 18 19 20 23 24 25 26 26 26 25 23 19 18 17 14 12 14 17 17 16 17 20
20 19 17 15 15 14 14 15 16 15 16 16 14 13 15 9 7 6 8 11 14 18 18 20 21 23 25 25 24 21 19 16 15 13 12 11 12 12 13 15 16 18 21
20 17 17 15 14 15 15 16 17 17 16 12 9 6 5 6 7 10 11 14 16 17 18 20 21 22 21 19 17 14 11 12 11 11 12 12 10 12 15 17 17 19 21
13 14 12 11 13 15 15 16 14 13 13 10 4 4 5 6 8 9 12 14 14 14 17 19 19 17 14 10 10 9 8 7 8 10 10 9 12 14 15 17 17 18 20
11 11 11 12 14 14 14 13 11 9 7 4 3 2 2 5 7 8 8 11 13 16 17 16 14 12 12 11 10 7 5 3 4 6 10 12 13 15 16 17 17 17 18
8 7 8 9 10 10 9 7 6 5 5 6 7 6 6 8 10 10 14 19 20 18 17 15 14 13 10 8 6 1 3 4 7 9 12 14 15 15 17 19 17 17 19
5 5 6 6 6 5 7 7 7 6 5 7 9 11 9 14 13 16 17 17 16 18 17 15 12 8 6 3 2 1 4 7 9 11 13 16 18 18 17 15 16 20 23
4 3 3 4 4 7 8 7 6 7 10 11 12 13 13 13 15 17 18 19 17 15 13 11 8 7 6 3 3 5 7 10 13 15 16 17 16 15 13 15 19 23 21
3 2 1 1 4 5 6 5 6 9 11 11 13 12 13 16 17 16 15 14 12 12 12 9 7 4 1 2 6 9 11 14 15 17 18 18 17 11 12 14 17 16 16
3 4 3 4 5 6 5 8 14 15 15 15 16 17 16 16 15 13 15 14 12 9 8 6 4 3 3 6 9 10 11 12 16 17 18 17 15 17 15 13 12 12 14
8 7 7 10 10 7 10 15 18 17 16 16 16 16 16 16 14 12 11 9 7 6 5 5 5 6 7 8 9 10 10 12 12 15 15 16 15 13 11 10 11 13 14
12 13 13 14 16 16 16 16 16 13 14 15 15 14 12 11 10 8 8 7 6 6 6 6 6 7 8 9 10 12 13 13 14 15 15 14 11 10 11 11 12 13 14
14 14 15 17 17 14 14 14 13 13 13 12 12 11 9 8 7 6 6 5 5 6 7 9 10 10 10 9 10 12 13 13 13 14 12 9 7 8 9 10 12 13 14
13 15 15 14 15 14 14 14 12 10 8 8 8 7 5 5 4 4 6 9 12 12 11 11 11 12 11 12 13 15 15 15 13 11 10 8 9 11 13 15 13 13 15

GFSMW_850_spd_057.txt.gz
Wind_Speed
25 25 25 26 26 26 26 27 27 31 33 33 33 33 33 32 36 34 33 29 27 28 27 25 26 29 32 30 27 27 26 25 23 21 20 19 19 19 19 18 17 17 16
18 20 22 23 27 28 28 25 27 25 29 37 38 36 36 36 33 32 35 33 31 31 29 29 28 29 33 33 32 30 30 28 27 26 21 16 19 23 23 23 22 20 19
16 12 7 6 11 17 22 27 28 28 27 26 30 38 37 37 36 36 33 33 35 36 33 32 31 31 34 36 34 33 34 33 31 30 22 11 13 12 21 26 25 23 22
21 19 17 12 8 5 8 15 24 31 29 26 26 29 38 41 40 39 35 34 36 36 36 34 34 34 34 34 35 36 36 35 35 33 32 30 19 12 9 17 22 24 25
21 20 18 17 15 11 7 6 10 17 28 31 28 27 27 28 28 32 35 36 35 36 40 39 37 36 36 36 37 38 40 39 39 38 36 33 31 28 26 22 20 24 25
22 19 17 16 14 12 10 7 5 7 11 20 21 23 26 27 29 29 30 29 32 36 39 41 42 42 37 37 39 40 39 39 41 39 38 35 33 32 30 26 27 22 23
21 21 20 18 16 14 11 9 7 5 6 11 16 19 22 25 28 30 32 33 32 32 33 36 40 43 41 40 39 38 39 38 41 40 37 34 34 33 30 28 28 21 21
19 20 18 15 16 15 14 13 13 11 10 10 11 12 13 15 18 19 24 28 30 32 32 33 34 38 40 41 37 32 36 41 40 39 35 34 32 32 30 29 28 23 21
19 22 18 16 17 16 16 16 15 15 15 15 16 15 16 18 19 20 21 22 25 28 31 33 34 34 39 40 40 38 44 39 35 34 34 33 32 32 31 29 26 26 23
23 22 21 19 18 17 16 16 14 12 14 15 17 20 21 21 23 24 24 23 25 27 29 30 30 33 33 36 37 36 35 30 31 33 32 31 29 28 25 25 24 22 19
20 22 21 16 17 17 13 12 12 12 13 13 14 15 16 19 21 23 23 23 24 26 27 27 26 25 26 27 31 31 29 28 29 29 29 28 26 24 23 20 17 16 16
18 18 14 15 15 14 11 10 11 12 16 18 19 19 19 17 16 19 21 21 21 22 22 21 19 19 20 22 25 27 26 26 28 27 24 23 21 20 17 14 14 14 14
17 15 15 13 14 14 13 13 12 12 14 15 16 19 21 18 18 17 17 14 13 13 15 16 16 18 19 22 24 24 25 25 22 21 18 16 15 14 14 15 16 15 14
12 12 12 12 13 14 15 15 15 14 15 14 14 15 15 15 16 15 13 10 13 14 14 15 18 20 21 21 20 20 20 18 16 13 14 15 15 15 15 15 13 13 15
10 11 11 11 12 13 13 14 14 17 17 15 13 11 11 7 7 8 8 8 9 11 13 17 17 18 19 19 19 16 14 12 12 12 11 11 10 11 12 11 11 13 16
7 9 8 9 11 13 13 13 11 13 14 13 10 9 8 5 2 2 5 7 8 9 12 16 19 20 19 15 12 11 11 10 8 8 8 7 7 7 7 9 11 13 16
6 8 8 8 8 10 11 11 12 11 11 9 8 7 6 6 7 8 9 11 13 17 19 20 17 16 15 12 12 12 9 7 6 3 3 5 6 8 11 12 13 14 16
5 5 5 6 8 9 8 9 10 10 8 7 6 6 5 7 9 10 14 17 18 17 16 16 15 15 15 10 9 7 3 2 1 1 4 6 8 11 13 14 13 15 16
3 2 2 4 5 6 8 10 8 10 9 7 8 10 9 11 13 16 17 16 15 17 17 16 14 11 12 8 5 6 4 3 4 6 8 10 12 12 11 12 16 18 18
2 1 0 1 4 4 6 7 9 11 13 14 14 14 14 15 15 15 16 16 15 15 13 12 10 10 8 7 7 6 4 6 7 9 11 11 12 11 8 10 16 18 14
1 1 2 3 4 5 6 6 10 14 16 16 16 16 16 17 16 15 13 12 11 12 13 11 10 9 7 5 5 5 7 8 9 11 12 12 11 8 10 10 12 11 11
3 4 5 6 7 7 7 11 15 17 17 17 17 16 15 15 13 12 13 13 12 11 10 8 7 5 3 4 6 7 10 11 10 10 11 11 11 10 8 7 6 7 9
6 8 9 10 8 13 11 15 17 16 15 14 15 13 13 14 13 11 10 9 8 7 6 5 5 5 5 6 7 6 7 7 9 10 10 9 8 6 4 4 6 8 9
11 12 13 14 16 16 14 15 15 14 13 14 14 13 11 10 10 8 8 7 6 6 5 5 5 5 5 6 8 10 10 9 10 8 8 6 4 4 5 6 8 9 10
15 14 15 17 16 14 13 13 13 11 11 11 11 10 8 8 7 6 6 6 5 5 5 6 7 7 7 7 7 10 9 11 9 10 7 5 3 4 5 6 8 9 10
15 17 17 16 16 15 14 13 12 11 8 8 8 7 6 5 5 5 5 6 8 10 10 10 9 9 8 8 10 11 10 10 8 6 4 4 5 7 8 9 9 8 11

GFSMW_850_spd_060.txt.gz
Wind_Speed
15 19 22 22 24 24 25 26 26 28 28 25 32 33 37 35 36 35 35 34 32 30 30 28 29 27 29 27 28 28 28 28 27 24 24 23 23 21 21 21 21 21 20
5 10 16 20 23 25 27 28 29 27 29 29 29 36 34 39 39 37 35 36 37 34 35 33 32 30 30 32 29 32 34 30 32 28 15 11 18 26 25 25 24 24 23
5 7 6 1 6 13 20 27 30 30 30 32 27 25 27 30 33 38 38 36 35 37 41 38 36 36 33 35 37 36 37 37 34 34 19 11 13 13 21 27 27 26 26
8 8 8 9 6 4 4 9 17 25 31 32 32 27 27 30 37 39 40 40 39 39 39 41 39 41 38 37 38 38 39 40 39 36 37 31 13 9 6 19 25 27 28
8 9 10 10 9 8 7 3 5 9 16 27 31 27 25 24 25 26 32 37 40 41 39 40 40 44 43 40 39 39 41 42 42 41 39 40 39 33 23 11 18 24 28
8 9 8 8 8 8 7 6 5 5 8 13 21 29 28 24 21 25 27 30 31 32 34 36 39 40 46 44 41 42 42 42 43 44 42 43 41 41 36 30 26 26 24
7 10 10 9 9 9 9 9 8 7 7 7 10 16 23 25 23 22 22 24 27 34 33 33 34 35 38 43 45 44 43 43 43 43 44 43 43 40 36 33 34 29 29
8 9 10 11 12 12 11 12 13 13 12 11 10 11 12 16 19 21 23 23 23 27 28 34 34 33 34 37 41 43 45 43 43 45 43 41 42 41 39 38 33 28 24
10 10 11 12 12 12 12 12 12 14 14 14 14 14 14 15 16 18 19 21 22 23 24 26 29 30 31 31 34 39 41 41 39 36 35 38 41 40 37 32 28 28 22
7 9 11 10 11 12 12 11 10 10 11 12 12 13 15 17 19 20 21 22 24 26 27 29 30 29 29 29 29 30 35 37 36 37 39 40 34 32 31 29 27 26 23
7 9 8 9 9 9 6 5 5 6 8 11 13 14 14 15 15 15 17 20 24 26 28 29 28 26 24 23 24 24 28 32 34 33 31 31 31 25 24 21 19 18 18
6 6 7 7 7 8 7 8 8 8 8 9 11 14 16 17 16 17 18 19 18 22 25 24 24 21 19 19 20 22 25 27 28 27 25 24 24 26 19 18 15 19 20
5 5 6 6 7 7 8 8 9 9 10 11 12 12 12 14 15 15 15 16 17 18 18 17 16 16 17 18 19 22 24 24 22 19 18 17 16 16 14 14 17 17 17
4 5 5 5 6 7 8 8 8 9 10 12 11 11 12 12 13 14 13 13 13 12 14 14 14 16 17 18 18 18 18 18 17 15 13 12 12 13 14 14 14 13 13
2 4 4 4 4 4 7 9 9 11 13 13 12 10 10 10 9 9 7 7 7 6 7 9 10 13 13 14 15 17 15 13 12 11 9 11 11 12 12 12 11 11 12
1 2 2 2 4 5 8 9 10 11 11 12 13 12 10 9 7 5 5 5 5 3 2 6 8 12 16 16 13 12 12 11 9 8 8 10 10 8 6 8 10 11 11
1 1 1 2 3 5 7 8 9 9 9 10 10 10 9 8 7 7 6 6 7 9 14 16 16 15 15 13 12 10 8 8 7 7 5 3 4 6 8 8 9 12 15
3 2 1 1 3 5 6 7 7 7 7 7 8 8 8 8 9 10 12 14 14 13 12 13 13 13 12 10 9 9 6 4 2 2 1 3 5 7 8 9 11 13 13
3 2 2 0 2 3 5 6 6 7 8 9 11 12 12 15 15 16 15 14 13 12 12 11 10 9 10 7 6 5 4 3 1 1 3 5 7 8 7 8 12 11 11
3 3 2 1 1 3 4 4 7 10 11 12 14 14 14 14 14 14 14 13 12 12 9 8 8 8 8 7 5 4 3 4 5 6 7 8 8 8 7 7 9 11 9
2 3 4 3 2 3 5 8 12 14 14 15 16 17 16 16 15 14 13 12 11 11 10 9 8 8 6 6 7 6 6 6 7 7 8 8 8 9 10 9 8 9 7
3 6 6 6 5 6 8 11 15 17 16 16 16 15 15 14 13 12 12 11 9 8 7 6 4 3 4 5 6 8 9 10 8 9 10 10 11 10 7 5 6 6 7
6 9 9 9 9 12 12 16 18 16 14 13 13 13 12 12 12 10 9 8 7 6 4 4 4 5 5 7 8 10 11 10 9 9 9 9 8 5 4 4 5 7 8
9 11 12 13 15 15 14 13 15 14 12 12 12 11 9 9 8 7 6 5 4 3 3 4 5 6 7 7 8 9 10 9 8 7 7 5 3 2 3 5 7 8 9
13 15 15 17 17 15 13 14 13 13 11 10 9 8 7 7 6 4 4 3 2 3 4 5 5 6 6 7 8 9 8 7 8 6 5 3 3 4 6 8 9 10 11
15 18 18 17 16 15 15 14 13 12 10 9 8 7 6 5 3 3 3 4 5 6 6 7 7 8 8 10 10 10 10 9 7 5 4 4 4 6 7 9 10 11 12

GFSMW_850_spd_063.txt.gz
Wind_Speed
14 12 13 15 16 17 18 18 19 21 22 22 24 30 32 28 30 31 29 25 25 24 27 28 26 25 27 27 30 28 25 26 21 19 22 21 23 23 23 21 21 21 21
12 10 10 11 16 16 17 18 20 21 22 27 26 29 33 35 35 36 37 37 36 33 33 33 33 30 31 29 28 29 28 28 27 28 18 10 20 27 28 26 24 24 24
5 2 1 2 1 6 15 20 23 24 23 23 24 26 24 24 23 31 36 39 39 38 34 36 35 33 35 33 33 35 33 34 34 34 21 10 13 14 20 28 28 26 27
4 3 2 3 4 1 3 7 13 19 25 27 28 26 24 25 27 25 24 26 31 34 35 36 35 36 33 35 37 37 39 38 37 37 38 29 14 13 11 20 26 27 27
5 4 4 5 4 3 4 3 3 6 11 17 24 27 28 26 25 25 23 24 26 29 36 36 34 39 36 37 40 40 40 43 39 42 40 40 38 27 17 14 19 24 28
4 4 3 4 5 5 5 4 4 6 7 9 12 17 24 20 22 21 23 23 23 27 30 32 32 33 36 39 40 43 44 45 43 39 42 42 44 47 41 32 22 21 22
2 3 4 4 6 7 7 7 6 6 8 8 9 10 14 20 24 22 22 22 24 26 30 31 32 32 31 33 35 39 43 45 44 43 45 45 44 40 38 37 34 27 27
2 3 5 6 7 8 8 8 8 7 8 9 10 9 10 12 14 18 22 21 21 21 21 26 28 29 31 31 31 35 39 41 42 42 44 47 48 45 42 39 34 22 22
2 5 6 7 7 8 9 9 9 8 9 10 8 8 9 12 12 14 14 15 16 18 20 20 23 26 25 25 28 31 35 37 38 37 38 43 45 43 39 39 34 27 20
3 6 6 6 6 7 8 7 6 6 8 9 9 9 10 11 13 14 16 18 19 20 22 25 27 28 29 26 25 27 29 30 31 34 36 37 40 40 36 33 30 26 19
4 5 4 5 5 6 5 4 5 6 6 7 7 9 10 12 12 13 14 15 17 19 22 24 26 28 28 26 23 23 24 27 29 30 32 33 33 32 27 28 22 21 17
3 2 2 2 3 4 5 5 5 6 6 7 7 8 10 11 12 13 14 15 16 17 18 19 19 21 21 20 19 22 23 23 25 27 26 26 26 24 21 17 14 15 14
2 1 2 2 3 4 5 6 6 7 7 8 9 10 11 11 12 13 13 15 16 17 18 17 17 16 16 16 17 19 21 20 21 20 18 16 14 12 11 10 12 13 14
2 1 1 1 2 3 4 5 5 5 6 7 8 8 7 8 11 11 9 9 10 12 13 14 14 14 13 13 15 15 15 15 13 11 9 8 7 7 9 11 13 12 11
2 1 1 0 1 2 4 5 5 5 6 7 9 10 10 10 8 7 8 10 12 11 9 10 10 8 6 4 4 5 7 9 10 10 9 9 8 9 9 8 7 8 10
3 3 2 1 1 2 2 2 4 4 5 6 7 8 9 10 9 9 8 9 10 7 5 4 5 7 8 10 9 8 8 7 6 7 6 6 5 4 3 6 8 9 8
4 4 3 2 1 0 1 1 2 3 4 5 6 7 8 8 8 9 11 11 12 11 11 13 12 11 11 7 6 6 5 7 4 4 4 4 1 1 4 5 6 8 9
4 4 4 3 1 1 0 1 3 3 3 5 5 6 7 7 9 11 12 13 12 13 12 12 11 9 11 7 5 4 2 2 2 4 3 2 3 5 6 7 9 10 11
5 6 6 6 4 2 1 1 1 2 5 7 9 11 12 13 13 13 14 13 12 12 12 11 10 9 8 5 5 7 8 6 4 4 5 6 7 8 8 8 11 8 8
5 5 5 6 5 3 3 3 3 6 8 10 11 13 13 13 15 15 14 13 11 10 9 8 9 9 9 7 5 4 5 5 6 7 8 8 9 9 9 8 7 11 8
6 7 7 6 4 5 5 7 9 11 12 13 15 15 15 13 13 12 11 10 10 9 8 7 7 6 7 8 9 8 8 8 9 9 10 11 11 12 12 11 9 9 8
6 8 7 8 6 6 9 10 12 14 15 14 14 13 12 11 10 9 9 8 7 6 6 7 7 8 9 9 11 11 10 10 9 9 10 10 12 11 8 5 5 5 6
8 9 10 9 8 9 11 14 16 15 14 13 12 12 11 9 8 7 6 5 4 4 4 5 7 8 9 11 12 13 12 12 10 11 12 12 10 6 4 4 5 6 6
9 10 12 11 13 14 15 14 14 13 12 11 11 10 8 7 6 4 3 2 3 4 5 7 8 9 9 9 9 10 10 12 10 11 10 8 6 4 4 5 6 7 8
11 12 12 14 15 16 15 14 14 13 12 10 9 8 7 5 3 1 1 2 3 4 5 6 7 7 8 10 11 11 11 11 12 11 7 5 4 5 6 8 8 9 10
14 15 15 16 17 15 15 15 14 13 11 10 9 7 6 5 3 2 1 2 4 5 6 7 8 9 10 11 12 12 13 13 11 8 6 5 6 7 8 10 11 11 13

GFSMW_850_spd_069.txt.gz
Wind_Speed
12 15 16 18 19 19 20 23 24 20 16 19 21 20 23 23 24 24 24 27 26 25 27 28 27 27 30 30 28 29 30 29 29 28 29 32 30 31 33 31 32 32 30
7 10 14 17 21 23 20 21 22 24 23 21 20 24 26 26 27 27 27 26 26 30 30 30 32 32 32 31 30 31 33 34 32 32 31 26 33 36 38 36 35 35 34
7 7 8 10 11 15 21 25 27 28 29 30 28 28 29 32 29 25 26 28 27 26 29 34 33 33 34 34 32 33 35 38 38 38 30 16 23 25 33 38 40 39 37
9 8 6 8 9 10 11 13 19 25 26 27 28 28 27 28 28 21 20 20 21 22 19 19 22 28 34 35 35 34 35 36 40 39 41 42 29 18 13 23 29 37 37
9 7 6 6 3 3 2 3 4 5 8 14 23 30 31 29 27 24 19 13 16 19 22 25 23 22 22 31 34 35 34 36 38 41 41 42 47 37 27 24 27 26 34
12 6 6 4 2 2 3 4 4 5 5 6 7 10 12 16 19 25 29 26 18 18 19 19 22 24 21 22 24 29 33 36 36 39 41 43 42 45 45 35 31 27 31
13 11 10 7 5 6 7 6 6 8 9 9 10 10 10 12 13 15 18 22 20 21 23 23 22 22 20 19 20 23 27 30 33 36 39 41 40 45 41 39 37 32 34
14 10 7 7 8 9 9 9 9 10 12 12 12 12 12 13 13 13 14 17 23 24 22 22 21 20 21 18 20 18 19 22 26 30 33 35 35 37 41 44 40 36 34
12 9 7 8 9 10 9 8 8 9 11 11 12 13 13 14 15 15 15 16 17 19 22 26 26 26 25 22 23 21 20 20 23 26 28 30 31 33 35 38 38 40 27
11 9 8 7 8 7 7 7 8 8 8 9 10 11 12 12 12 13 13 14 15 17 19 20 22 24 25 26 27 29 28 25 22 24 24 27 28 30 31 31 33 35 35
14 10 8 7 6 6 6 5 5 4 5 5 6 7 9 10 11 12 13 14 15 16 17 17 18 18 19 20 21 20 18 17 18 19 21 24 24 25 25 24 26 26 24
12 9 7 7 6 7 6 5 5 5 5 5 6 7 9 10 11 11 12 12 14 15 16 16 16 17 18 19 19 19 16 14 15 16 18 18 19 19 20 18 21 17 15
11 9 7 7 8 8 8 7 5 5 5 5 5 5 6 6 7 7 9 9 8 8 8 9 10 11 11 11 10 11 13 14 14 14 15 15 14 14 11 13 10 7 6
12 11 10 10 10 9 8 8 6 6 6 5 5 5 5 5 6 5 3 4 4 3 5 6 5 4 5 8 9 8 6 7 7 9 8 9 7 4 2 3 4 5 5
15 14 12 12 11 10 9 8 6 6 6 7 6 6 6 5 4 3 2 1 1 3 4 5 7 10 10 11 9 7 5 3 2 1 1 1 3 3 2 3 5 5 5
14 13 13 13 13 13 10 10 8 7 7 7 6 6 5 3 1 3 4 6 8 10 12 13 14 12 14 14 14 11 8 6 4 3 2 0 2 4 3 5 7 6 4
14 15 14 15 15 12 12 10 9 8 9 8 7 4 3 3 4 6 8 10 12 11 12 13 12 12 13 12 11 9 6 5 3 2 1 1 2 4 4 5 3 3 5
13 13 14 15 14 13 12 10 10 9 9 7 5 4 5 7 9 11 12 12 12 11 12 13 12 10 12 9 8 7 4 3 2 2 2 3 3 4 6 7 7 7 8
10 11 14 14 13 12 11 11 10 9 7 6 7 7 8 10 11 13 13 12 11 10 9 11 11 10 9 7 6 5 4 4 4 4 5 5 6 7 8 8 8 8 7
8 10 12 13 13 12 13 11 9 7 8 9 10 10 11 13 14 13 12 9 8 8 9 9 7 7 7 6 7 7 8 8 9 9 8 8 7 8 10 9 8 8 8
10 11 12 14 16 15 13 11 9 8 10 11 12 13 14 13 11 11 10 8 7 6 6 6 6 6 6 7 7 7 8 8 8 9 9 9 9 9 9 9 6 4 6
10 10 10 12 13 12 11 12 10 11 12 13 14 14 13 11 11 9 8 6 5 3 3 4 5 6 7 8 8 9 8 9 8 9 9 8 7 7 5 3 2 3 4
11 11 10 11 12 11 10 10 12 15 16 16 15 13 12 11 9 7 5 3 1 1 3 4 5 6 6 7 10 11 12 12 11 10 11 10 8 5 3 2 3 4 4
12 10 10 12 12 9 11 12 15 18 17 16 14 13 12 10 9 7 5 2 1 2 3 5 6 7 7 9 11 10 11 11 11 10 9 7 5 4 3 3 5 6 7
13 12 11 13 14 13 14 16 18 17 17 16 14 13 12 10 8 6 5 3 3 4 4 6 7 8 9 9 10 10 11 10 10 9 7 6 5 4 5 6 8 9 10
17 15 13 13 14 14 17 19 20 18 17 16 16 14 12 11 9 7 6 5 5 5 5 7 7 8 8 8 9 11 11 11 10 9 7 6 6 6 8 9 10 11 12

GFSMW_850_spd_072.txt.gz
Wind_Speed
18 17 18 19 19 19 18 17 17 18 19 20 20 21 21 23 27 31 28 26 25 25 25 26 26 27 27 27 28 29 30 30 30 31 31 32 32 33 34 34 34 35 35
11 15 19 19 19 20 21 22 21 19 20 22 22 23 22 23 23 23 25 27 27 28 28 29 30 31 32 33 31 32 33 32 32 34 35 32 33 36 39 38 39 38 37
16 16 15 16 18 20 21 23 23 24 25 22 22 22 22 24 25 28 29 27 24 24 25 25 26 32 34 33 33 36 36 35 32 34 33 15 20 28 31 31 33 39 40
17 16 14 13 14 15 17 21 24 27 30 30 29 29 29 28 28 25 27 29 30 28 22 19 19 18 20 26 30 33 35 35 34 35 38 39 40 25 20 23 25 28 37
18 15 12 10 10 9 11 13 13 14 18 25 29 30 30 29 28 27 25 22 20 22 23 20 19 20 21 22 21 24 28 30 32 34 33 35 36 43 42 35 32 32 31
18 14 10 10 10 9 8 8 9 9 9 10 11 13 15 19 24 28 30 30 29 26 21 22 22 21 21 19 18 20 22 23 26 28 30 31 30 30 34 42 47 43 39
21 16 14 13 10 8 8 8 9 10 11 11 11 11 12 12 13 14 16 17 21 21 20 21 22 22 22 24 21 20 24 22 25 27 29 31 30 30 32 37 35 36 36
20 17 14 11 10 10 9 10 11 13 14 14 14 14 15 15 15 15 14 14 15 18 21 21 20 20 22 22 21 22 24 22 20 22 25 26 25 25 28 29 29 33 34
20 17 14 11 10 10 11 10 11 12 13 14 14 14 14 15 16 17 17 17 17 18 18 19 21 22 24 25 24 25 26 25 21 22 24 26 26 26 24 26 27 32 26
19 15 12 10 9 10 9 9 9 9 10 11 11 11 12 12 13 13 14 14 15 16 17 18 19 20 20 21 22 23 25 27 27 26 25 22 21 21 23 24 24 25 29
18 15 12 10 9 8 8 8 8 8 8 8 8 9 9 10 11 11 12 13 14 15 16 15 15 16 16 17 18 19 19 19 19 18 16 15 16 19 19 20 21 22 22
18 15 12 10 9 8 8 8 8 8 8 8 9 9 10 11 12 12 12 12 13 14 14 14 15 15 16 17 17 16 15 14 12 13 13 13 15 17 18 16 16 17 18
17 15 14 12 10 9 9 9 8 8 8 8 8 9 9 9 10 9 9 10 11 10 9 9 10 10 10 9 10 10 8 6 9 9 10 11 12 14 14 14 14 12 11
19 16 15 14 12 10 10 10 10 9 9 8 9 9 9 10 10 9 8 6 4 2 3 3 3 3 4 4 4 4 3 2 5 5 5 6 6 8 10 8 7 6 7
20 18 17 16 15 13 11 11 11 10 9 9 9 10 10 10 8 8 6 4 2 1 3 4 5 5 6 8 9 8 5 4 4 4 3 3 5 5 5 5 5 6 8
22 20 18 18 18 16 13 13 12 10 10 9 9 9 9 7 5 3 3 4 4 5 7 8 8 9 12 11 10 10 8 7 6 5 4 3 3 4 5 6 7 8 7
23 21 20 18 18 17 15 13 12 12 11 10 10 9 7 5 4 4 6 7 7 7 7 10 10 10 10 9 9 8 6 5 3 3 4 5 6 7 7 7 6 6 6
19 19 17 17 17 16 15 14 13 12 12 11 10 8 6 6 7 8 8 9 9 9 10 10 9 7 7 8 7 6 5 4 4 3 4 5 6 8 8 8 8 9 9
13 13 14 16 17 16 15 14 13 12 11 10 9 8 8 8 10 11 11 10 10 8 8 8 7 5 5 5 4 5 5 5 5 6 6 6 8 9 10 9 10 9 8
12 12 13 15 16 15 15 13 12 11 10 10 10 10 10 11 13 13 11 10 8 7 6 4 3 4 5 6 7 7 7 7 6 6 6 6 7 8 9 9 8 7 7
12 12 13 14 14 14 14 13 11 10 9 10 12 12 13 14 14 12 10 8 6 5 3 2 3 4 5 6 7 8 7 7 7 7 7 7 7 7 8 7 5 4 5
13 12 12 14 14 15 15 13 12 11 12 14 14 16 16 14 12 11 9 7 4 2 0 1 3 4 4 6 8 8 7 7 8 8 9 8 7 7 6 4 3 4 5
13 12 11 11 13 13 13 13 13 13 15 16 17 16 15 14 12 10 8 6 4 3 2 3 4 4 5 6 8 9 10 10 9 9 8 8 6 4 3 3 4 4 5
14 12 12 10 12 13 13 13 13 16 17 18 18 17 15 14 12 11 9 7 6 4 4 4 5 5 5 6 8 9 9 10 10 9 9 7 6 5 5 5 6 7 8
17 14 12 11 11 13 14 15 16 19 20 18 17 16 15 14 12 11 9 8 7 7 6 6 6 6 6 7 8 9 8 8 9 9 8 7 7 7 7 8 9 10 11
18 17 16 15 14 14 14 16 19 20 19 19 18 17 15 14 13 12 11 10 9 8 7 7 6 6 7 8 9 9 9 9 9 9 9 9 9 9 10 10 11 12 14

GFSMW_850_spd_075.txt.gz
Wind_Speed
14 14 15 18 19 19 19 19 20 21 22 23 22 24 28 26 25 24 26 25 25 25 26 26 25 26 27 26 27 28 29 29 29 30 32 33 31 30 30 31 33 33 34
18 18 18 21 21 20 20 20 20 21 22 23 24 24 24 24 24 24 26 27 31 31 30 28 27 28 29 30 31 33 34 33 32 34 34 33 32 33 32 33 35 36 36
20 17 20 22 20 19 18 18 19 20 21 22 24 26 28 30 29 27 26 27 27 29 29 29 29 27 28 28 31 32 31 33 35 35 32 17 18 22 21 22 26 29 30
20 19 20 20 19 19 18 19 20 22 23 24 24 24 24 24 25 26 27 28 29 28 27 26 26 25 23 21 19 19 24 28 30 31 32 34 34 33 26 23 21 24 27
21 21 19 17 16 15 16 17 19 21 22 24 23 25 26 26 26 25 25 23 25 27 28 28 28 27 24 22 20 20 20 19 19 21 22 25 27 27 32 30 26 28 30
23 21 19 17 14 15 15 15 15 14 13 12 11 12 14 17 20 23 24 25 26 27 27 25 23 25 24 23 23 23 22 20 18 23 21 23 24 24 25 29 31 31 30
29 25 20 16 14 13 12 11 11 11 11 10 10 10 10 11 12 13 15 15 16 17 19 19 21 22 22 22 22 23 22 20 21 24 25 25 21 21 22 25 27 28 29
28 24 19 16 14 12 10 10 11 12 13 13 14 14 14 14 14 15 16 16 16 15 15 18 19 19 20 20 20 20 20 21 24 25 24 24 24 24 23 23 24 28 30
28 24 19 15 13 10 10 11 11 12 12 13 14 15 16 16 16 16 16 17 18 18 19 19 18 19 20 20 19 19 21 23 23 25 22 22 24 23 24 22 23 22 25
27 22 19 15 12 10 9 9 9 10 10 11 12 12 13 13 14 14 15 15 16 16 17 18 18 18 18 19 20 20 21 22 23 23 22 22 22 21 17 17 17 19 21
27 22 17 14 11 10 9 8 8 9 10 10 10 10 10 10 11 12 12 13 14 15 15 16 16 16 16 17 17 17 17 17 17 17 17 16 17 14 13 14 15 16 17
24 20 16 14 11 10 9 8 9 10 10 10 10 10 10 10 11 11 12 12 13 14 14 13 14 14 14 14 15 14 13 11 10 11 10 9 9 10 11 12 14 13 17
22 19 17 15 12 11 10 9 9 10 10 10 10 10 10 10 10 10 10 10 10 11 10 9 9 9 9 9 9 9 9 6 4 4 7 6 7 7 9 8 12 10 11
22 20 17 15 13 12 11 10 10 10 11 10 10 10 10 11 11 11 10 9 7 5 4 4 3 3 3 3 2 1 2 3 2 2 4 2 3 4 5 5 5 7 8
22 21 19 17 16 15 13 12 11 11 10 10 10 10 10 11 11 10 9 7 6 4 2 2 3 4 4 5 6 6 5 4 2 2 2 2 1 2 4 5 6 6 6
24 22 20 18 18 17 15 13 12 12 11 11 11 10 10 10 9 7 5 5 4 4 5 5 6 8 9 8 8 8 6 5 5 5 5 5 6 6 7 8 8 8 8
24 23 22 20 18 18 16 15 14 13 13 12 12 11 10 8 6 5 5 5 6 6 6 7 8 8 9 9 7 6 5 5 5 5 5 6 7 7 8 8 9 9 9
22 21 20 19 18 18 18 16 15 14 14 13 13 12 9 7 7 7 7 8 7 7 8 8 7 7 7 6 6 5 5 5 5 5 6 7 8 9 8 9 9 9 9
17 16 16 16 17 17 17 16 15 15 15 15 13 11 9 8 9 9 9 9 10 8 6 6 6 4 4 3 3 3 3 4 5 5 6 6 8 10 10 10 10 9 8
16 14 13 14 15 16 16 16 15 14 14 14 13 11 10 10 11 11 11 11 9 8 6 3 3 2 3 4 4 4 4 4 5 6 7 8 8 8 9 8 7 7 6
14 12 11 10 11 14 15 15 15 14 12 12 12 12 12 12 13 14 12 10 8 6 4 2 1 2 3 4 5 5 5 5 5 5 6 7 6 6 7 6 5 5 4
14 11 10 10 11 13 14 15 15 13 12 12 13 13 14 16 15 13 11 10 7 5 3 2 1 2 3 4 5 6 5 5 6 7 7 8 7 6 6 5 4 5 5
12 11 11 10 11 13 14 15 14 14 13 14 15 16 17 16 14 13 11 9 6 5 4 4 4 4 3 4 6 7 7 8 8 8 8 8 7 6 6 5 6 6 7
13 12 13 12 12 13 14 14 15 16 14 16 17 18 18 16 15 13 11 9 8 7 6 6 6 5 5 6 6 7 7 9 9 9 9 9 8 7 7 7 8 9 10
14 15 14 13 12 12 14 14 14 14 17 18 19 19 18 16 15 13 12 11 10 9 8 8 7 7 7 7 7 7 8 9 9 9 10 10 10 10 10 10 11 12 13
14 17 16 16 14 14 14 14 14 16 18 20 21 19 18 17 16 15 13 12 12 11 10 10 9 9 8 8 8 8 9 10 11 11 12 12 12 12 13 14 15 15 16

GFSMW_850_spd_078.txt.gz
Wind_Speed
16 16 19 19 18 17 19 20 18 17 17 18 19 20 22 22 22 21 21 21 22 22 22 22 22 22 23 23 24 26 27 28 28 30 31 31 30 30 29 29 28 29 28
23 19 19 20 21 20 20 20 21 21 22 23 24 25 24 23 23 23 24 25 26 27 28 28 26 26 27 26 26 27 29 30 30 30 31 33 29 29 25 20 18 21 25
28 23 21 22 20 21 21 21 20 21 22 23 24 24 25 27 27 26 27 27 26 26 27 27 27 28 29 28 27 26 27 30 30 29 28 19 16 22 20 24 21 20 21
19 24 23 25 26 24 21 19 19 20 21 22 23 24 25 27 27 27 27 28 27 26 25 25 26 26 26 26 25 23 21 20 22 22 23 27 27 24 16 16 16 17 21
23 23 24 23 22 20 19 18 18 18 19 21 22 24 26 28 28 27 26 26 27 28 27 27 26 25 26 25 24 23 21 20 21 19 18 17 19 22 24 25 23 22 21
25 23 25 23 21 19 16 15 15 16 17 17 17 16 16 18 21 24 25 25 25 26 26 27 27 26 24 25 24 24 22 21 20 19 16 15 21 21 23 26 28 25 23
29 31 30 26 21 18 16 15 15 14 13 12 11 10 10 10 11 11 12 13 14 15 16 17 18 19 21 23 24 23 22 20 21 18 17 19 23 23 22 22 25 24 25
28 32 31 27 22 19 16 14 13 12 12 12 12 12 12 12 13 14 14 14 15 15 15 15 16 18 18 19 20 21 22 21 21 21 22 25 25 22 22 22 22 26 21
29 33 30 25 21 17 14 12 11 12 13 13 13 13 13 13 14 15 16 17 17 17 18 18 18 18 18 19 19 19 17 19 21 22 23 25 25 22 22 22 24 20 14
28 30 27 22 18 15 13 11 10 10 11 11 11 12 12 13 13 14 14 15 16 16 17 17 17 17 17 17 17 18 19 20 22 22 22 19 17 17 17 16 11 14 17
29 27 22 18 16 13 11 10 9 9 9 10 11 11 11 11 12 12 13 13 14 14 15 16 16 16 16 16 15 16 15 15 15 15 14 13 11 11 8 8 10 11 13
27 24 21 18 16 13 11 9 8 8 9 10 10 10 10 10 10 11 12 12 13 13 14 15 15 15 15 15 15 14 14 12 10 9 7 8 6 6 6 7 9 10 11
26 23 21 19 16 14 11 10 9 9 9 10 10 10 10 10 10 10 11 11 11 11 11 11 11 11 11 10 10 10 9 8 7 5 3 4 6 6 5 7 8 8 7
26 24 21 20 17 15 13 11 10 10 10 11 11 11 11 11 11 12 12 11 10 9 6 6 6 6 6 6 5 4 4 5 4 3 3 1 2 3 4 4 4 5 5
27 26 23 21 19 18 16 14 12 11 11 12 12 12 11 12 12 12 11 10 9 7 5 4 4 4 4 4 4 5 5 5 4 2 2 2 1 1 1 2 3 5 6
28 26 23 22 20 19 16 13 13 12 12 12 12 12 11 11 11 10 9 7 6 6 5 5 5 6 7 8 7 7 6 5 4 3 1 2 3 4 4 5 6 7 7
28 26 24 22 21 19 17 16 14 14 13 13 13 12 12 11 9 8 7 7 7 7 6 6 7 8 9 8 6 4 3 3 3 2 3 3 4 6 6 8 8 9 9
26 24 22 21 19 18 18 17 16 14 14 13 13 13 13 11 9 8 8 9 8 8 9 9 8 7 7 5 3 3 2 3 2 3 4 5 6 6 6 7 8 9 8
22 18 17 17 16 17 18 18 17 16 15 14 14 14 12 10 9 9 10 11 10 10 9 8 6 4 3 3 2 2 2 2 3 3 4 5 6 8 7 7 7 7 7
17 14 13 15 16 16 17 17 16 16 15 14 14 13 12 11 11 11 12 12 12 10 9 6 5 3 2 2 2 2 2 2 3 4 5 7 7 7 7 7 6 6 5
14 13 13 12 11 13 15 15 15 15 13 13 13 12 12 12 11 13 14 14 12 11 8 6 4 3 2 1 2 2 2 2 3 4 5 6 7 6 6 6 6 5 4
14 15 13 11 10 11 13 13 13 12 13 13 12 12 12 13 14 16 16 15 12 10 8 6 4 2 2 1 1 2 2 3 4 5 5 6 6 6 6 5 5 4 5
13 12 12 11 11 10 11 12 12 13 13 13 11 12 14 15 16 16 15 13 12 10 8 6 4 3 3 3 4 4 4 4 4 5 6 7 7 7 7 7 6 6 8
10 11 11 11 11 10 10 11 13 13 14 14 13 15 16 18 18 16 16 15 12 10 8 6 6 6 6 6 6 6 6 6 7 7 8 9 9 9 8 8 9 9 11
8 11 12 12 12 11 10 12 13 14 15 14 15 17 18 20 17 17 15 13 12 11 9 8 8 8 7 7 7 8 7 8 8 8 9 10 10 10 10 10 11 12 13
9 11 11 13 14 13 11 12 13 14 14 15 18 19 20 20 18 18 16 16 14 13 11 11 10 9 9 9 9 9 9 9 10 9 10 11 12 12 12 13 14 15 16

GFSMW_850_spd_081.txt.gz
Wind_Speed
15 12 13 17 17 18 19 19 19 18 18 18 18 19 19 18 17 18 18 18 19 19 20 20 20 20 20 19 20 21 22 24 23 26 28 27 25 26 26 25 24 22 22
21 16 16 16 18 17 18 17 17 16 17 17 17 18 18 19 19 18 19 21 22 23 23 23 24 24 23 24 24 24 25 26 24 26 27 28 23 23 18 17 14 14 18
26 22 21 19 21 20 19 18 19 20 20 20 20 21 22 23 22 22 22 23 24 24 24 24 25 24 25 25 25 26 26 26 24 24 21 14 13 17 21 21 22 21 17
28 22 19 22 23 23 22 22 21 21 20 20 21 21 22 23 23 24 25 26 28 28 27 26 24 24 24 26 25 24 23 23 21 19 19 20 22 19 14 11 14 18 19
36 32 25 25 25 24 23 22 21 21 20 20 20 21 22 24 25 25 25 24 24 24 24 25 27 27 26 25 24 23 22 21 20 20 19 19 17 17 20 20 17 16 17
46 38 26 25 27 25 23 22 20 19 19 19 19 20 21 22 23 23 24 24 24 25 26 26 26 26 25 25 23 23 23 22 21 20 19 18 17 18 17 20 21 19 17
46 39 35 29 28 25 24 21 19 18 17 17 18 17 16 15 14 14 14 15 16 17 19 19 19 19 19 19 20 21 22 22 21 21 19 19 21 18 20 18 17 18 20
25 30 35 33 30 28 24 22 19 17 16 16 15 15 14 14 14 14 14 15 15 16 16 17 17 18 18 18 18 18 18 18 19 18 18 18 19 20 21 21 19 21 18
17 24 33 34 31 28 23 18 16 15 15 14 14 14 14 14 15 15 16 16 17 17 17 18 19 19 19 19 18 18 17 19 19 20 20 20 22 23 25 21 17 15 12
16 23 31 31 27 22 18 15 14 14 13 13 12 12 12 12 12 13 13 14 15 15 16 16 16 16 16 16 17 17 18 19 21 21 23 24 24 21 19 15 14 11 11
15 21 27 25 21 18 17 15 14 12 12 12 12 12 11 12 12 12 12 12 13 14 14 14 15 15 15 15 15 15 16 17 17 17 17 16 14 12 10 8 7 10 10
16 23 25 23 20 18 15 13 12 11 11 11 11 12 12 12 12 12 12 12 12 13 14 14 15 15 15 14 14 14 15 14 14 13 10 8 7 5 5 5 6 8 9
19 24 24 22 20 18 16 14 13 12 11 11 11 12 12 12 12 12 12 12 12 12 12 12 12 12 12 12 12 11 10 10 9 7 5 5 4 5 4 5 8 9 7
22 25 25 23 20 18 16 15 14 12 12 12 12 13 13 12 12 13 13 13 12 12 11 10 9 8 8 8 8 8 8 8 7 6 4 3 3 5 5 5 6 5 4
27 28 26 24 21 20 18 17 15 14 13 13 12 13 13 13 13 12 12 12 11 10 9 8 7 6 6 6 5 5 6 7 7 6 5 4 4 4 4 4 5 4 4
31 31 28 25 23 21 20 17 16 15 14 14 13 13 13 13 13 11 11 10 8 8 8 7 6 6 6 7 8 8 8 7 6 5 4 3 2 2 3 3 4 4 4
32 32 30 26 24 22 20 19 18 17 16 14 14 13 14 13 12 11 9 7 7 6 7 7 6 6 8 9 8 8 6 5 4 4 3 2 2 3 3 5 5 6 6
25 31 28 25 23 21 20 19 20 18 17 15 15 14 14 14 12 11 9 8 8 8 8 8 9 9 9 7 6 5 5 4 4 3 1 0 2 2 4 5 5 5 5
20 25 24 20 20 20 20 21 21 20 18 17 16 15 15 15 13 11 10 11 11 10 11 11 10 9 7 6 5 5 5 4 3 2 0 1 3 4 4 4 4 4 4
21 22 18 18 19 19 18 20 20 20 19 16 15 15 14 13 12 12 12 13 13 13 12 11 10 8 7 5 4 4 4 3 3 1 0 1 2 3 3 3 3 3 3
17 20 18 15 14 14 15 17 18 18 15 15 15 15 14 13 12 13 14 15 17 15 14 11 9 7 6 4 3 3 3 3 2 1 1 2 3 3 3 2 3 2 2
16 17 16 15 13 12 12 14 15 14 16 16 15 14 13 13 15 15 17 19 18 16 13 11 9 8 6 5 4 3 2 3 3 2 2 2 3 3 3 3 3 3 3
11 12 13 12 12 10 10 11 12 16 15 15 14 13 13 14 15 17 19 20 18 16 14 11 10 9 8 7 5 4 4 4 4 3 3 2 3 3 3 4 4 5 6
9 11 12 10 10 9 9 10 13 14 15 15 14 13 15 16 17 19 19 18 18 16 13 12 11 10 8 8 7 7 6 6 5 4 4 3 3 4 5 6 6 7 8
6 7 8 9 10 11 10 11 13 14 15 15 14 14 16 17 19 20 18 17 16 14 13 12 12 11 9 8 9 9 9 8 8 7 6 5 6 6 7 8 8 10 11
7 7 8 9 10 11 11 11 12 13 14 15 15 15 18 18 20 19 19 19 18 17 15 14 13 12 11 11 10 10 10 10 10 9 8 8 8 8 9 9 10 11 12

GFSMW_850_spd_084.txt.gz
Wind_Speed
16 16 11 14 19 21 24 25 22 20 21 21 21 20 19 17 17 16 15 16 17 18 18 18 19 19 20 20 20 21 21 21 22 22 22 17 16 17 18 16 15 16 17
19 18 11 12 16 21 25 25 23 23 22 21 21 20 18 18 17 17 16 18 19 20 21 22 23 23 23 23 24 24 24 24 24 21 19 14 16 16 12 12 11 15 18
23 18 16 13 15 17 18 20 21 22 23 23 23 21 19 19 18 18 19 20 21 22 23 24 24 24 25 24 24 25 26 26 24 23 18 10 10 9 11 11 15 15 15
22 21 18 10 15 18 20 20 21 23 23 23 23 22 21 19 19 20 21 22 24 26 27 27 27 26 25 25 24 25 26 25 25 23 21 19 18 12 12 13 14 16 17
21 23 23 16 12 19 21 22 22 22 22 23 22 20 19 20 20 21 23 24 25 25 25 25 25 25 25 25 26 25 24 25 23 22 20 19 17 16 19 16 12 13 16
23 24 22 26 23 22 24 23 22 22 21 21 19 19 20 20 22 23 24 25 25 25 25 24 24 25 26 26 26 25 24 24 23 23 21 22 17 16 17 16 13 16 13
26 30 20 24 26 25 24 24 23 22 21 20 19 18 19 19 20 20 20 18 18 19 20 21 21 21 21 21 21 21 22 22 21 23 24 20 19 19 21 21 20 19 13
25 29 36 29 29 27 28 28 26 24 22 20 18 17 17 17 17 17 16 16 17 17 17 18 18 19 20 20 20 19 18 17 20 22 21 22 20 19 20 19 19 15 14
15 21 34 29 26 31 30 29 27 23 20 17 16 16 16 16 17 18 18 19 20 20 21 21 21 22 22 22 21 20 19 18 19 21 22 23 21 22 21 22 20 17 14
16 19 21 22 27 28 28 25 22 19 17 16 15 15 16 16 17 17 18 19 19 19 20 20 20 21 21 20 20 20 21 21 22 22 23 22 23 23 23 19 15 14 13
10 16 17 21 25 26 23 21 18 16 15 15 15 15 15 15 16 16 17 17 17 17 17 18 18 18 18 18 18 18 19 20 20 20 20 20 18 15 14 12 11 11 10
6 11 16 23 26 23 21 18 16 16 16 14 13 13 13 14 15 16 16 16 16 16 16 16 16 17 17 17 17 18 18 18 18 17 17 15 12 10 10 9 7 8 9
7 12 17 24 25 23 21 20 18 16 15 14 13 13 13 14 15 15 15 15 15 15 15 15 15 15 15 15 15 15 15 15 14 13 11 10 9 7 6 8 8 10 11
8 14 18 22 25 25 21 19 18 17 15 14 14 14 14 14 15 15 15 16 16 16 15 14 14 13 11 11 11 12 11 10 10 10 10 9 9 9 8 8 7 6 6
14 18 21 23 24 23 22 21 19 18 16 15 14 14 14 15 15 16 16 16 16 15 15 12 11 10 10 10 9 9 8 8 9 9 8 7 7 7 7 6 6 6 6
17 21 23 25 26 25 23 21 20 19 17 16 15 15 15 15 16 16 15 15 14 13 12 11 10 8 7 6 7 7 8 9 9 8 7 6 6 6 7 6 6 6 6
24 24 27 30 27 25 23 22 20 20 18 17 16 16 16 16 16 16 15 13 11 10 9 9 8 7 7 8 9 9 9 9 8 7 6 6 6 5 5 5 5 5 5
16 22 25 29 29 25 23 21 21 21 20 19 18 17 18 16 16 16 15 12 10 10 9 8 9 9 9 10 9 8 8 7 7 7 7 6 5 4 4 3 3 3 2
14 14 20 28 28 26 24 24 24 24 23 22 20 18 17 17 17 16 14 12 12 12 11 10 10 11 10 8 7 7 7 7 7 7 7 6 5 3 2 2 1 2 3
22 16 18 22 23 24 25 24 25 24 24 21 19 18 17 17 17 15 14 14 14 13 12 12 12 11 10 8 7 8 8 8 8 7 6 5 4 2 2 1 1 1 2
17 15 19 21 22 21 21 22 21 22 19 18 18 18 18 18 17 14 15 16 16 15 16 15 13 11 10 8 7 7 8 8 7 7 6 4 3 2 2 2 2 2 2
12 15 19 18 17 17 17 17 17 16 18 18 18 18 18 18 16 15 16 18 18 19 18 15 13 12 11 10 7 6 7 7 7 7 6 5 4 3 3 3 3 5 4
8 13 16 16 16 16 14 13 13 15 17 17 17 17 17 17 15 17 18 20 21 21 19 17 15 13 12 11 9 8 8 8 8 7 7 6 5 5 5 5 5 5 6
7 10 12 13 13 12 11 12 12 14 15 16 17 18 18 15 16 17 19 21 23 22 21 18 16 14 13 12 12 11 10 9 9 8 8 7 7 7 7 7 7 8 8
5 6 8 8 9 9 10 12 12 13 15 16 17 17 16 16 17 19 20 21 22 20 18 16 15 15 14 11 13 14 13 12 11 11 11 10 10 10 10 10 10 10 11
5 6 7 8 10 12 13 14 13 13 14 15 16 16 15 18 18 19 20 22 21 20 20 19 18 16 15 16 15 13 13 14 14 14 13 13 13 13 12 11 11 12 12

GFSMW_850_spd_087.txt.gz
Wind_Speed
18 12 12 12 9 13 15 16 18 19 18 18 18 18 19 17 16 15 13 13 13 14 14 13 12 13 14 15 15 15 16 17 16 17 19 16 14 15 18 15 14 12 14
27 14 16 11 13 15 19 20 22 19 20 19 18 17 16 15 15 15 16 16 16 17 18 18 17 17 19 20 19 19 20 20 19 18 17 14 11 13 15 12 11 10 10
31 24 16 13 12 14 19 22 22 23 24 24 21 18 16 15 16 16 15 16 18 19 20 21 21 22 22 22 21 20 20 21 19 20 17 9 9 11 11 11 9 13 14
23 28 18 16 12 14 16 19 22 24 24 22 21 19 19 17 13 13 17 18 18 21 23 23 24 25 25 26 25 23 22 21 22 20 24 22 17 11 10 9 13 13 11
20 20 20 17 13 14 15 17 19 20 23 21 20 20 21 22 22 21 21 21 21 22 24 25 25 25 25 25 25 24 24 24 23 21 20 17 15 17 17 14 16 15 13
21 22 20 19 19 16 13 13 19 21 22 23 23 23 22 22 21 21 21 22 23 25 25 25 25 25 24 24 24 24 25 23 21 21 22 20 17 14 15 16 16 14 15
21 25 21 16 18 22 18 15 17 20 20 21 22 22 21 20 20 20 20 21 21 21 21 20 20 21 21 21 21 20 20 20 20 21 22 22 24 22 20 20 20 22 18
14 20 24 16 20 22 19 19 19 18 23 21 21 20 19 18 17 18 18 19 18 19 18 17 18 18 19 19 20 20 20 19 17 19 19 22 24 21 20 19 18 18 17
9 18 23 18 14 22 21 25 24 23 23 23 20 19 18 17 18 18 19 19 19 20 20 20 21 21 21 21 21 21 21 20 17 19 21 22 22 21 21 17 19 20 18
9 10 21 24 27 24 20 21 22 23 22 22 20 17 16 16 17 18 18 19 20 20 20 20 20 20 21 20 19 20 21 20 20 18 18 20 22 22 21 22 23 21 16
5 10 11 18 26 24 23 25 24 25 24 21 19 17 16 16 16 17 17 18 19 19 19 19 19 19 19 19 18 19 19 19 19 19 20 20 19 20 18 18 16 15 12
2 4 7 11 16 19 19 23 23 20 19 17 15 14 14 15 15 16 17 17 18 18 18 18 19 19 19 18 19 19 18 18 18 17 17 16 16 15 14 13 13 11 10
1 4 8 11 13 16 20 22 21 20 18 16 15 15 14 14 15 16 16 17 17 18 17 18 18 18 18 18 18 18 18 17 17 17 16 15 13 12 11 9 8 8 8
6 6 10 12 14 16 19 21 21 19 17 16 15 14 14 14 15 16 16 16 17 17 18 18 18 17 16 16 15 15 16 15 15 14 13 12 11 10 9 9 8 8 8
10 9 11 14 16 17 18 18 17 17 16 16 15 14 14 14 15 16 16 17 17 18 18 17 17 15 14 13 13 12 12 12 12 11 11 11 10 9 10 9 9 9 8
16 14 15 16 18 18 19 20 19 18 16 15 15 15 15 15 16 17 17 17 17 17 16 16 14 13 11 11 10 10 10 10 9 10 9 8 8 9 9 9 9 8 7
18 20 18 21 21 21 21 21 20 19 18 17 17 16 16 16 17 17 16 17 16 15 13 12 11 10 9 8 8 7 9 9 9 9 9 8 7 7 7 7 6 7 7
17 16 19 21 23 21 20 19 20 19 18 18 18 18 18 17 17 17 16 16 15 12 11 11 9 10 9 9 8 8 8 8 8 8 7 8 7 7 6 5 4 4 4
19 15 13 20 22 23 22 22 20 20 19 20 20 19 18 18 18 16 16 17 14 11 11 11 11 10 9 9 9 9 9 9 9 8 8 7 7 6 6 5 4 3 3
15 14 9 14 21 23 23 22 21 20 20 20 19 19 18 19 18 17 17 15 13 12 13 13 12 12 10 10 10 10 10 10 9 8 8 8 8 6 5 5 4 4 3
10 12 10 14 19 22 22 19 19 19 19 18 18 18 19 19 17 16 16 14 14 14 14 13 13 12 11 11 9 9 10 10 9 8 8 8 7 6 6 6 5 5 4
8 10 12 15 19 19 17 17 18 18 18 18 18 18 18 18 18 17 16 15 16 15 16 16 15 14 13 12 10 9 10 10 9 9 8 8 7 7 7 7 6 7 7
3 8 14 16 17 16 16 16 15 15 15 16 17 17 18 18 17 17 16 16 17 17 18 18 17 15 14 12 11 10 9 9 9 10 9 8 8 8 8 8 8 8 8
2 4 7 9 11 12 13 13 14 13 13 14 16 17 17 17 17 17 16 17 18 20 20 19 18 16 14 14 13 12 11 10 10 10 10 10 9 9 10 9 9 10 10
2 3 4 5 7 8 9 11 10 11 12 13 15 16 15 16 17 16 16 16 18 20 20 19 18 17 15 13 12 13 13 13 12 12 12 12 12 12 12 12 12 12 12
0 2 3 3 5 7 9 11 12 12 13 14 14 14 14 16 16 16 16 17 17 19 20 20 18 17 16 16 15 15 14 14 16 16 16 15 15 15 14 15 14 14 14

GFSMW_850_spd_090.txt.gz
Wind_Speed
23 22 18 16 20 23 21 22 22 18 18 20 27 27 27 23 23 20 17 14 14 11 13 12 11 12 13 13 14 12 15 16 15 16 19 20 18 18 15 13 12 11 13
22 28 22 19 22 22 23 20 21 21 20 22 22 23 25 22 22 22 19 20 18 17 18 17 16 14 15 17 18 18 17 19 19 19 18 13 17 13 14 12 15 14 16
16 29 26 23 23 24 23 24 24 23 22 23 21 20 19 17 18 17 16 16 17 17 16 17 18 18 19 19 19 17 17 19 19 18 15 8 5 6 9 12 15 16 14
26 16 29 27 25 24 27 23 25 25 27 26 23 18 18 16 14 14 12 13 17 15 16 18 19 21 22 22 23 22 22 21 21 19 20 22 21 19 10 11 11 11 13
26 24 29 30 26 25 25 25 25 25 27 25 24 22 21 18 18 17 15 19 20 18 18 19 21 22 23 23 23 23 23 22 21 22 22 21 21 19 20 14 15 10 10
25 20 23 24 22 20 21 20 21 21 22 25 25 23 23 23 24 22 20 22 22 19 19 21 23 23 23 23 22 21 22 22 22 21 19 22 22 19 20 21 17 14 14
26 23 21 22 22 20 18 16 17 19 20 21 22 21 21 20 20 19 18 18 18 20 22 20 20 20 19 19 19 18 18 19 19 18 22 23 24 23 22 20 13 16 16
7 26 25 20 23 22 21 17 17 18 19 20 19 19 20 20 20 19 18 18 19 20 19 18 17 17 17 17 18 18 18 18 18 17 18 19 21 23 22 21 20 18 17
7 14 20 23 25 25 22 19 19 18 19 21 22 21 20 20 19 18 17 17 18 17 18 19 19 20 20 20 20 19 21 21 18 19 17 17 19 22 21 23 22 19 14
8 10 18 17 21 24 20 15 16 18 20 18 18 16 16 18 19 20 16 16 18 19 19 20 20 19 19 19 19 19 20 20 19 18 17 18 19 20 21 21 21 19 19
5 8 11 17 21 20 21 22 24 21 23 22 19 19 20 20 17 14 15 16 17 18 19 19 19 19 19 19 18 19 19 18 18 17 18 19 19 21 20 21 21 21 19
3 8 12 13 17 21 22 21 24 25 25 23 25 15 14 15 15 14 14 15 17 17 17 18 19 19 19 18 18 18 18 19 18 17 16 17 17 17 15 15 15 14 13
4 1 9 11 16 22 22 21 25 28 27 22 20 22 21 17 16 14 14 14 15 16 17 17 18 18 17 17 18 18 18 18 18 17 16 17 16 15 15 13 12 10 10
3 3 6 11 13 16 20 23 23 24 23 21 19 18 16 15 14 13 13 14 15 16 16 17 18 17 17 17 17 17 17 18 17 18 17 14 14 11 11 11 10 10 10
4 7 10 12 15 15 20 23 24 23 20 18 17 15 14 13 13 13 14 15 15 16 17 18 18 18 16 15 15 15 14 12 12 13 12 10 11 11 12 11 10 11 10
7 13 14 14 17 20 21 21 22 21 20 18 16 15 15 14 14 14 15 15 15 16 16 17 18 17 15 13 14 13 12 11 10 10 10 11 11 10 10 10 9 10 10
14 15 15 18 19 22 21 23 22 19 18 17 15 15 14 15 15 15 15 15 15 16 16 16 16 13 11 10 10 9 9 9 9 9 9 8 9 10 10 10 9 10 10
18 15 15 19 19 23 22 22 22 20 18 17 17 16 17 16 16 15 15 15 15 16 15 14 12 11 9 8 7 7 8 9 9 9 9 10 9 9 9 7 8 8 6
19 18 16 17 21 24 26 25 23 20 19 19 18 18 17 17 17 16 16 15 15 15 12 11 12 10 9 8 8 7 8 9 9 9 10 9 9 9 8 7 8 7 5
13 13 15 15 15 25 27 26 25 23 21 19 19 17 18 18 17 16 15 14 15 13 12 12 12 11 9 10 10 9 10 11 10 10 10 9 7 6 6 8 8 7 5
9 11 13 11 14 24 27 26 26 23 19 18 18 18 18 18 17 16 15 15 14 13 13 13 13 12 12 11 11 10 11 11 11 10 10 9 8 7 7 8 8 7 6
5 10 10 13 16 21 23 23 24 20 19 16 15 15 16 16 15 15 15 15 14 13 14 14 14 14 14 12 10 10 10 12 12 11 10 9 8 8 8 9 9 8 6
1 7 11 15 20 20 20 21 20 18 16 14 13 14 15 15 14 15 14 15 14 15 16 16 16 15 14 12 11 10 9 10 11 11 10 9 9 9 9 9 9 9 8
4 3 5 8 11 13 15 14 14 12 11 11 12 13 13 14 14 14 15 15 14 16 17 17 17 15 14 13 12 11 10 10 11 10 10 10 10 10 10 10 10 10 10
5 5 5 5 5 6 7 7 8 9 9 10 11 12 11 13 13 14 14 13 12 14 15 16 15 16 15 10 11 11 11 11 11 12 12 12 12 12 12 12 12 12 12
4 4 4 3 3 2 3 5 7 8 11 12 13 12 11 12 13 13 13 12 13 14 15 17 17 15 14 13 12 12 12 13 13 15 15 15 15 15 14 14 13 14 13

GFSMW_850_spd_093.txt.gz
Wind_Speed
21 19 16 19 26 25 24 22 23 22 20 23 33 32 29 28 26 23 20 18 13 12 9 9 10 11 13 13 13 14 12 14 15 16 17 19 20 18 13 11 12 12 10
18 29 24 22 27 29 27 26 24 23 23 22 23 33 28 29 29 27 24 20 18 16 15 15 14 15 14 15 17 17 17 18 17 18 18 19 15 16 10 8 12 13 15
20 33 32 28 25 26 31 29 27 25 25 23 23 26 26 29 26 25 24 20 17 15 15 15 17 18 18 19 19 21 21 20 19 19 17 11 5 4 5 8 10 11 13
23 22 33 30 29 25 25 29 28 28 26 26 25 23 23 25 26 22 23 21 21 18 14 10 15 24 23 22 23 23 23 22 22 19 21 22 22 15 9 11 13 12 12
28 20 24 25 28 28 28 31 32 30 31 31 27 25 24 22 21 22 22 20 17 15 15 15 18 29 24 23 23 24 24 23 24 23 23 23 23 22 20 16 16 16 15
29 30 24 20 30 30 29 30 32 33 32 31 30 28 28 27 26 25 24 23 22 21 20 19 25 25 23 23 22 22 22 21 22 22 22 23 22 20 19 21 21 20 16
31 29 29 23 34 32 29 26 25 28 29 28 30 30 30 28 27 27 26 24 24 22 19 20 20 19 20 20 19 19 19 20 20 18 21 23 24 22 23 21 23 18 21
24 29 29 24 29 27 24 26 26 25 23 23 22 27 27 25 21 27 21 21 19 19 19 17 17 18 19 19 18 19 19 20 20 20 19 20 21 24 25 23 23 17 19
4 18 28 27 26 24 24 23 22 22 21 22 21 20 23 25 27 25 21 20 18 17 17 16 19 20 19 20 21 21 22 22 21 21 20 19 19 20 22 23 19 22 19
7 8 18 23 23 22 22 25 22 20 19 18 18 19 20 21 20 17 15 14 14 15 17 20 20 18 19 20 20 21 22 22 21 20 19 19 18 20 23 22 20 20 20
4 7 10 12 15 22 24 22 21 21 20 16 12 14 20 17 16 15 15 15 15 19 22 19 18 19 19 19 19 20 20 21 20 20 18 18 18 18 20 22 21 22 24
3 5 8 10 14 21 23 23 25 25 22 23 23 17 23 17 11 9 11 16 20 18 17 18 19 19 18 19 19 19 20 20 19 19 18 17 17 19 20 19 21 23 20
5 3 2 7 10 19 25 26 25 24 25 21 20 26 22 22 27 31 28 28 21 17 17 17 17 17 18 19 19 19 20 20 19 19 19 19 18 18 17 17 15 15 14
5 3 3 6 11 15 23 26 27 26 26 24 23 24 26 26 22 18 17 15 15 16 17 17 17 18 19 19 19 19 20 20 20 20 19 19 18 17 16 15 13 13 12
13 8 8 8 10 14 19 22 22 23 22 22 21 20 20 18 16 14 13 14 15 16 16 17 17 18 18 19 19 18 18 17 16 15 15 16 15 13 13 13 12 12 12
15 14 15 14 14 15 17 21 24 23 20 20 19 19 19 17 15 14 14 14 14 15 16 17 18 18 18 18 18 16 15 12 12 12 13 13 12 12 12 12 12 12 12
9 13 16 19 18 17 18 20 21 22 22 21 20 19 18 16 16 15 14 14 15 16 16 17 17 18 16 14 13 12 11 11 11 11 10 11 11 11 12 12 12 13 13
17 18 18 17 22 20 18 17 19 22 23 22 21 20 19 17 17 15 14 14 14 16 16 17 16 16 13 11 9 9 9 10 10 10 10 10 9 10 10 11 11 11 10
12 15 17 18 19 23 21 20 22 22 23 23 22 21 19 17 16 15 15 16 16 17 17 16 15 14 12 10 9 8 8 10 10 10 10 9 9 10 10 10 10 9 9
16 17 15 19 16 22 23 24 22 23 24 23 22 19 17 16 16 15 16 16 16 15 15 14 13 12 12 10 9 9 9 10 10 10 10 9 9 9 10 10 10 10 9
11 10 10 10 13 14 24 27 23 23 20 20 19 17 16 16 15 15 16 15 15 15 14 12 13 14 13 11 11 11 10 10 11 11 11 11 10 10 9 10 10 9 10
6 7 9 11 12 13 23 26 23 18 18 18 17 16 16 15 15 16 16 16 16 15 13 13 14 14 14 13 12 11 11 12 11 11 11 11 10 10 9 9 10 9 10
5 2 5 7 10 15 22 22 21 19 18 17 16 15 15 14 14 15 16 16 15 15 14 15 15 14 15 14 12 11 10 10 10 10 11 10 10 10 10 10 10 11 11
5 3 3 6 9 13 16 15 15 16 16 15 15 14 13 12 12 13 14 15 15 15 14 16 16 15 15 15 13 12 11 10 10 10 11 11 12 11 12 12 12 12 12
6 7 7 6 6 8 9 10 11 12 12 13 13 12 11 11 12 11 12 14 13 12 14 14 15 15 16 12 12 12 11 11 10 11 13 14 13 13 13 13 13 13 14
4 4 5 6 6 6 5 4 4 6 8 10 11 12 12 12 12 10 11 13 9 12 13 14 15 15 14 15 14 13 12 12 13 17 17 16 15 15 14 15 15 15 15

GFSMW_850_spd_096.txt.gz
Wind_Speed
17 17 19 25 28 26 28 29 27 29 29 30 31 30 30 31 27 25 23 22 19 17 12 13 12 11 12 12 13 13 14 15 15 17 19 20 19 20 15 17 14 16 15
25 23 21 23 23 27 28 28 28 27 32 38 36 35 35 34 29 29 29 26 24 21 18 13 12 12 13 14 15 17 19 19 18 19 19 22 20 18 18 10 10 11 13
25 22 25 26 28 28 26 29 30 28 26 27 28 27 33 34 32 32 30 27 26 22 22 19 16 17 14 13 17 22 23 22 22 19 18 11 6 7 9 8 8 10 12
28 30 24 29 31 31 30 28 26 27 27 27 26 28 28 33 35 33 30 29 27 25 24 21 21 21 21 14 19 25 30 27 26 22 21 21 23 21 12 15 15 14 16
30 29 30 27 32 32 34 35 33 30 29 29 29 29 27 25 27 29 31 27 28 28 25 22 20 20 20 20 24 31 31 29 29 25 25 25 25 24 23 20 20 19 18
35 30 28 23 30 31 31 32 32 32 31 30 31 28 28 28 27 26 28 29 27 25 23 21 21 23 24 24 26 29 28 27 26 25 26 23 24 22 25 26 25 23 20
36 35 30 26 25 24 28 32 33 34 32 30 30 31 30 29 29 27 28 28 26 26 23 23 25 27 22 24 25 24 23 23 22 22 22 23 24 25 24 25 24 22 23
33 35 34 28 27 25 27 31 32 30 31 32 32 33 34 34 32 31 28 26 25 23 21 26 24 22 20 20 20 20 21 22 22 22 23 22 22 24 26 28 25 24 22
13 27 34 28 27 24 25 27 28 28 28 27 28 28 30 34 31 28 24 21 20 15 21 22 22 19 19 19 21 22 23 23 23 24 24 24 24 23 23 23 22 24 24
6 9 16 29 26 23 24 27 25 25 23 23 23 21 19 18 19 20 21 22 23 21 22 18 20 21 21 22 23 23 24 24 24 24 24 23 22 22 21 21 22 22 22
7 6 9 17 23 25 25 25 25 24 22 20 20 19 18 17 15 14 15 16 15 16 17 16 18 21 22 22 24 23 24 24 24 24 24 22 22 20 20 21 20 20 22
4 6 6 9 12 19 24 24 24 23 23 22 19 17 18 17 16 15 12 13 14 16 19 21 20 23 25 25 24 24 25 24 23 23 23 21 20 20 20 20 21 21 22
7 7 5 2 8 14 18 22 23 22 22 21 20 21 20 20 21 17 13 17 21 22 26 28 28 23 22 22 23 24 24 23 22 22 22 21 21 21 20 20 20 19 20
5 3 3 3 5 8 13 21 24 23 24 23 23 22 22 20 21 22 21 25 24 23 21 21 20 19 21 21 23 23 23 22 22 21 21 22 22 21 20 19 18 17 16
12 11 8 7 8 10 12 16 20 23 23 22 22 23 24 22 22 23 20 19 19 18 18 19 18 19 20 21 23 23 22 21 21 20 19 18 18 18 17 16 15 14 14
17 17 17 16 17 15 14 16 20 23 24 24 25 25 23 20 18 18 18 17 16 17 17 17 16 18 19 21 22 23 20 18 16 16 15 15 15 14 12 12 13 13 13
12 16 22 22 20 17 14 15 18 20 21 21 21 20 20 19 18 16 15 15 14 15 16 17 18 19 20 22 21 17 15 14 12 13 13 13 12 12 11 13 13 14 14
13 15 17 18 18 18 20 17 16 19 21 20 21 20 20 18 17 16 15 15 15 16 17 18 19 20 20 19 17 13 11 10 11 12 11 10 10 11 10 10 12 13 13
11 13 14 16 20 20 19 21 19 20 22 22 22 21 21 19 18 17 16 16 16 16 17 18 19 18 17 15 14 12 11 11 11 11 11 11 11 11 12 11 11 12 12
13 17 17 19 18 18 18 24 23 21 22 22 21 20 20 19 17 16 16 16 16 16 18 18 17 15 14 14 13 11 11 10 10 10 10 11 11 11 11 11 12 11 10
12 13 13 12 12 16 19 22 25 22 19 19 19 19 20 19 16 17 17 17 17 17 17 17 15 14 14 14 13 12 10 10 10 11 11 12 11 11 10 10 10 11 10
9 7 6 8 10 10 13 18 23 20 17 17 18 18 19 18 18 16 16 17 17 17 17 16 14 14 15 14 14 13 11 12 12 12 12 12 12 11 11 10 11 12 11
8 4 3 4 8 12 14 14 20 22 18 17 18 17 17 17 15 15 15 16 17 18 17 16 15 14 15 15 15 14 12 12 11 12 12 13 13 12 12 11 12 13 11
5 5 0 0 0 2 7 10 17 17 15 14 16 15 15 15 15 15 15 15 15 17 17 16 14 14 16 16 15 15 14 13 11 11 12 13 13 13 12 12 13 13 13
6 6 6 3 4 5 7 9 11 12 12 13 13 13 13 14 15 15 14 13 13 15 15 14 14 15 16 14 14 15 15 13 11 13 15 16 15 14 14 14 15 15 15
3 5 6 6 6 6 6 6 7 7 8 9 11 12 14 14 15 14 13 13 11 12 13 13 15 14 15 15 16 15 15 15 15 19 19 17 16 16 15 16 16 16 16

GFSMW_850_spd_099.txt.gz
Wind_Speed
13 16 22 22 26 28 29 28 27 26 26 27 27 26 25 23 20 21 17 18 17 18 18 15 16 16 13 8 9 10 11 13 14 17 18 19 19 21 21 22 23 17 14
18 17 18 23 24 25 26 26 27 29 29 28 28 30 28 28 26 23 24 24 23 22 22 17 13 17 15 12 11 14 14 13 15 19 19 22 21 22 16 14 13 8 11
27 23 22 21 20 24 26 25 27 30 29 26 28 30 30 30 33 30 32 31 29 26 27 25 22 20 17 17 16 17 19 17 20 21 19 12 9 13 18 15 14 15 12
31 26 25 24 23 22 21 23 25 25 29 28 29 31 30 32 31 35 35 32 31 31 29 29 26 24 21 19 22 19 19 22 26 26 26 25 26 26 17 15 16 14 18
25 30 30 26 23 24 26 28 27 28 26 26 27 26 29 28 23 26 30 33 32 31 30 27 24 22 21 19 19 21 21 23 28 28 30 28 27 28 28 26 19 18 23
32 31 29 25 24 24 29 31 31 30 26 28 26 27 27 26 25 25 25 30 34 32 32 29 26 21 17 18 18 27 28 23 29 29 28 27 26 27 25 27 30 30 27
41 37 33 29 24 24 26 30 30 30 29 29 29 27 25 27 27 27 27 25 28 30 29 22 16 18 18 18 22 26 25 25 25 24 24 23 23 26 27 27 28 26 26
32 39 35 32 27 23 22 24 27 28 29 29 28 26 26 28 30 30 27 25 26 24 20 19 15 19 18 18 23 23 24 23 23 23 22 23 23 24 24 24 24 26 23
16 25 26 28 30 27 24 24 25 27 29 27 28 28 28 29 31 32 30 28 25 22 20 22 16 22 18 19 20 23 24 25 24 23 23 24 23 25 26 25 23 25 25
5 8 15 24 26 27 25 24 23 22 23 22 23 22 23 23 23 27 27 25 22 20 20 20 22 23 21 18 19 21 22 24 23 24 24 24 23 24 24 22 21 23 24
2 1 5 12 23 29 25 23 20 19 19 19 19 19 19 20 18 16 17 18 17 17 15 14 13 15 16 17 18 21 23 25 24 23 23 24 24 23 23 19 18 20 24
3 2 1 2 10 16 20 20 20 20 19 18 17 16 16 15 14 14 15 15 15 14 12 13 14 17 22 25 30 30 28 27 25 24 25 24 24 23 21 20 20 21 22
6 6 6 4 6 10 14 19 22 22 21 20 19 17 16 15 15 14 14 13 14 14 14 18 21 24 25 26 24 24 25 26 25 24 24 23 24 23 22 21 21 21 24
5 5 3 3 2 3 7 13 18 20 21 21 20 18 17 16 17 17 17 14 16 19 18 22 26 22 20 21 23 24 24 24 24 23 22 22 23 23 22 23 22 20 20
6 7 7 4 4 6 6 8 12 19 21 21 22 20 19 20 20 20 20 19 18 19 21 18 16 17 19 20 22 23 23 23 23 22 21 21 19 17 18 19 18 17 17
11 12 13 14 14 13 12 11 12 15 20 22 23 21 21 22 21 21 22 20 18 16 14 14 15 16 19 21 22 23 22 22 21 18 17 15 15 15 16 16 13 15 14
13 12 14 17 18 18 15 15 14 14 18 20 21 23 23 24 23 22 19 16 15 13 13 14 16 17 18 21 23 23 21 17 15 14 13 13 14 13 13 12 11 13 13
15 15 15 16 18 20 20 20 20 17 17 20 21 21 21 20 20 19 16 16 15 14 14 15 16 18 19 21 22 21 16 13 11 11 11 12 11 11 12 12 12 13 13
13 15 15 17 20 21 21 21 23 21 17 19 20 20 20 19 18 17 16 15 14 13 14 16 18 19 18 18 16 17 14 12 10 10 11 11 12 12 11 11 11 11 12
10 14 15 17 20 19 18 19 23 23 19 19 20 19 18 18 17 15 15 14 14 15 17 18 18 18 17 15 15 17 13 11 10 11 11 12 12 12 12 11 12 11 9
9 11 12 13 13 14 18 20 20 21 18 16 17 18 17 17 15 16 16 15 16 17 17 17 17 17 15 14 14 16 12 9 10 10 10 11 12 12 12 10 10 11 11
7 8 7 7 8 10 10 15 17 17 17 15 16 18 17 18 19 18 16 16 16 17 17 16 17 17 14 14 15 14 13 12 12 11 11 12 13 13 11 12 10 12 12
6 6 4 4 5 8 8 8 11 14 17 15 14 16 17 18 17 16 16 15 15 15 16 16 17 15 14 14 14 15 14 13 13 12 13 14 14 14 12 13 12 13 12
4 6 3 2 3 1 4 6 7 8 13 14 13 15 16 16 16 16 16 15 13 13 15 16 17 14 14 14 15 16 15 14 14 12 12 14 15 14 14 13 13 14 12
4 6 7 4 2 5 6 7 8 8 10 11 12 13 14 14 15 15 14 14 13 14 14 14 14 14 14 13 14 15 16 15 14 15 16 16 16 15 14 14 15 15 15
2 4 6 6 7 5 4 5 6 8 9 10 11 12 13 13 13 14 15 15 13 15 14 13 13 13 14 13 15 15 15 15 15 20 20 18 16 16 15 15 15 15 16

GFSMW_850_spd_102.txt.gz
Wind_Speed
14 25 26 29 35 38 36 34 36 30 30 32 30 28 26 27 24 21 21 18 16 14 13 13 12 13 15 14 13 10 9 9 8 9 10 10 15 17 17 17 15 14 13
9 13 18 27 35 36 40 39 37 37 37 31 24 26 31 33 25 22 22 23 22 19 17 17 16 16 16 17 16 13 11 12 10 10 13 11 17 19 7 13 15 10 10
12 15 16 21 25 27 30 31 30 29 34 33 32 32 32 30 25 27 27 26 25 25 22 22 21 18 17 19 17 13 11 14 13 14 17 13 10 16 19 17 16 15 14
17 17 21 21 20 20 22 24 27 27 27 29 30 30 26 26 28 27 24 27 27 27 27 28 26 24 21 21 18 14 14 16 14 18 18 20 22 20 14 15 19 18 18
25 19 23 23 21 19 19 21 24 25 25 27 25 26 25 25 26 24 24 25 28 29 29 29 27 26 25 23 19 17 15 16 17 20 21 24 25 21 23 28 21 19 19
27 22 20 25 24 22 21 22 24 25 24 21 23 23 23 21 19 21 21 19 20 28 30 29 29 25 23 21 14 12 15 21 21 22 21 21 20 22 18 20 21 22 21
28 26 26 26 25 24 20 23 25 25 24 23 23 22 22 21 21 20 22 21 19 21 26 28 26 24 19 17 17 13 16 19 19 20 19 19 21 21 20 21 23 24 25
19 26 30 30 26 23 20 21 24 24 23 23 23 23 23 23 22 21 22 22 20 19 20 20 16 15 13 13 14 12 14 18 19 20 21 19 20 21 21 21 20 20 23
13 15 20 30 29 26 22 19 20 22 22 23 22 22 22 22 21 21 22 24 22 21 19 14 13 14 15 17 15 17 17 18 18 19 19 19 19 21 21 20 20 21 20
3 1 7 16 20 23 24 22 20 21 21 21 19 18 18 18 18 19 19 20 21 20 18 17 15 16 16 16 17 17 17 16 18 20 21 21 20 19 20 21 20 18 21
4 6 4 5 18 21 21 22 21 19 16 15 15 15 14 14 14 13 13 14 14 17 18 15 14 13 10 11 13 14 16 19 23 22 22 20 21 20 19 19 19 17 19
6 7 7 4 1 7 18 17 17 16 14 12 12 12 12 11 11 10 10 10 11 14 13 13 12 11 11 14 16 19 21 21 21 20 21 21 22 21 20 19 18 17 19
5 5 5 4 4 3 5 9 11 12 12 12 13 13 13 12 11 11 11 13 13 13 13 11 11 13 14 15 19 19 19 20 21 22 22 22 21 21 21 20 19 18 18
8 7 6 6 5 3 2 5 9 12 13 14 15 14 13 13 12 13 14 14 14 13 11 12 15 16 16 19 24 21 20 21 21 21 21 20 21 20 21 20 20 20 19
3 3 4 1 2 1 1 1 3 7 12 15 16 15 14 15 15 15 16 16 15 12 13 14 13 12 16 17 17 18 19 20 21 21 20 19 19 16 15 15 17 17 16
10 9 10 10 10 8 7 7 6 7 9 13 16 16 17 17 17 17 18 18 16 13 14 11 10 13 15 16 18 19 20 21 21 19 18 17 13 13 14 14 14 13 11
16 11 11 12 13 15 14 10 9 10 10 12 16 19 20 19 19 19 19 19 17 14 11 10 12 13 14 16 19 21 21 20 18 17 15 13 11 12 13 12 11 9 10
12 8 12 13 14 14 14 16 17 16 14 12 16 20 21 20 20 20 20 18 16 12 11 11 12 13 15 17 19 21 21 18 14 12 11 10 10 11 10 9 9 9 10
11 13 15 17 20 19 18 19 19 18 20 17 16 20 22 22 22 21 18 17 14 12 11 11 12 14 15 16 18 19 19 16 11 10 10 10 10 10 10 9 8 8 10
8 11 14 18 20 19 20 19 19 21 22 19 16 18 19 19 18 16 16 15 14 13 12 12 13 15 15 17 18 17 16 16 10 9 10 10 11 11 11 9 10 10 9
9 12 14 15 16 16 17 18 21 19 18 17 15 17 18 17 16 16 16 14 14 13 12 12 14 15 16 17 13 14 12 14 10 9 9 9 10 10 10 9 9 9 10
8 10 12 12 12 12 12 12 14 15 16 17 15 17 18 17 18 17 16 16 14 12 12 12 13 14 15 15 11 12 13 12 11 10 9 10 11 11 10 10 9 9 11
7 8 8 8 9 10 9 7 8 12 13 15 14 15 16 16 17 17 16 15 13 12 12 11 11 13 13 13 11 12 13 15 12 10 11 12 12 11 11 10 10 11 10
4 5 5 4 5 4 4 5 5 8 11 15 13 13 14 16 16 16 16 15 13 12 12 13 13 12 12 13 11 12 13 14 14 12 11 12 13 12 12 11 10 11 10
3 4 4 3 2 6 5 6 9 11 13 12 12 12 13 14 15 14 14 13 13 13 14 12 11 12 12 10 12 12 13 13 13 15 15 14 13 11 11 10 11 11 11
2 1 2 3 4 4 4 5 6 6 7 9 10 11 12 13 13 14 14 14 13 14 15 14 12 12 11 12 11 12 12 12 14 18 17 16 14 13 12 12 12 12 13

GFSMW_850_spd_105.txt.gz
Wind_Speed
26 25 32 30 29 36 27 30 41 26 20 22 25 24 23 22 21 20 21 22 19 17 17 14 12 11 9 10 13 13 13 10 8 6 5 7 11 8 10 11 11 16 10
21 29 27 28 36 36 27 36 34 38 37 27 21 22 23 23 23 23 25 25 23 21 19 16 15 14 12 12 15 16 14 13 9 5 9 9 11 9 7 12 15 9 10
13 17 30 34 33 36 37 40 33 29 29 27 26 27 26 33 29 29 28 25 27 27 22 20 20 20 18 17 16 18 18 10 4 8 9 7 5 12 11 15 15 11 7
11 12 15 23 31 34 35 37 35 34 30 33 41 36 31 37 35 31 23 30 24 26 20 26 25 23 23 22 18 19 17 11 10 18 13 13 16 13 10 11 12 16 15
17 15 14 17 18 22 26 28 32 33 35 38 37 39 39 33 28 24 26 29 22 27 26 26 25 26 29 25 23 24 19 11 18 18 18 19 18 18 16 16 15 15 13
25 21 18 17 21 21 22 23 25 26 30 31 28 27 29 29 27 24 23 26 24 22 22 25 26 25 24 25 29 25 22 13 20 20 20 20 17 18 14 14 15 16 18
24 23 24 22 22 21 19 20 20 21 24 23 24 23 25 22 22 21 21 20 18 17 15 15 17 20 21 18 23 20 15 14 17 18 15 14 15 16 16 16 15 15 15
21 24 25 25 24 23 22 21 19 20 21 20 22 21 20 18 18 19 17 17 16 15 14 14 13 14 13 13 16 17 14 14 15 14 13 14 14 15 16 17 16 15 13
12 18 22 25 27 26 24 21 18 18 19 20 20 20 19 18 18 18 16 15 15 16 15 15 13 13 15 14 15 14 13 13 13 14 14 13 15 17 18 17 17 17 9
6 8 18 25 32 33 28 24 20 18 17 18 17 17 17 17 17 17 17 17 18 18 18 17 16 17 15 16 16 15 16 15 14 13 13 17 19 19 19 18 18 18 17
7 10 9 11 17 26 27 26 24 20 17 16 16 16 15 15 15 15 16 16 16 17 18 18 19 16 16 15 15 13 12 13 14 18 20 18 18 18 18 18 18 17 18
9 11 13 13 12 17 19 22 22 20 19 16 13 13 12 13 13 12 13 12 11 12 16 20 18 16 15 14 12 12 13 15 17 18 18 17 17 17 17 17 17 17 16
8 10 10 13 12 11 13 16 18 19 18 17 15 13 11 11 11 11 11 11 13 15 19 18 17 14 12 12 13 13 13 13 14 17 16 17 17 17 18 18 18 17 17
11 13 13 13 13 10 8 9 11 13 13 13 13 12 12 12 12 13 13 14 16 17 18 17 16 14 13 14 14 14 13 14 16 18 18 18 18 18 18 18 19 18 17
12 9 7 6 8 8 7 6 5 6 10 12 13 14 14 14 14 15 16 17 17 17 17 15 13 13 13 12 13 11 13 15 17 17 17 17 17 18 16 15 14 15 16
11 14 8 3 1 2 1 1 2 4 6 8 11 14 15 17 18 17 17 19 19 18 14 12 13 13 12 10 10 12 15 16 17 17 17 16 14 12 10 11 12 13 13
11 7 7 7 6 6 7 7 7 8 7 9 12 15 16 19 20 20 19 19 19 16 13 14 12 12 9 9 12 14 16 17 18 17 15 12 9 8 10 11 11 10 8
8 6 6 8 9 9 9 9 13 14 12 12 12 15 18 20 20 19 19 20 19 17 15 13 12 10 9 12 13 16 16 17 17 13 9 8 8 8 9 9 10 9 9
5 6 9 12 13 13 14 14 15 15 17 17 16 16 18 20 21 20 20 20 18 16 15 13 11 10 11 13 14 15 15 15 15 9 8 8 8 9 9 9 9 9 9
5 6 8 11 13 16 18 18 18 19 20 20 19 17 16 19 21 20 20 18 17 17 15 13 11 11 11 12 14 14 12 12 13 9 8 8 9 10 10 10 10 9 10
7 9 10 12 13 14 16 17 19 21 20 17 18 18 17 19 19 19 19 19 19 17 15 12 10 9 10 11 14 16 12 12 11 10 8 9 10 10 11 11 10 10 10
8 10 10 11 12 12 12 12 14 15 17 17 18 18 18 19 19 19 19 19 17 15 13 11 9 7 8 12 13 13 11 10 10 9 8 8 9 10 10 11 9 10 9
8 8 9 8 9 11 10 9 9 10 12 15 18 17 17 18 19 19 19 19 17 15 13 11 8 7 10 8 11 10 10 11 10 9 9 10 11 11 11 11 10 10 9
7 7 7 6 6 7 5 4 5 7 11 15 16 15 15 16 17 18 18 17 16 14 13 11 10 10 9 8 10 10 10 11 12 11 11 11 10 9 10 11 11 10 9
6 6 5 5 5 6 7 3 2 6 11 15 16 15 13 14 15 17 16 15 14 13 12 13 12 11 9 8 8 10 10 11 12 14 14 13 11 10 9 10 10 11 10
5 6 5 5 5 5 5 5 5 6 7 10 12 12 12 13 15 15 16 16 14 13 12 11 11 12 12 10 9 10 9 10 13 15 15 14 13 12 11 10 11 11 10

GFSMW_850_spd_108.txt.gz
Wind_Speed
25 22 26 30 33 33 30 29 25 21 23 22 20 19 19 18 17 19 19 20 21 20 20 19 18 17 13 11 11 13 13 13 12 9 6 7 10 12 11 10 8 12 9
24 18 19 26 31 32 35 29 26 21 20 15 13 16 17 15 14 14 17 18 19 20 22 20 20 18 16 15 14 15 15 15 12 7 5 7 10 11 10 11 12 13 10
27 32 30 33 19 24 33 37 31 28 26 23 15 14 16 11 13 17 18 18 21 24 27 25 24 23 22 20 19 16 16 15 12 9 12 5 7 6 14 13 14 13 11
20 31 33 33 29 31 26 27 30 22 26 35 27 22 20 17 22 21 23 22 19 22 23 25 28 28 25 24 24 22 20 21 16 12 19 18 17 9 9 11 11 12 14
19 22 26 30 34 31 39 42 35 36 30 25 32 35 33 30 33 32 29 32 28 23 23 18 30 32 28 30 27 24 24 25 20 18 18 19 20 18 15 16 11 14 14
17 16 15 17 23 31 39 40 39 39 36 34 33 33 34 41 35 29 29 36 29 25 28 31 33 35 30 23 22 24 27 27 24 14 16 22 16 12 11 12 12 12 13
17 17 20 20 19 23 31 35 34 35 36 35 36 38 32 35 27 32 27 34 29 30 28 29 28 22 21 19 19 19 28 28 31 25 20 19 19 18 17 16 15 12 13
17 19 16 17 19 19 22 23 23 25 28 29 30 30 28 29 27 29 31 31 31 28 24 23 21 17 16 15 12 18 22 19 24 20 19 17 17 17 16 15 13 12 12
19 20 15 19 22 23 24 24 24 23 24 26 27 27 24 24 24 23 25 25 24 23 22 20 19 17 15 15 19 20 22 20 18 18 17 17 17 15 15 17 18 16 10
4 18 24 26 26 27 26 27 26 22 20 21 23 24 24 26 26 24 22 21 22 22 22 20 19 17 17 20 20 20 20 17 17 18 17 15 15 17 18 19 18 18 18
4 5 14 20 23 28 29 28 26 22 19 18 19 19 19 20 20 20 20 21 22 22 21 20 19 19 21 19 19 18 17 17 17 15 15 17 19 18 18 19 18 18 18
5 6 4 6 10 17 23 27 24 20 19 18 18 18 17 17 18 18 18 18 19 19 19 19 19 20 20 19 18 17 16 14 14 16 17 17 18 18 19 20 19 19 19
7 8 10 9 6 8 15 21 22 21 21 20 18 17 16 16 15 15 16 17 18 18 19 20 22 22 19 18 17 15 14 15 16 16 16 18 17 18 19 19 19 19 20
11 11 11 11 11 9 8 11 15 17 18 17 17 16 16 14 14 14 15 16 16 16 20 21 21 19 18 16 14 14 15 16 18 17 16 16 17 17 18 18 18 19 20
12 9 9 10 11 11 9 8 10 13 15 15 16 16 15 15 16 16 16 17 17 19 20 21 20 19 17 16 15 14 14 13 14 15 16 18 19 20 19 18 16 16 16
14 9 6 5 5 6 5 6 7 8 11 14 15 16 17 17 17 18 19 20 22 22 22 22 20 17 17 14 14 13 12 12 14 17 19 20 20 18 16 12 11 13 14
12 7 4 1 3 4 5 5 6 7 7 9 12 15 17 18 19 20 20 20 22 22 22 19 16 15 15 13 13 12 12 14 16 16 17 18 16 13 12 10 11 11 12
8 7 4 3 2 3 5 7 10 11 11 12 13 15 17 19 20 21 22 21 22 21 20 18 16 16 15 14 13 13 12 14 14 14 14 13 12 11 10 10 10 10 10
5 5 5 6 8 10 9 8 10 12 14 16 17 17 20 21 23 24 24 24 24 24 22 20 18 17 16 14 13 12 11 13 13 13 12 11 11 10 10 10 11 10 9
8 7 8 10 11 13 13 14 14 16 16 18 21 22 20 20 23 25 25 24 25 21 20 21 20 17 14 13 10 10 11 12 12 12 11 10 11 10 10 11 11 10 10
10 9 7 9 11 13 15 16 17 17 18 19 19 20 21 22 23 22 23 23 22 23 23 21 18 15 13 11 9 10 11 11 11 11 10 10 11 11 11 11 11 11 10
8 8 7 8 9 11 12 14 16 16 17 18 19 19 22 22 21 23 22 23 24 24 22 19 17 15 11 10 10 9 9 9 10 9 9 9 9 9 11 11 12 11 10
9 9 9 8 8 9 10 11 12 12 14 15 18 20 22 22 22 22 22 23 23 22 20 19 17 13 12 10 8 8 9 9 9 10 10 10 10 10 11 11 10 10 9
8 8 9 9 9 9 9 8 8 8 10 12 16 19 20 20 20 20 21 22 23 22 22 20 16 15 12 11 10 8 9 10 11 11 11 12 11 9 9 11 11 10 9
8 8 8 8 8 7 8 7 5 4 6 10 14 17 17 18 18 20 21 22 21 19 18 17 15 13 12 12 11 10 9 9 12 11 12 13 11 10 10 10 11 11 10
7 7 8 9 6 5 5 5 4 3 2 7 12 14 16 18 18 19 20 20 20 19 18 15 12 12 13 13 13 12 10 10 11 12 13 13 13 13 12 12 12 12 11

GFSMW_850_spd_111.txt.gz
Wind_Speed
25 22 21 24 26 30 22 34 35 31 29 27 27 24 24 24 20 19 15 15 15 14 16 13 11 12 10 10 10 9 9 10 11 9 9 9 8 11 8 11 7 8 11
24 24 20 21 33 29 28 32 33 33 29 26 25 25 22 19 16 15 18 19 19 19 14 15 14 13 13 13 12 12 9 11 12 11 9 5 7 14 11 10 9 10 13
28 17 14 18 25 24 21 13 16 24 24 23 23 22 21 18 17 14 13 15 16 17 20 18 17 16 15 15 18 16 13 14 14 15 11 6 6 5 8 12 12 13 12
26 24 21 26 25 20 11 21 18 16 18 20 23 21 24 21 13 11 9 11 11 12 13 17 18 19 20 20 19 20 22 18 18 16 19 16 16 6 6 7 11 13 14
21 33 34 32 36 27 20 34 38 25 21 22 21 18 18 17 16 13 13 13 16 13 16 17 20 21 22 26 25 28 28 26 25 27 25 19 20 17 16 16 11 14 15
24 24 33 28 28 28 24 27 38 32 29 24 23 22 24 27 23 27 28 21 24 26 25 26 23 22 24 21 29 35 30 30 27 28 27 21 13 12 13 13 14 15 14
20 22 24 26 34 36 26 34 37 36 34 30 26 31 24 25 25 22 38 26 36 44 35 32 28 29 24 28 30 32 33 25 23 27 29 23 19 18 18 18 19 20 17
16 19 20 22 22 34 36 43 41 40 38 37 32 26 32 34 28 17 27 39 38 29 43 32 29 28 29 28 24 25 22 19 22 26 30 26 22 19 18 17 16 16 14
9 14 17 17 17 19 27 43 47 36 32 34 37 38 36 35 41 34 35 31 34 33 35 33 32 29 28 20 18 17 15 20 25 23 22 20 19 17 18 17 17 16 12
4 13 12 16 17 15 16 22 22 24 26 27 29 29 28 28 26 28 29 32 39 35 32 29 27 26 22 20 17 20 22 22 22 19 18 17 18 18 17 18 18 18 19
6 5 9 12 16 18 20 20 23 24 23 22 24 26 26 26 27 27 26 28 28 28 29 29 27 25 22 20 21 21 21 21 21 18 18 18 17 17 18 18 18 18 20
9 8 6 4 8 13 20 18 21 23 22 21 22 23 25 27 28 28 27 26 26 27 27 26 24 23 22 22 24 21 20 20 19 17 16 16 18 18 18 19 19 19 19
13 13 11 8 2 8 14 18 19 18 21 21 20 22 23 22 22 22 21 22 23 23 23 23 22 23 23 24 22 21 19 17 15 15 17 17 17 17 18 19 18 19 18
14 13 12 10 8 6 9 14 18 23 22 20 21 20 19 19 19 18 18 18 19 19 20 20 21 21 24 23 20 18 17 15 14 15 16 17 17 18 20 20 20 20 19
16 14 11 11 11 10 8 10 12 14 15 17 17 17 17 17 17 18 17 17 17 17 17 20 21 23 22 19 18 15 14 13 13 14 15 16 18 19 20 20 18 18 16
15 13 11 10 9 8 8 7 7 10 12 14 15 15 15 16 16 17 17 17 18 19 21 22 23 22 19 17 15 14 14 13 14 15 15 17 18 19 19 18 16 17 15
11 10 9 7 6 5 3 3 3 4 5 7 9 11 13 15 16 17 17 18 19 20 22 21 19 19 18 16 15 14 14 14 15 14 15 17 17 18 18 15 13 13 13
9 10 9 7 6 6 5 4 3 3 5 6 8 10 13 15 16 17 17 18 20 20 21 21 20 19 17 16 16 14 14 14 13 13 14 15 17 16 15 14 13 14 11
8 7 6 7 9 10 9 9 8 8 8 10 11 12 14 15 16 17 18 20 20 21 21 20 19 19 17 16 15 14 13 13 13 13 14 16 16 14 12 12 14 13 11
9 9 8 7 5 8 10 11 13 14 14 15 15 17 18 17 16 18 19 21 21 20 21 20 20 19 18 17 15 12 12 12 13 14 15 16 14 12 12 12 14 13 11
10 10 12 10 10 10 10 10 11 13 15 18 20 20 20 20 20 20 22 22 21 22 22 21 20 19 19 18 15 12 11 12 14 14 16 14 12 13 12 12 13 12 12
7 6 7 11 11 11 11 12 12 14 15 17 20 21 22 23 25 22 22 24 23 23 22 22 23 22 21 18 15 12 10 10 11 12 13 11 11 14 12 11 12 11 11
9 9 9 9 9 11 11 11 12 12 13 14 16 19 22 24 24 25 25 24 24 24 25 25 24 23 21 18 16 13 11 10 11 12 12 12 12 11 10 10 11 11 10
7 8 8 9 10 10 10 10 11 10 9 10 11 14 17 20 21 23 23 23 25 26 25 25 25 23 19 18 18 16 14 14 14 14 14 13 12 11 10 10 11 11 10
8 7 8 9 10 11 10 9 9 6 5 5 8 10 14 17 19 20 20 22 23 24 26 25 24 22 21 20 17 17 16 14 14 13 14 14 12 11 11 10 10 11 10
9 8 9 9 12 12 10 9 7 6 4 3 4 8 12 14 16 17 18 21 21 21 23 22 20 19 18 18 16 16 16 16 15 15 14 13 12 12 12 12 12 12 11

GFSMW_850_spd_114.txt.gz
Wind_Speed
16 19 19 13 12 20 20 22 18 29 33 34 35 38 34 30 29 28 25 25 22 21 21 17 13 10 9 8 7 8 8 11 11 13 12 12 11 11 11 8 11 11 11
25 22 14 12 14 17 19 19 26 35 40 37 30 32 31 27 24 26 22 20 19 18 19 19 16 13 12 11 11 12 11 10 12 14 11 8 14 13 12 12 9 10 13
29 23 15 9 13 17 18 6 11 35 36 38 39 33 31 29 26 26 25 25 24 21 18 17 19 18 17 17 18 17 14 13 13 13 13 9 8 6 9 8 8 9 9
29 23 20 10 10 9 15 5 7 29 31 32 35 33 33 31 25 25 24 23 22 19 19 17 15 14 14 15 14 18 15 15 16 14 20 21 5 3 5 8 6 8 12
30 29 17 15 10 5 8 13 5 27 14 32 31 31 28 26 26 23 22 23 21 19 18 13 12 11 12 15 20 22 13 16 17 12 21 24 24 20 15 13 10 10 8
27 22 16 13 16 14 14 17 16 27 14 13 22 24 25 22 20 15 14 16 16 14 15 14 9 10 13 17 19 18 21 17 18 18 33 33 26 21 13 15 14 12 11
19 26 24 21 25 27 25 22 23 38 27 14 19 20 19 23 21 22 22 24 23 25 19 21 20 17 20 22 24 24 23 22 26 31 26 34 30 23 17 16 17 16 17
12 16 21 29 25 25 32 26 27 38 43 26 19 19 24 23 24 25 18 19 25 26 20 23 27 21 25 23 26 26 27 31 29 23 23 30 28 25 18 16 16 16 14
10 10 12 15 16 23 32 32 30 34 37 37 33 25 23 29 29 21 17 17 17 26 32 37 34 27 31 30 31 32 30 25 20 19 21 29 27 22 21 18 16 16 13
11 10 13 8 8 11 18 28 28 41 36 32 34 34 32 31 28 24 28 26 27 24 26 22 26 30 31 34 34 28 28 21 19 23 22 20 20 18 17 15 16 17 16
9 6 4 11 13 12 11 13 19 26 34 29 30 30 26 26 28 33 28 37 37 37 36 30 31 33 37 29 26 25 22 20 22 20 19 19 18 16 16 16 17 18 18
16 14 7 3 10 14 14 14 17 16 16 19 22 25 23 23 23 19 21 23 22 22 27 30 31 24 24 21 20 18 20 21 21 19 20 17 16 15 16 18 18 18 19
19 17 14 11 5 4 11 14 18 19 19 19 15 16 21 22 21 23 21 22 22 23 26 25 24 22 22 22 21 20 23 21 20 18 16 16 15 17 18 19 20 20 20
21 20 19 18 12 9 8 5 12 16 16 12 11 10 14 18 22 22 22 23 23 23 23 23 22 20 19 20 22 24 21 20 17 15 15 15 16 18 19 19 19 20 21
22 21 19 19 17 15 9 5 7 11 15 17 21 13 13 15 18 17 17 18 18 18 18 18 17 19 21 22 24 21 19 18 16 15 15 16 16 17 19 20 21 21 21
21 18 16 14 15 15 14 10 5 3 8 13 17 14 19 24 19 16 15 15 15 15 16 17 18 20 19 20 21 17 16 15 15 15 15 15 15 16 19 20 20 18 18
17 15 15 14 13 12 9 9 8 5 5 5 8 13 16 16 15 14 15 14 15 16 16 18 19 19 21 21 17 17 15 15 14 13 13 14 14 16 17 16 16 14 13
13 13 12 11 11 9 8 7 6 4 2 1 5 8 10 11 12 13 13 14 14 16 17 20 21 21 20 19 18 16 15 15 14 13 13 14 15 15 16 15 14 13 12
11 12 10 9 8 7 7 7 7 5 4 5 6 7 8 10 11 13 13 14 16 17 18 20 21 20 21 19 16 16 15 15 14 13 13 14 14 14 15 13 13 13 11
12 12 12 12 12 11 11 9 6 6 8 10 11 13 13 14 14 14 15 16 17 18 20 21 21 21 20 18 17 17 16 16 14 13 12 14 14 12 11 11 12 13 11
9 11 10 10 12 14 13 11 10 10 10 12 15 17 18 18 17 17 18 19 20 21 21 22 22 21 19 18 18 18 16 14 13 12 12 12 11 10 10 10 11 11 10
8 7 9 9 8 11 13 13 13 13 14 14 15 16 19 19 20 21 21 21 22 22 23 24 24 23 22 22 21 19 17 15 13 11 10 9 8 8 10 10 10 9 11
10 7 7 8 9 10 12 13 14 15 14 14 13 13 15 18 21 22 22 23 23 24 24 24 25 24 24 23 21 20 18 16 14 11 11 8 7 8 9 8 9 9 11
9 7 5 7 8 10 11 12 13 13 13 11 10 10 13 15 19 19 20 22 23 24 25 26 26 26 25 23 23 21 20 17 13 12 11 11 10 9 9 10 10 10 10
9 7 7 8 9 10 11 12 12 12 11 10 9 8 9 12 15 16 17 19 21 21 22 24 25 25 23 21 20 19 18 15 12 13 14 13 11 9 10 11 10 10 11
10 7 7 8 10 12 14 13 11 9 6 6 7 8 8 11 15 17 16 18 21 21 21 22 20 21 20 19 18 17 17 17 18 18 18 15 12 11 11 12 12 12 12

GFSMW_850_spd_117.txt.gz
Wind_Speed
16 14 25 18 12 21 25 38 26 29 44 41 43 43 40 37 38 40 39 36 34 32 29 25 23 20 17 16 15 14 13 13 12 10 12 15 15 14 13 10 12 12 13
18 13 20 16 12 18 21 20 35 27 38 46 45 43 41 39 39 38 38 35 31 31 29 25 21 18 16 15 15 14 14 13 15 13 15 8 13 14 13 12 12 11 10
26 21 22 15 15 19 15 13 28 34 51 48 43 42 39 35 34 32 36 33 31 30 29 26 22 19 15 14 14 14 13 14 12 14 12 3 2 4 14 14 11 10 9
23 23 21 17 17 17 20 11 25 25 40 36 40 38 40 38 38 34 32 32 28 26 28 26 24 21 19 17 15 15 16 15 13 13 11 11 4 2 5 11 12 11 10
24 25 19 15 12 11 11 17 19 43 44 42 33 30 35 37 36 36 34 33 30 27 27 25 24 22 20 17 14 13 13 13 14 13 11 11 15 16 16 13 15 15 9
31 28 23 20 18 16 10 15 13 37 44 43 38 35 35 32 31 35 36 35 33 30 28 26 24 22 20 17 16 15 12 8 14 17 18 16 22 21 18 16 14 15 12
31 21 21 23 19 11 13 16 17 30 23 33 36 34 33 32 32 33 33 32 31 30 28 24 21 22 20 14 16 16 14 11 20 25 21 19 24 27 21 19 15 14 13
7 21 23 17 17 10 14 16 17 22 20 18 38 34 31 31 31 29 25 24 23 21 18 18 19 21 21 20 21 21 24 27 25 26 26 26 28 25 28 24 17 16 13
3 4 7 14 14 13 21 23 15 16 30 33 24 31 31 23 25 24 23 22 20 23 24 23 25 26 24 28 27 23 22 18 20 26 23 22 17 20 22 21 20 16 13
18 12 2 1 7 14 19 21 20 21 32 34 32 20 19 35 30 25 25 23 19 21 21 22 26 25 23 24 27 23 21 20 24 28 25 17 19 22 18 18 17 16 16
17 11 5 2 1 7 7 11 19 18 19 37 33 28 31 26 26 28 35 32 29 25 22 17 18 15 21 22 26 29 25 23 26 23 17 18 17 17 16 15 15 15 15
19 18 13 1 5 3 4 4 9 18 20 27 31 34 32 30 31 33 33 37 29 32 26 28 28 31 32 31 36 33 21 25 27 17 19 17 18 15 14 15 15 15 16
22 24 23 17 7 2 5 7 7 10 11 14 22 21 13 14 16 20 19 21 27 31 31 35 36 40 40 31 22 17 17 16 17 20 19 17 15 15 15 15 16 17 18
25 24 23 22 17 9 5 3 5 9 12 11 10 11 11 16 17 16 15 17 17 22 24 21 21 21 20 17 17 17 19 20 20 18 16 15 15 15 15 16 16 16 17
24 22 21 20 20 17 11 6 1 6 7 6 11 7 10 6 4 9 14 17 17 16 16 16 17 16 16 17 18 20 23 21 19 18 17 17 15 15 15 16 16 17 19
19 18 17 17 17 16 16 13 9 3 4 10 10 8 11 16 13 9 13 13 13 13 13 14 14 15 17 16 16 17 18 18 17 18 16 15 15 14 15 16 18 19 19
14 16 16 14 14 14 13 12 11 9 6 2 4 9 9 11 16 19 15 14 13 13 14 14 14 15 16 17 17 17 18 18 17 16 15 14 14 15 15 16 17 17 16
12 13 12 10 10 9 7 8 9 7 6 4 1 2 5 8 11 11 12 12 12 13 14 14 14 15 17 18 19 19 18 18 17 15 16 15 15 14 14 15 14 14 14
10 10 10 9 9 9 8 6 4 3 3 3 4 4 4 6 8 10 12 14 14 14 14 15 16 18 18 19 19 18 19 18 17 17 16 14 14 14 15 14 13 14 12
10 10 10 10 10 11 11 8 5 4 4 5 7 8 8 9 11 12 12 14 15 15 15 16 18 19 20 19 19 19 18 18 17 16 15 15 14 15 14 13 13 12 9
12 11 10 11 9 9 10 11 10 9 8 8 10 12 15 14 15 16 17 17 17 18 18 18 19 19 20 18 18 19 19 18 17 17 16 15 13 12 11 10 10 9 9
11 10 9 9 10 10 10 10 10 11 12 13 13 13 15 18 18 18 19 20 20 20 20 20 20 21 21 21 21 20 20 20 19 17 15 13 11 9 8 8 10 10 9
11 11 7 6 8 10 12 13 13 14 14 13 13 13 14 15 17 19 20 21 21 22 23 23 23 24 22 22 23 23 22 22 21 18 15 13 11 9 8 7 8 9 8
10 11 9 9 9 9 12 14 14 15 15 15 12 11 11 11 13 16 18 20 22 23 23 24 25 24 24 24 25 25 25 24 22 20 17 14 13 11 9 8 9 10 10
11 12 9 12 11 13 15 18 17 15 14 12 11 10 9 11 11 14 15 17 20 21 22 23 24 25 25 23 26 25 24 25 23 19 18 15 13 12 12 9 10 11 11
11 12 11 11 11 14 17 18 18 16 12 9 11 10 9 10 12 14 14 14 16 21 23 23 24 23 24 23 21 22 23 22 23 23 19 16 14 14 14 11 10 11 11

GFSMW_850_spd_120.txt.gz
Wind_Speed
20 28 22 19 25 18 17 16 21 33 38 40 38 41 47 43 41 43 40 38 35 33 32 32 32 29 26 24 21 20 18 17 15 14 13 12 13 11 10 11 12 11 10
15 23 25 27 27 21 16 15 26 22 35 39 38 37 50 42 45 40 36 37 35 33 32 32 30 28 25 24 23 22 20 18 15 15 11 9 14 15 15 15 14 10 10
30 29 27 26 26 20 13 22 27 29 35 42 42 38 32 33 40 38 37 38 35 32 32 30 30 28 26 25 23 22 19 19 19 17 8 5 5 8 16 17 15 8 9
27 27 24 18 11 13 17 17 20 36 29 48 44 44 42 42 49 45 40 38 35 34 33 32 30 28 25 23 23 21 20 19 19 14 13 12 4 5 5 13 14 10 12
28 23 20 14 12 11 22 20 20 36 33 48 48 45 43 41 43 37 39 38 37 34 34 33 31 29 27 24 22 21 22 20 18 16 12 7 11 14 16 11 15 14 16
17 19 17 13 11 15 13 14 23 28 35 41 43 43 40 38 34 38 40 40 38 37 37 34 32 29 29 27 24 22 21 21 21 16 13 12 12 20 21 20 21 17 16
11 17 20 17 15 13 5 5 14 17 37 40 49 43 38 38 34 36 39 39 40 37 37 37 36 33 30 27 23 22 22 21 19 18 18 21 26 27 28 21 17 18 17
15 14 11 10 12 8 3 3 3 6 40 42 40 40 39 39 34 30 36 37 39 38 37 38 34 33 28 24 18 20 20 19 18 21 21 22 21 29 28 32 24 18 15
18 14 4 2 9 3 4 6 1 2 7 26 32 30 36 34 31 27 29 29 32 32 30 31 29 29 28 28 23 21 22 26 24 21 18 18 19 23 26 27 27 20 16
26 19 11 5 8 9 9 10 10 3 6 12 34 33 28 27 31 31 32 32 31 29 30 28 29 26 28 29 27 26 28 28 23 21 22 20 14 21 19 22 19 17 16
24 22 16 11 9 2 2 5 10 15 12 16 20 32 29 31 29 29 29 33 27 29 29 30 28 27 29 30 31 28 27 25 22 19 22 24 22 20 21 18 17 16 15
27 23 20 13 11 13 8 6 1 9 11 20 23 22 23 23 28 29 26 26 28 29 30 28 24 24 25 24 20 19 24 29 27 18 21 23 20 21 19 17 16 16 15
27 28 25 20 19 12 8 8 6 2 8 9 21 27 30 29 25 31 37 38 35 40 39 36 35 33 29 27 26 25 30 31 36 31 28 27 21 21 19 17 16 16 16
24 25 27 25 20 14 6 5 4 3 2 4 17 18 21 12 5 13 10 12 17 25 40 43 38 35 30 33 35 36 36 27 20 18 21 23 21 20 19 17 17 16 16
23 23 23 22 21 19 16 10 4 1 2 2 7 12 10 4 2 8 10 11 14 14 15 18 26 28 28 30 28 24 18 21 20 22 21 21 19 18 17 16 15 15 16
17 17 17 18 19 19 18 15 14 9 4 4 6 3 6 6 8 12 5 4 8 12 13 15 17 19 19 15 15 16 19 22 24 23 22 21 19 17 16 16 15 16 17
15 15 14 13 14 15 14 13 13 13 11 7 1 4 3 4 4 7 15 10 14 11 9 10 11 11 11 14 15 15 16 18 19 20 18 18 18 17 17 16 15 16 18
9 10 12 12 11 11 8 8 9 9 8 7 6 3 3 5 6 9 12 13 15 15 12 11 10 10 11 13 15 16 18 17 17 18 17 18 18 18 15 14 15 16 17
8 8 8 9 10 10 9 7 6 6 5 4 3 3 3 4 5 7 8 10 12 14 13 12 12 12 13 14 15 16 18 18 20 20 19 20 18 13 14 15 16 16 16
8 8 8 7 8 8 9 9 8 8 8 8 9 9 9 9 9 10 11 11 12 13 14 15 15 15 16 17 17 18 19 20 20 19 21 18 16 18 15 16 16 15 14
8 8 7 6 7 8 8 9 9 10 10 10 12 13 14 15 15 15 16 16 16 17 17 17 17 18 19 20 20 19 20 20 20 20 20 19 19 18 16 16 13 13 13
6 8 8 7 6 7 7 8 9 10 11 12 13 14 14 16 17 18 18 18 18 19 19 19 20 20 20 21 20 20 21 21 21 21 20 19 19 17 16 13 12 12 11
7 8 8 6 7 8 10 11 13 13 13 12 12 12 12 12 14 16 16 17 18 19 20 22 22 20 21 22 22 22 22 23 22 21 21 20 19 18 15 12 11 11 11
9 8 9 6 7 9 11 14 16 17 16 13 11 11 11 10 11 11 13 16 17 18 19 22 23 22 23 24 24 25 26 25 24 24 25 22 19 18 16 15 14 11 11
13 11 10 9 8 10 12 14 18 19 15 14 12 13 12 10 9 9 11 13 14 18 20 20 21 23 26 25 26 28 29 27 26 26 25 24 23 21 19 17 15 13 13
11 12 11 11 11 11 12 14 17 16 16 15 14 15 14 14 13 13 13 13 14 15 17 19 23 23 24 26 26 27 28 27 26 28 27 27 26 23 20 18 18 15 12

GFSMW_850_spd_126.txt.gz
Wind_Speed
31 29 28 28 26 29 32 35 33 36 33 38 52 58 55 55 49 53 49 50 49 46 43 42 43 42 40 37 33 29 27 22 20 18 17 15 14 14 13 11 12 11 10
31 26 24 22 27 33 34 34 37 33 35 44 53 52 55 55 51 51 51 51 50 45 44 42 42 44 41 38 35 31 28 24 23 22 18 12 15 16 16 14 13 14 11
23 21 19 20 23 29 34 37 36 29 26 31 39 58 57 51 54 54 52 52 53 48 46 42 42 45 43 40 36 32 29 28 27 25 15 9 11 19 19 18 17 15 14
7 12 13 18 24 26 31 29 28 31 30 19 27 47 57 51 48 53 51 54 52 50 47 42 39 40 41 39 36 33 31 28 29 28 28 15 9 12 11 21 21 17 17
6 6 12 19 20 25 24 20 17 19 17 27 21 9 39 43 41 49 53 53 51 48 41 40 39 41 38 36 36 33 32 30 30 30 30 27 13 14 12 14 17 18 18
18 7 8 17 22 17 16 13 12 11 10 18 28 18 15 46 46 47 48 49 45 43 36 33 35 38 38 39 36 34 32 32 31 30 29 28 26 22 18 12 11 16 18
40 30 30 19 21 19 15 13 12 10 5 8 20 23 30 27 41 44 44 49 35 32 34 32 35 34 33 36 35 34 34 34 34 31 31 31 28 22 15 21 20 22 26
39 37 28 28 24 19 19 20 17 9 5 8 15 25 29 23 26 34 38 43 34 41 36 36 36 32 32 34 35 35 35 34 34 32 28 27 23 20 18 25 25 26 28
39 37 34 22 15 16 15 12 12 17 10 14 23 24 28 26 31 33 36 38 39 37 38 42 43 34 36 37 36 37 38 34 31 29 26 24 24 22 25 30 30 27 27
34 32 33 28 23 19 19 21 17 14 14 15 13 24 28 32 36 32 34 35 36 31 28 30 36 38 38 38 38 39 37 33 29 29 30 28 26 27 30 32 29 28 29
34 32 29 28 27 27 22 17 15 16 15 16 12 14 28 30 33 31 31 30 28 27 26 27 25 33 37 38 36 33 31 30 30 24 25 27 29 34 32 31 33 28 26
31 32 30 27 26 26 25 20 19 17 13 10 13 13 10 10 18 18 20 21 25 22 20 23 28 29 33 34 35 34 37 37 31 25 27 31 32 32 32 33 35 35 23
28 31 33 32 29 26 24 22 20 14 14 9 8 6 8 17 15 9 2 12 12 17 20 21 21 24 26 27 30 30 32 33 30 30 33 32 34 33 30 28 25 28 27
26 28 31 31 30 29 26 22 21 18 14 14 11 8 5 3 1 2 7 1 4 12 18 24 28 26 23 23 26 26 27 28 29 25 24 27 29 32 31 29 24 24 25
23 25 27 28 27 28 28 25 22 23 18 16 15 13 10 8 2 3 1 2 2 4 9 13 26 35 36 37 35 35 34 32 29 30 34 36 33 32 38 34 32 30 20
19 19 21 23 25 25 25 24 24 21 16 14 11 9 8 6 4 3 4 3 1 4 6 7 6 9 14 11 18 36 47 43 39 28 29 30 29 35 29 26 32 22 20
13 15 17 19 21 21 20 21 20 18 17 12 10 7 5 3 4 4 1 1 1 2 2 1 4 10 16 17 17 17 19 22 27 27 31 28 31 24 23 22 22 21 19
10 12 12 12 12 13 14 15 14 14 13 13 12 10 9 7 6 3 2 3 5 5 5 5 4 4 7 10 13 15 17 18 21 21 21 21 20 24 21 20 18 18 18
8 9 11 11 10 10 10 10 9 10 11 11 11 10 9 8 7 7 7 7 7 7 8 9 9 10 10 13 13 13 15 17 15 16 18 19 19 20 19 19 19 18 19
6 6 7 8 7 7 9 10 12 12 10 10 11 11 11 10 8 8 8 8 9 9 10 12 14 14 14 15 16 17 16 17 17 17 19 19 19 19 19 18 18 17 16
5 6 6 6 6 7 9 11 13 13 14 12 11 10 10 11 12 11 11 12 13 13 14 14 13 14 15 16 17 18 20 18 18 20 20 21 20 22 23 22 20 16 18
7 6 6 6 5 4 4 7 10 12 13 12 11 12 12 11 11 11 13 13 14 16 17 17 16 15 16 16 18 20 21 22 22 23 22 21 22 23 24 22 20 24 23
8 8 7 6 6 4 3 6 7 10 13 12 10 10 13 15 15 14 14 15 16 17 18 19 20 20 17 18 19 20 22 24 25 24 24 23 24 25 25 23 23 25 24
12 12 11 9 8 7 5 3 4 9 10 11 11 12 14 16 15 13 15 15 16 16 17 18 19 20 20 20 20 20 22 24 24 23 24 25 27 27 26 25 26 27 24
13 13 13 11 9 8 8 8 6 4 7 10 12 12 13 15 14 13 16 17 16 18 20 21 21 22 22 19 20 22 23 23 23 24 26 28 30 30 30 29 28 27 25
10 10 11 12 10 9 9 9 9 9 7 9 13 14 15 16 18 19 17 15 18 18 19 20 23 24 23 22 22 23 25 24 23 26 30 33 33 34 34 33 33 32 31